     2              OBSERVATION DATA    GPS                 RINEX VERSION / TYPE
teqc 2000Feb29 simon 20000628 01:37:23UTC                   PGM / RUN BY / DATE
                                                            COMMENT
L2: 1 -> 1; 150 -> 5; 250 -> 9                              COMMENT
L2: 1 -> 1; 150 -> 5; 250 -> 9                              COMMENT
L2: 1 -> 1; 150 -> 5; 250 -> 9                              COMMENT
L2: 1 -> 1; 150 -> 5; 250 -> 9                              COMMENT
L2: 1 -> 1; 150 -> 5; 250 -> 9                              COMMENT
Original Marker Name: GS26                                  COMMENT
Campaign Name: China Lake April 2000                        COMMENT
4-Character Station Name: GS26                              COMMENT
6-Character Antenna Code: ASHGD3                            COMMENT
Vertical Measurement Point: TGP                             COMMENT
Vertical Offset to Rinex Ref. Point: 0.0640                 COMMENT
Radial Measurement Point: RRP                               COMMENT
Radial Offset to Rinex Ref. Point: 0.0000                   COMMENT
Antenna Height from Field Measurement: 0.2480 m             COMMENT
Additional Antenna Identification Info.:                    COMMENT
The Whopper (700718AB)                                      COMMENT
Original XYZ: -2410770.5900 -4582622.3300 3712703.1500      COMMENT
New XYZ position is based on association with SCEC monument COMMENT
E1F4E5C5+0011. Position of that monument is believed to be  COMMENT
valid to within 1 m horizontally; vertical accuracy         COMMENT
should be no worse than 3-times this value.                 COMMENT
                                                            COMMENT
Revised Rinex header created by UCSD GPS archive for        COMMENT
GSAC on 14-Sep-2001 (2001:257) 20:20:28 GMT                 COMMENT
For assistance contact dagnew@ucsd.edu                      COMMENT
or anderson@python.ucsd.edu                                 COMMENT
                                                            COMMENT
GO26                                                        MARKER NAME
gs26                                                        MARKER NUMBER
WAP US NATIONAL IMAGERY MAPPING AGENCY                      OBSERVER / AGENCY
496 ASHTECH Z-XII3 4J30                                     REC # / TYPE / VERS
965 ASHTECH GEODETIC III                                    ANT # / TYPE
 -2396838.6623 -4596051.7826  3705242.6498                  APPROX POSITION XYZ
        0.1840        0.0000        0.0000                  ANTENNA: DELTA H/E/N
     1     1     0                                          WAVELENGTH FACT L1/2
     7    L1    L2    C1    P1    P2    S1    S2            # / TYPES OF OBSERV
    30                                                      INTERVAL
  2000     5    15    14    42   30.000000                  TIME OF FIRST OBS
  2000     5    15    21    29   60.000000                  TIME OF LAST OBS
                                                            END OF HEADER
 00  5 15 14 42 30.0000000  0  5G 2G26G 4G 7G 9
     32060.15359     18037.78557  19646179.635    19646178.976    19646186.662
       240.000         204.000
     81414.01049     54091.84246  21656493.038    21656493.293    21656502.230
       225.000         174.000
    -92372.02059    -51594.08957  19744612.422    19744612.976    19744621.354
       234.000         191.000
     33429.64559     21799.75347  18767966.876    18767966.178    18767972.985
       239.000         209.000
    -88075.47759    -57866.60757  20223091.265    20223090.977    20223098.898
       236.000         197.000
 00  5 15 14 42 59.9990000  0  3G 2G26G 7
     50750.80049     32601.89047  21448491.269    21448490.530    21448498.132
       240.000         204.000
    136736.13549     97199.86646  23465775.561    23465775.718    23465784.665
       224.000         174.000
     53010.71149     37057.69747  20570447.944    20570447.147    20570453.925
       239.000         209.000
 00  5 15 14 43 29.9990000  0  5G 2G26G 4G 7G 9
     69642.69349     47322.81347  21452086.352    21452085.559    21452093.182
       240.000         205.000
    192261.63049    140466.36146  23476341.754    23476341.792    23476350.964
       224.000         173.000
   -291140.50049   -206478.47447  21505543.192    21505543.160    21505551.875
       235.000         192.000
     72850.35949     52517.15447  20574223.343    20574222.524    20574229.310
       240.000         209.000
   -258973.24549   -191033.60047  21989325.532    21989325.163    21989332.911
       235.000         196.000
 00  5 15 14 43 59.9990000  0  6G 2G26G 4G 7G 8G 9
     88764.68349     62223.03547  21455725.207    21455724.407    21455732.006
       241.000         205.000
    248007.47849    183904.56246  23486949.866    23486949.893    23486959.162
       224.000         173.000
   -390020.32749   -283527.62747  21486727.009    21486726.986    21486735.638
       236.000         193.000
     92975.25749     68198.87647  20578053.021    20578052.184    20578058.959
       240.000         210.000
    176227.09855                  24127592.992
       207.000         148.000
   -343883.46249   -257197.36047  21973167.637    21973167.242    21973175.038
       235.000         196.000
 00  5 15 14 44 29.9990000  0  6G 2G26G 4G 7G 8G 9
    108098.89449     77288.62747  21459404.421    21459403.608    21459411.218
       240.000         204.000
    303952.22049    227497.74046  23497595.918    23497595.849    23497605.190
       226.000         175.000
   -488559.65649   -360311.44447  21467975.608    21467975.589    21467984.179
       235.000         193.000
    113365.32949     84087.22747  20581933.158    20581932.300    20581939.080
       240.000         210.000
    354585.64749    254235.06645  24146643.588    24146645.052    24146656.352
       211.000         153.000
   -428432.50849   -323079.67347  21957078.436    21957078.055    21957085.872
       235.000         197.000
 00  5 15 14 44 59.9990000  0  6G 2G26G 4G 7G 8G 9
    127621.78849     92501.24847  21463119.540    21463118.704    21463126.319
       240.000         204.000
    360068.66949    271224.72646  23508274.699    23508274.569    23508283.873
       224.000         174.000
   -586779.93749   -436846.65447  21449284.897    21449284.874    21449293.443
       236.000         193.000
    133994.75949    100162.09347  20585858.818    20585857.962    20585864.743
       240.000         208.000
    454744.55649    332280.61455  24165703.304    24165702.799    24165716.481
       209.000         151.000
   -512642.13149   -388697.50147  21941053.915    21941053.514    21941061.290
       236.000         196.000
 00  5 15 14 45 29.9990000  0  7G 2G26G 4G24G 7G 8G 9
    147353.92049    107876.91447  21466874.480    21466873.632    21466881.225
       239.000         204.000
    416373.97749    315098.85846  23518989.437    23518989.228    23518998.502
       225.000         175.000
   -684658.12449   -513115.29447  21430659.286    21430659.257    21430667.812
       235.000         193.000
   -378259.01659   -274274.97655  23873107.784    23873107.076    23873121.999
       204.000         148.000
    154881.96649    116437.82147  20589833.541    20589832.666    20589839.459
       239.000         208.000
    554969.19659    410377.40045  24184775.564    24184775.464    24184788.921
       210.000         151.000
   -596489.93049   -454033.39747  21925098.251    21925097.828    21925105.556
       235.000         197.000
 00  5 15 14 45 59.9990000  0  7G 2G26G 4G24G 7G 8G 9
    167287.67549    123409.69047  21470667.803    21470666.919    21470674.534
       240.000         203.000
    472856.99349    359111.45746  23529737.897    23529737.644    23529746.916
       224.000         173.000
   -782199.53849   -589121.49847  21412097.757    21412097.729    21412106.285
       237.000         193.000
   -501278.14649   -370133.91445  23849698.154    23849698.130    23849712.638
       209.000         148.000
    176017.14449    132906.77347  20593855.438    20593854.574    20593861.362
       240.000         208.000
    655249.24849    488517.33345  24203858.404    24203858.275    24203872.050
       212.000         154.000
   -679981.87349   -519092.00047  21909210.245    21909209.815    21909217.540
       235.000         197.000
 00  5 15 14 46 29.9990000  0  7G 2G26G 4G24G 7G 8G 9
    187446.68049    139117.98247  21474503.956    21474503.070    21474510.697
       240.000         203.000
    529537.66849    403278.09546  23540523.897    23540523.660    23540532.964
       224.000         173.000
   -879378.17649   -664845.01447  21393605.281    21393605.241    21393613.781
       236.000         194.000
   -624283.59759   -465982.18055  23826291.138    23826290.689    23826304.967
       207.000         148.000
    197421.52649    149585.50247  20597928.615    20597927.710    20597934.500
       240.000         208.000
    755605.44649    566716.62245  24222955.794    24222955.606    24222969.232
       211.000         154.000
   -763092.92249   -583853.80647  21893394.646    21893394.276    21893402.026
       235.000         197.000
 00  5 15 14 46 59.9990000  0  7G 2G26G 4G24G 7G 8G 9
    207819.98149    154993.24747  21478380.893    21478380.011    21478387.655
       240.000         203.000
    586401.81249    447587.69646  23551344.901    23551344.623    23551353.955
       226.000         172.000
   -976202.91249   -740292.77547  21375180.120    21375180.092    21375188.625
       238.000         194.000
   -747284.10749   -561826.60445  23802884.953    23802884.575    23802898.707
       207.000         147.000
    219082.16449    166463.90547  20602050.567    20602049.622    20602056.423
       241.000         210.000
    856024.19849    644964.63145  24242065.149    24242064.774    24242078.520
       213.000         152.000
   -845832.08449   -648325.83147  21877649.852    21877649.491    21877657.286
       236.000         197.000
 00  5 15 14 47 29.9990000  0  7G 2G26G 4G24G 7G 8G 9
    228442.96649    171063.07247  21482305.351    21482304.459    21482312.131
       239.000         203.000
    643481.11049    492064.95446  23562206.832    23562206.503    23562215.903
       224.000         172.000
  -1072635.80449   -815435.20447  21356829.544    21356829.507    21356838.008
       237.000         195.000
   -870242.09749   -657637.86145  23779486.809    23779486.263    23779500.676
       208.000         146.000
    241032.35949    183567.94047  20606227.596    20606226.645    20606233.443
       240.000         210.000
    956538.35249    723286.98445  24261192.640    24261192.111    24261205.858
       213.000         155.000
   -928162.15349   -712479.07947  21861982.961    21861982.595    21861990.392
       235.000         197.000
 00  5 15 14 47 59.9990000  0  7G 2G26G 4G24G 7G 8G 9
    249313.47549    187325.76447  21486276.927    21486276.014    21486283.695
       238.000         202.000
    700770.06049    536705.55946  23573108.651    23573108.321    23573117.763
       224.000         171.000
  -1168676.80849   -890272.26047  21338553.538    21338553.490    21338561.957
       238.000         195.000
   -993157.54249   -753415.98645  23756096.781    23756096.200    23756110.700
       204.000         147.000
    263267.77149    200894.21747  20610458.917    20610457.936    20610464.743
       240.000         209.000
   1057142.79149    801679.66545  24280337.311    24280336.631    24280350.327
       208.000         150.000
  -1010083.70449   -776314.00847  21846393.822    21846393.430    21846401.230
       236.000         197.000
 00  5 15 14 48 29.9990000  0  7G 2G26G 4G24G 7G 8G 9
    270453.50749    203798.47947  21490299.784    21490298.854    21490306.535
       240.000         202.000
    758286.96049    581523.78346  23584053.878    23584053.495    23584062.956
       224.000         171.000
  -1264301.56349   -964784.97247  21320356.715    21320356.679    21320365.113
       238.000         196.000
  -1116006.44849   -849142.23745  23732719.354    23732718.832    23732733.254
       208.000         145.000
    285808.06349    218458.06147  20614748.226    20614747.243    20614754.060
       240.000         210.000
   1157856.75649    880157.70745  24299502.839    24299501.998    24299515.721
       208.000         150.000
  -1091573.30149   -839812.34247  21830886.829    21830886.442    21830894.249
       235.000         197.000
 00  5 15 14 48 59.9990000  0  8G 5G 2G26G 4G24G 7G 8G 9
   -221009.81359   -157669.87555  24813003.429    24813001.820    24813013.776
       217.000         143.000
    291871.99749    220488.16747  21494375.639    21494374.697    21494382.359
       239.000         202.000
    816037.20649    626523.85846  23595043.523    23595043.100    23595052.582
       224.000         172.000
  -1359499.03849  -1038964.72747  21302241.165    21302241.165    21302249.590
       237.000         196.000
  -1238777.96049   -944808.16345  23709356.722    23709356.181    23709370.501
       203.000         148.000
    308660.20149    236264.91147  20619096.858    20619095.893    20619102.711
       239.000         209.000
   1258686.34749    958725.85445  24318690.336    24318689.341    24318703.096
       208.000         153.000
  -1172620.33349   -902965.82747  21815464.050    21815463.689    21815471.449
       235.000         197.000
 00  5 15 14 49 29.9990000  0  8G 5G 2G26G 4G24G 7G 8G 9
   -319169.01359   -234157.57355  24794324.253    24794323.312    24794333.961
       214.000         146.000
    313567.09049    237393.39947  21498504.103    21498503.171    21498510.841
       239.000         202.000
    874015.34949    671701.49046  23606076.412    23606076.017    23606085.567
       223.000         171.000
  -1454268.88049  -1112811.25247  21284206.981    21284207.014    21284215.446
       237.000         195.000
  -1361471.65249  -1040413.49345  23686008.908    23686008.339    23686022.680
       207.000         147.000
    331819.84549    254311.37347  20623503.976    20623503.036    20623509.867
       240.000         209.000
   1359626.89749   1037380.41645  24337898.950    24337897.860    24337911.646
       209.000         148.000
  -1253225.02549   -965774.63947  21800125.461    21800125.092    21800132.843
       236.000         197.000
 00  5 15 14 49 59.9990000  0  8G 5G 2G26G 4G24G 7G 8G 9
   -417326.63449   -310644.05945  24775645.468    24775644.505    24775655.298
       207.000         147.000
    335539.27849    254514.54347  21502685.341    21502684.386    21502692.060
       239.000         201.000
    932218.45949    717054.45146  23617152.148    23617151.757    23617161.355
       224.000         170.000
  -1548608.12849  -1186322.25647  21266254.784    21266254.801    21266263.236
       237.000         195.000
  -1484084.95049  -1135956.15745  23662676.346    23662675.801    23662690.077
       208.000         148.000
    355285.32849    272596.15447  20627969.316    20627968.384    20627975.241
       240.000         209.000
   1460676.26949   1116119.80445  24357128.287    24357127.087    24357140.910
       208.000         150.000
  -1333385.21349  -1028237.07647  21784871.484    21784871.099    21784878.829
       236.000         197.000
 00  5 15 14 50 29.9990000  0  8G 5G 2G26G 4G24G 7G 8G 9
   -515479.47949   -387126.75945  24756967.736    24756966.844    24756977.460
       210.000         151.000
    357791.93849    271854.24647  21506919.917    21506918.972    21506926.655
       239.000         201.000
    990646.51949    762582.69346  23628270.718    23628270.361    23628279.965
       223.000         170.000
  -1642511.19249  -1259493.37247  21248385.578    21248385.596    21248394.027
       237.000         195.000
  -1606612.15649  -1231431.72445  23639360.059    23639359.639    23639373.862
       213.000         148.000
    379058.11449    291120.39347  20632493.130    20632492.193    20632499.087
       240.000         209.000
   1561835.09049   1194944.46145  24376378.520    24376377.201    24376391.064
       207.000         146.000
  -1413095.61749  -1090349.02647  21769703.059    21769702.696    21769710.429
       236.000         198.000
 00  5 15 14 50 59.9990000  0  8G 5G 2G26G 4G24G 7G 8G 9
   -613618.37749   -463598.59945  24738292.640    24738291.644    24738302.243
       210.000         151.000
    380334.74649    289420.02447  21511209.689    21511208.758    21511216.458
       239.000         201.000
   1049305.34749    808290.75246  23639433.284    23639432.858    23639442.502
       222.000         170.000
  -1735966.54049  -1332315.63247  21230601.564    21230601.585    21230609.987
       237.000         195.000
  -1729041.90849  -1326831.36945  23616062.373    23616062.016    23616076.168
       210.000         148.000
    403145.47249    309889.75447  20637076.788    20637075.879    20637082.797
       239.000         208.000
   1663110.20449   1273859.72745  24395650.828    24395649.442    24395663.373
       209.000         148.000
  -1492345.37249  -1152102.03547  21754622.268    21754621.935    21754629.692
       236.000         199.000
 00  5 15 14 51 29.9990000  0  8G 5G 2G26G 4G24G 7G 8G 9
   -711740.82149   -540057.61545  24719620.576    24719619.595    24719630.184
       212.000         155.000
    403170.19349    307213.84047  21515555.212    21515554.243    21515561.944
       239.000         202.000
   1108194.17849    854178.03446  23650639.706    23650639.166    23650648.831
       223.000         169.000
  -1828969.08149  -1404785.04147  21212903.726    21212903.750    21212912.138
       237.000         196.000
  -1851369.21949  -1422151.16245  23592784.156    23592783.829    23592797.948
       209.000         147.000
    427547.82349    328904.55947  20641720.475    20641719.525    20641726.476
       241.000         210.000
   1764501.47849   1352865.54845  24414945.162    24414943.801    24414957.678
       206.000         142.000
  -1571129.96449  -1213492.57847  21739630.037    21739629.717    21739637.467
       236.000         198.000
 00  5 15 14 51 59.9990000  0  8G 5G 2G26G 4G24G 7G 8G 9
   -809861.24149   -616515.01845  24700948.839    24700947.911    24700958.548
       210.000         152.000
    426283.98649    325224.55547  21519953.695    21519952.707    21519960.409
       239.000         202.000
   1167295.13749    900230.61046  23661886.413    23661885.854    23661895.516
       222.000         169.000
  -1921530.95249  -1476911.06647  21195289.688    21195289.755    21195298.134
       237.000         196.000
  -1973606.14449  -1517400.51545  23569523.127    23569522.898    23569536.916
       209.000         147.000
    452248.73349    348152.01847  20646420.954    20646419.995    20646426.949
       240.000         210.000
   1865991.73249   1431948.46745  24434258.364    24434256.983    24434270.976
       203.000         141.000
  -1649462.20749  -1274530.64047  21724723.902    21724723.560    21724731.315
       236.000         198.000
 00  5 15 14 52 29.9990000  0  8G 5G 2G26G 4G24G 7G 8G 9
   -907988.68349   -692977.88845  24682275.771    24682274.852    24682285.489
       212.000         156.000
    449667.40049    343445.35547  21524403.446    21524402.462    21524410.172
       238.000         201.000
   1226595.83749    946438.82346  23673171.066    23673170.506    23673180.203
       221.000         168.000
  -2013658.68149  -1548698.81147  21177758.275    21177758.366    21177766.747
       237.000         196.000
  -2095759.29849  -1612584.60245  23546277.999    23546277.889    23546291.854
       209.000         149.000
    477237.23849    367623.57247  20651176.147    20651175.181    20651182.147
       240.000         210.000
   1967569.43849   1511099.55245  24453588.164    24453586.789    24453600.881
       206.000         141.000
  -1727349.18149  -1335221.74247  21709902.468    21709902.134    21709909.884
       236.000         199.000
 00  5 15 14 52 59.9990000  0  8G 5G 2G26G 4G24G 7G 8G 9
  -1006112.16949   -769437.70445  24663603.479    24663602.604    24663613.267
       209.000         150.000
    473331.73349    361885.05347  21528906.634    21528905.667    21528913.390
       238.000         200.000
   1286104.37849    992808.97946  23684495.176    23684494.714    23684504.417
       222.000         169.000
  -2105338.61849  -1620137.62347  21160312.107    21160312.196    21160320.555
       237.000         196.000
  -2217815.26749  -1707692.95945  23523051.425    23523051.279    23523065.249
       210.000         149.000
    502522.77549    387326.57147  20655987.841    20655986.875    20655993.840
       240.000         209.000
   2069243.74749   1590325.90845  24472936.459    24472935.009    24472949.272
       204.000         140.000
  -1804777.73849  -1395555.62947  21695168.291    21695167.954    21695175.712
       237.000         200.000
 00  5 15 14 53 29.9990000  0  8G 5G 2G26G 4G24G 7G 8G 9
  -1104220.55049   -845885.77145  24644934.121    24644933.199    24644943.856
       210.000         145.000
    497288.24049    380552.42547  21533465.470    21533464.491    21533472.209
       239.000         200.000
   1345828.32449   1039346.96746  23695860.292    23695859.851    23695869.647
       223.000         169.000
  -2196557.48449  -1691217.15747  21142953.676    21142953.759    21142962.130
       237.000         196.000
  -2339760.61749  -1802715.08945  23499845.910    23499845.774    23499859.723
       211.000         149.000
    528114.22649    407267.95647  20660857.744    20660856.786    20660863.755
       241.000         209.000
   2171022.68849   1669633.78345  24492304.694    24492303.109    24492317.495
       205.000         136.000
  -1881735.20749  -1455522.44947  21680523.784    21680523.431    21680531.145
       238.000         200.000
 00  5 15 14 53 59.9990000  0  8G 5G 2G26G 4G24G 7G 8G 9
  -1202312.63149   -922321.10645  24626267.805    24626266.867    24626277.481
       208.000         146.000
    521538.08849    399448.37247  21538080.169    21538079.153    21538086.850
       239.000         201.000
   1405765.38749   1086051.04546  23707266.038    23707265.628    23707275.403
       221.000         169.000
  -2287311.62849  -1761934.57947  21125683.737    21125683.767    21125692.133
       237.000         196.000
  -2461591.83849  -1897648.29845  23476662.087    23476661.948    23476675.801
       213.000         151.000
    554010.62549    427446.95847  20665785.700    20665784.729    20665791.678
       240.000         210.000
   2272904.68349   1749021.98145  24511692.477    24511690.967    24511705.426
       202.000         137.000
  -1958218.85449  -1515120.05747  21665969.431    21665969.064    21665976.756
       237.000         200.000
 00  5 15 14 54 29.9990000  0  8G 5G 2G26G 4G24G 7G 8G 9
  -1300371.90349   -998730.88245  24607607.593    24607606.687    24607617.361
       202.000         144.000
    546098.23549    418586.10847  21542753.890    21542752.854    21542760.548
       239.000         200.000
   1465929.04249   1132931.68146  23718714.942    23718714.496    23718724.320
       224.000         170.000
  -2377582.18549  -1832275.16847  21108505.759    21108505.797    21108514.168
       237.000         196.000
  -2583289.94149  -1992477.76245  23453503.652    23453503.457    23453517.285
       213.000         152.000
    580226.95449    447875.26047  20670774.511    20670773.527    20670780.503
       241.000         209.000
   2374904.11349   1828501.69545  24531102.685    24531101.127    24531115.595
       201.000         135.000
  -2034209.96749  -1574333.87847  21651508.774    21651508.411    21651516.082
       238.000         200.000
 00  5 15 14 54 59.9990000  0  8G 5G 2G26G 4G24G 7G 8G 9
  -1398431.54849  -1075140.90445  24588947.284    24588946.483    24588957.265
       199.000         141.000
    570935.62149    437939.87747  21547480.311    21547479.286    21547486.992
       238.000         200.000
   1526282.66049   1179960.33846  23730199.991    23730199.528    23730209.336
       223.000         169.000
  -2467400.14149  -1902263.10047  21091413.895    21091413.933    21091422.302
       237.000         196.000
  -2704885.85549  -2087227.60245  23430364.646    23430364.434    23430378.184
       216.000         154.000
    606727.75549    468525.22247  20675817.426    20675816.470    20675823.444
       241.000         209.000
   2476985.09849   1908044.97344  24550528.350    24550526.754    24550541.350
       198.000         130.000
  -2109740.20649  -1633188.58847  21637135.880    21637135.479    21637143.135
       238.000         201.000
 00  5 15 14 55 29.9990000  0  8G 5G 2G26G 4G24G 7G 8G 9
  -1496484.41649  -1151545.62445  24570288.341    24570287.477    24570298.477
       202.000         143.000
    596057.36549    457515.22847  21552260.860    21552259.837    21552267.548
       238.000         200.000
   1586829.81549   1227139.81146  23741721.842    23741721.350    23741731.194
       224.000         170.000
  -2556756.08949  -1971891.02347  21074409.925    21074409.987    21074418.330
       236.000         197.000
  -2826370.31549  -2181890.59745  23407246.788    23407246.581    23407260.252
       217.000         155.000
    633518.15649    489400.85047  20680915.474    20680914.523    20680921.517
       240.000         209.000
   2579152.05749   1987655.22544  24569970.327    24569968.658    24569983.467
       197.000         129.000
  -2184800.77849  -1691677.31947  21622852.396    21622851.957    21622859.544
       238.000         201.000
 00  5 15 14 55 59.9990000  0  8G 5G 2G26G 4G24G 7G 8G 9
  -1594507.16249  -1227926.92345  24551635.264    24551634.470    24551645.343
       203.000         142.000
    621487.11749    477330.58047  21557100.047    21557099.026    21557106.706
       238.000         200.000
   1647590.62649   1274485.76046  23753284.404    23753283.874    23753293.707
       225.000         170.000
  -2645624.19249  -2041138.80947  21057498.807    21057498.898    21057507.235
       238.000         198.000
  -2947717.49149  -2276446.62245  23384155.056    23384154.893    23384168.473
       215.000         155.000
    660619.55649    510518.81147  20686072.688    20686071.759    20686078.763
       240.000         209.000
   2681425.74149   2067348.62045  24589432.586    24589430.905    24589445.746
       198.000         132.000
  -2259366.63949  -1749780.56847  21608663.045    21608662.562    21608670.092
       239.000         201.000
 00  5 15 14 56 29.9990000  0  8G 5G 2G26G 4G24G 7G 8G 9
  -1692512.25149  -1304294.44345  24532985.543    24532984.706    24532995.515
       203.000         146.000
    647212.32849    497376.15847  21561995.438    21561994.417    21562002.108
       238.000         200.000
   1708549.09449   1321985.72246  23764884.582    23764884.018    23764893.888
       226.000         171.000
  -2734014.98649  -2110014.66947  21040678.524    21040678.634    21040686.965
       237.000         198.000
  -3068937.48649  -2370903.53745  23361087.486    23361087.415    23361100.887
       219.000         156.000
    688017.38849    531867.75447  20691286.371    20691285.420    20691292.413
       242.000         209.000
   2783791.10949   2147113.44444  24608912.297    24608910.799    24608925.438
       199.000         129.000
  -2333448.61349  -1807506.76047  21594565.736    21594565.256    21594572.725
       239.000         201.000
 00  5 15 14 56 59.9990000  0  8G 5G 2G26G 4G24G 7G 8G 9
  -1790498.77649  -1380647.50945  24514339.280    24514338.451    24514349.226
       204.000         148.000
    673234.19349    517652.89247  21566947.248    21566946.261    21566953.985
       237.000         200.000
   1769702.96949   1369637.94846  23776521.940    23776521.342    23776531.258
       224.000         171.000
  -2821924.90449  -2178515.81247  21023949.772    21023949.888    21023958.212
       237.000         198.000
  -3190027.05049  -2465258.82645  23338044.787    23338044.720    23338058.153
       219.000         156.000
    715710.85449    553447.06247  20696556.322    20696555.343    20696562.317
       242.000         209.000
   2886246.52249   2226948.49844  24628409.091    24628407.753    24628422.467
       197.000         127.000
  -2407043.94349  -1864853.74847  21580560.982    21580560.537    21580567.983
       238.000         202.000
 00  5 15 14 57 29.9990000  0  8G 5G 2G26G 4G24G 7G 8G 9
  -1888460.00349  -1456980.86045  24495697.834    24495696.984    24495707.801
       208.000         150.000
    699559.47849    538166.06047  21571956.834    21571955.841    21571963.592
       237.000         200.000
   1831055.67649   1417445.10746  23788197.128    23788196.515    23788206.464
       225.000         171.000
  -2909345.26649  -2246635.48147  21007314.186    21007314.288    21007322.608
       237.000         198.000
  -3310976.98449  -2559505.32345  23315028.677    23315028.585    23315041.949
       217.000         154.000
    743704.59349    575260.35047  20701883.408    20701882.415    20701889.356
       242.000         210.000
   2988796.30449   2306857.01844  24647923.992    24647922.562    24647937.538
       195.000         124.000
  -2480144.21149  -1921814.96947  21566650.464    21566650.007    21566657.457
       238.000         202.000
 00  5 15 14 57 59.9990000  0  8G 5G 2G26G 4G24G 7G 8G 9
  -1986381.57849  -1533283.30045  24477063.929    24477063.080    24477073.936
       203.000         148.000
    726202.96549    558927.17647  21577026.964    21577025.971    21577033.757
       238.000         200.000
   1892618.16549   1465415.72846  23799912.189    23799911.586    23799921.609
       226.000         171.000
  -2996259.06949  -2314360.43747  20990775.000    20990775.099    20990783.369
       239.000         198.000
  -3431770.39749  -2653629.83745  23292042.314    23292042.217    23292055.567
       217.000         156.000
    772011.11549    597317.36647  20707269.997    20707269.011    20707275.939
       243.000         210.000
   3091452.18249   2386848.26844  24667459.047    24667457.623    24667472.658
       198.000         126.000
  -2552732.96949  -1978377.60947  21552837.267    21552836.835    21552844.250
       239.000         202.000
 00  5 15 14 58 29.9990000  0  8G 5G 2G26G 4G24G 7G 8G 9
  -2084277.50549  -1609565.76245  24458434.668    24458434.066    24458444.894
       206.000         145.000
    753150.56049    579925.25647  21582154.970    21582153.984    21582161.793
       237.000         199.000
   1954373.14349   1513536.33046  23811663.855    23811663.274    23811673.344
       225.000         168.000
  -3082678.31549  -2381700.03247  20974329.949    20974330.033    20974338.237
       239.000         198.000
  -3552419.37449  -2747641.83145  23269083.398    23269083.331    23269096.586
       216.000         156.000
    800614.29049    619605.53447  20712713.046    20712712.051    20712718.981
       242.000         210.000
   3194197.55049   2466909.17944  24687011.223    24687009.685    24687024.881
       196.000         122.000
  -2624823.04549  -2034551.66647  21539119.004    21539118.551    21539125.935
       239.000         202.000
 00  5 15 14 58 59.9990000  0  8G 5G 2G26G 4G24G 7G 8G 9
  -2182180.30449  -1685853.57745  24439804.562    24439803.763    24439814.503
       201.000         144.000
    780369.71049    601134.94347  21587334.594    21587333.641    21587341.492
       237.000         199.000
   2016284.52749   1561778.83746  23823445.274    23823444.717    23823454.847
       224.000         168.000
  -3168633.30349  -2448677.86447  20957973.229    20957973.299    20957981.434
       240.000         198.000
  -3672953.99449  -2841564.70445  23246146.166    23246146.184    23246159.444
       217.000         158.000
    829479.65849    642098.01547  20718205.974    20718204.982    20718211.920
       242.000         209.000
   3296997.19549   2547012.43744  24706573.776    24706572.132    24706587.117
       195.000         120.000
  -2696445.38349  -2090361.24247  21525489.741    21525489.286    21525496.619
       240.000         202.000
 00  5 15 14 59 29.9990000  0  8G 5G 2G26G 4G24G 7G 8G 9
  -2280065.79849  -1762127.89445  24421177.585    24421176.743    24421187.429
       207.000         144.000
    807884.51449    622575.00247  21592570.501    21592569.557    21592577.437
       236.000         199.000
   2078373.07049   1610159.38546  23835260.415    23835259.887    23835270.043
       223.000         168.000
  -3254097.99849  -2515273.64747  20941709.786    20941709.864    20941717.957
       239.000         198.000
  -3793347.78049  -2935377.85445  23223235.797    23223235.869    23223249.034
       218.000         161.000
    858629.32649    664812.02247  20723752.940    20723751.994    20723758.960
       241.000         209.000
   3399872.65848   2627174.71944  24726150.807    24726149.200    24726164.064
       191.000         122.000
  -2767573.89449  -2145786.01647  21511954.418    21511953.962    21511961.262
       239.000         202.000
 00  5 15 14 59 59.9990000  0  8G 5G 2G26G 4G24G 7G 8G 9
  -2377922.32449  -1838379.65145  24402555.884    24402555.151    24402565.840
       207.000         145.000
    835706.87949    644254.71947  21597864.962    21597864.013    21597871.912
       236.000         199.000
   2140647.16249   1658684.49146  23847110.804    23847110.317    23847120.543
       223.000         166.000
  -3339058.26349  -2581476.36447  20925542.305    20925542.409    20925550.475
       238.000         198.000
  -3913586.63449  -3029070.27745  23200354.986    23200355.007    23200368.163
       222.000         162.000
    888072.97149    687755.09747  20729355.907    20729354.956    20729361.930
       242.000         209.000
   3502833.07349   2707403.19144  24745743.819    24745742.329    24745757.363
       196.000         118.000
  -2838195.27649  -2200815.61847  21498515.541    21498515.135    21498522.411
       239.000         202.000
 00  5 15 15  0 29.9990000  0  8G 5G 2G26G 4G24G 7G 8G 9
  -2475743.44249  -1914603.81545  24383941.042    24383940.319    24383951.008
       210.000         147.000
    863843.33749    666179.18147  21603219.174    21603218.233    21603226.172
       235.000         199.000
   2203109.91349   1707356.61046  23858997.200    23858996.724    23859006.922
       223.000         167.000
  -3423505.55349  -2647279.36247  20909472.447    20909472.560    20909480.631
       239.000         199.000
  -4033661.90249  -3122635.24646  23177505.326    23177505.287    23177518.375
       222.000         164.000
    917815.05349    710930.72247  20735015.662    20735014.714    20735021.682
       241.000         209.000
   3605882.15448   2787700.83444  24765353.713    24765352.054    24765367.390
       191.000         114.000
  -2908301.62449  -2255443.88947  21485174.680    21485174.302    21485181.601
       239.000         203.000
 00  5 15 15  0 59.9990000  0  8G 5G 2G26G 4G24G 7G 8G 9
  -2573549.17049  -1990816.01245  24365329.152    24365328.513    24365339.120
       206.000         148.000
    892273.74349    688332.69747  21608629.295    21608628.393    21608636.371
       235.000         198.000
   2265737.64549   1756157.28146  23870915.026    23870914.501    23870924.729
       223.000         166.000
  -3507457.96349  -2712696.74347  20893496.780    20893496.901    20893504.951
       240.000         200.000
  -4153591.38049  -3216086.63046  23154683.360    23154683.334    23154696.361
       221.000         165.000
    947833.47449    734321.67547  20740727.964    20740727.030    20740734.015
       242.000         209.000
   3708997.34948   2868049.90744  24784976.167    24784974.569    24784989.961
       187.000         120.000
  -2977911.62749  -2309685.40147  21471928.333    21471927.964    21471935.246
       240.000         204.000
 00  5 15 15  1 29.9990000  0  8G 5G 2G26G 4G24G 7G 8G 9
  -2671341.98849  -2067018.13745  24346719.655    24346719.070    24346729.640
       211.000         149.000
    920995.70849    710713.39947  21614094.928    21614094.021    21614102.039
       236.000         198.000
   2328524.49549   1805081.94746  23882863.143    23882862.574    23882872.825
       222.000         165.000
  -3590915.89149  -2777728.82547  20877615.288    20877615.375    20877623.379
       240.000         200.000
  -4273375.29149  -3309424.57346  23131888.994    23131889.054    23131902.062
       219.000         164.000
    978123.57449    757924.33047  20746491.978    20746491.056    20746498.056
       241.000         208.000
   3812173.39548   2948446.38944  24804610.224    24804608.549    24804624.084
       192.000         117.000
  -3047026.15149  -2363540.83047  21458776.311    21458775.916    21458783.195
       240.000         204.000
 00  5 15 15  1 59.9990000  0  7G 5G 2G26G 4G24G 7G 9
  -2769116.48049  -2143205.99145  24328113.777    24328113.130    24328123.673
       212.000         151.000
    950014.72349    733325.56647  21619617.114    21619616.199    21619624.216
       236.000         198.000
   2391472.65949   1854132.30346  23894841.919    23894841.345    23894851.632
       223.000         165.000
  -3673871.71449  -2842369.64647  20861829.277    20861829.359    20861837.344
       239.000         200.000
  -4393005.57549  -3402642.82345  23109123.885    23109124.006    23109136.993
       220.000         162.000
   1008689.03049    781741.54447  20752308.355    20752307.474    20752314.475
       241.000         209.000
  -3115638.10349  -2417004.64947  21445719.891    21445719.480    21445726.762
       240.000         204.000
 00  5 15 15  2 29.9990000  0  7G 5G 2G26G 4G24G 7G 9
  -2866889.81449  -2219392.93245  24309508.054    24309507.428    24309517.942
       217.000         150.000
    979313.58649    756155.80147  21625192.559    21625191.635    21625199.663
       236.000         198.000
   2454561.45749   1903292.24846  23906847.381    23906846.855    23906857.200
       223.000         164.000
  -3756340.64149  -2906631.06647  20846135.862    20846135.973    20846143.960
       239.000         199.000
  -4512497.30149  -3495753.10245  23086385.195    23086385.331    23086398.262
       220.000         162.000
   1039510.54549    805758.28347  20758173.515    20758172.617    20758179.622
       241.000         208.000
  -3183763.11249  -2470089.03147  21432756.101    21432755.703    21432763.000
       240.000         204.000
 00  5 15 15  2 59.9990000  0  7G 5G 2G26G 4G24G 7G 9
  -2964641.73749  -2295563.17145  24290906.522    24290905.847    24290916.313
       216.000         151.000
   1008912.56549    779219.87947  21630825.126    21630824.185    21630832.227
       236.000         198.000
   2517807.67049   1952574.85746  23918882.824    23918882.313    23918892.724
       223.000         164.000
  -3838300.34449  -2970495.70047  20830539.383    20830539.500    20830547.503
       240.000         201.000
  -4631828.17449  -3588738.05445  23063677.136    23063677.272    23063690.146
       217.000         162.000
   1070606.35649    829988.76047  20764090.853    20764089.980    20764096.980
       242.000         208.000
  -3251379.50649  -2522777.09847  21419889.144    21419888.744    21419896.006
       241.000         204.000
 00  5 15 15  3 29.9990000  0  7G 5G 2G26G 4G24G 7G 9
  -3062660.03949  -2371940.99045  24272254.231    24272253.560    24272263.969
       217.000         150.000
   1038523.78449    802293.49947  21636460.002    21636459.052    21636467.117
       236.000         198.000
   2580919.92049   2001753.08146  23930892.809    23930892.312    23930902.750
       221.000         163.000
  -3920036.92649  -3034186.47647  20814985.379    20814985.507    20814993.501
       240.000         201.000
  -4751283.52349  -3681819.98446  23040945.407    23040945.526    23040958.389
       219.000         163.000
   1101686.33949    854206.90347  20770005.217    20770004.331    20770011.327
       242.000         208.000
  -3318773.80849  -2575292.10747  21407064.412    21407064.019    21407071.255
       240.000         204.000
 00  5 15 15  3 59.9990000  0  7G 5G 2G26G 4G24G 7G 9
  -3160649.44149  -2448296.28745  24253607.565    24253606.799    24253617.129
       215.000         150.000
   1068442.38449    825606.63147  21642153.356    21642152.416    21642160.493
       235.000         198.000
   2644190.01949   2051054.29745  23942932.824    23942932.326    23942942.824
       223.000         162.000
  -4001253.10649  -3097471.74147  20799530.368    20799530.527    20799538.516
       240.000         201.000
  -4870566.09549  -3774767.29146  23018246.536    23018246.691    23018259.509
       219.000         164.000
   1133043.90149    878641.34747  20775972.399    20775971.499    20775978.494
       241.000         209.000
  -3385649.26949  -2627402.83147  21394338.378    21394338.028    21394345.236
       240.000         205.000
 00  5 15 15  4 29.9990000  0  7G 5G 2G26G 4G24G 7G 9
  -3258614.01749  -2524632.25345  24234965.464    24234964.759    24234974.974
       216.000         149.000
   1098664.13149    849155.98847  21647904.393    21647903.467    21647911.556
       237.000         197.000
   2707610.36649   2100472.58445  23955001.458    23955000.921    23955011.450
       222.000         160.000
  -4081950.99149  -3160353.14247  20784174.019    20784174.189    20784182.151
       241.000         201.000
  -4989677.51849  -3867581.24046  22995580.295    22995580.397    22995593.205
       220.000         167.000
   1164672.79649    903287.21447  20781991.221    20781990.311    20781997.294
       242.000         208.000
  -3452008.72249  -2679111.47347  21381710.586    21381710.226    21381717.410
       241.000         206.000
 00  5 15 15  4 59.9990000  0  7G 5G 2G26G 4G24G 7G 9
  -3356520.92049  -2600923.28545  24216334.368    24216333.714    24216343.817
       216.000         148.000
   1129221.96949    872967.23447  21653719.388    21653718.469    21653726.584
       235.000         197.000
   2771210.64749   2150031.08545  23967104.234    23967103.733    23967114.344
       219.000         159.000
  -4162095.60349  -3222803.42247  20768922.948    20768923.116    20768931.059
       240.000         201.000
  -5108582.74549  -3960234.51846  22972953.285    22972953.367    22972966.135
       219.000         168.000
   1196603.91949    928168.59147  20788067.521    20788066.630    20788073.609
       241.000         209.000
  -3517817.58449  -2730391.08547  21369187.551    21369187.206    21369194.400
       241.000         205.000
 00  5 15 15  5 29.9990000  0  7G 5G 2G26G 4G24G 7G 9
  -3454407.65549  -2677198.60545  24197707.142    24197706.439    24197716.588
       220.000         149.000
   1160078.30649    897011.07747  21659591.169    21659590.277    21659598.414
       235.000         197.000
   2834949.64449   2199697.67645  23979233.373    23979232.914    23979243.658
       218.000         157.000
  -4241722.72449  -3284850.46447  20753770.333    20753770.530    20753778.441
       240.000         201.000
  -5227316.73449  -4052754.35046  22950358.825    22950358.903    22950371.668
       219.000         169.000
   1228797.75149    953254.67647  20794193.814    20794192.935    20794199.923
       242.000         208.000
  -3583111.90549  -2781269.75747  21356762.412    21356762.091    21356769.277
       241.000         205.000
 00  5 15 15  5 59.9990000  0  7G 5G 2G26G 4G24G 7G 9
  -3552208.58449  -2753407.06745  24179096.294    24179095.491    24179105.640
       216.000         148.000
   1191298.53249    921338.45847  21665532.176    21665531.330    21665539.510
       235.000         197.000
   2898889.55549   2249520.81645  23991400.724    23991400.358    23991411.181
       216.000         158.000
  -4320764.84749  -3346441.66947  20738729.055    20738729.255    20738737.151
       241.000         202.000
  -5345812.15449  -4145088.28846  22927809.747    22927809.847    22927822.604
       219.000         169.000
   1261317.83049    978594.97547  20800382.178    20800381.318    20800388.332
       242.000         208.000
  -3647824.94449  -2831695.48547  21344447.856    21344447.576    21344454.796
       240.000         205.000
 00  5 15 15  6 29.9990000  0  7G 5G 2G26G 4G24G 7G 9
  -3649740.82049  -2829406.15945  24160536.534    24160535.754    24160545.810
       215.000         148.000
   1223065.44749    946091.83947  21671577.232    21671576.394    21671584.611
       235.000         196.000
   2963209.74349   2299640.29045  24003640.585    24003640.200    24003651.042
       217.000         156.000
  -4399037.43449  -3407433.23647  20723834.295    20723834.450    20723842.309
       241.000         202.000
  -5463883.60649  -4237091.85946  22905341.400    22905341.484    22905354.221
       219.000         168.000
   1294344.87849   1004330.32147  20806667.049    20806666.179    20806673.202
       242.000         208.000
  -3711772.58049  -2881524.78847  21332278.966    21332278.710    21332285.962
       240.000         205.000
 00  5 15 15  6 59.9990000  0  7G 5G 2G26G 4G24G 7G 9
  -3747238.69649  -2905378.45745  24141983.262    24141982.464    24141992.592
       214.000         147.000
   1255144.78949    971088.66447  21677681.785    21677680.946    21677689.173
       236.000         197.000
   3027672.35849   2349870.74745  24015907.592    24015907.156    24015918.020
       217.000         154.000
  -4476772.91949  -3468006.28347  20709041.723    20709041.853    20709049.672
       241.000         202.000
  -5581763.28349  -4328945.99446  22882909.616    22882909.644    22882922.318
       221.000         169.000
   1327642.51349   1030276.50947  20813003.412    20813002.548    20813009.560
       242.000         208.000
  -3775187.78349  -2930939.21347  21320211.408    21320211.165    21320218.429
       240.000         205.000
 00  5 15 15  7 29.9990000  0  7G 5G 2G26G 4G24G 7G 9
  -3844715.07149  -2981333.99945  24123434.016    24123433.236    24123443.403
       216.000         149.000
   1287523.69249    996318.91747  21683843.403    21683842.516    21683850.741
       235.000         197.000
   3092261.25649   2400199.58445  24028198.623    24028198.175    24028209.028
       213.000         153.000
  -4553982.22849  -3528169.32547  20694349.247    20694349.367    20694357.165
       241.000         202.000
  -5699461.59449  -4420658.82046  22860512.314    22860512.309    22860524.948
       222.000         169.000
   1361195.91549   1056422.00247  20819388.467    20819387.586    20819394.610
       242.000         208.000
  -3838081.72449  -2979947.45347  21308243.068    21308242.810    21308250.091
       241.000         205.000
 00  5 15 15  7 59.9990000  0  7G 5G 2G26G 4G24G 7G 9
  -3942167.20749  -3057270.64245  24104889.507    24104888.660    24104898.908
       213.000         148.000
   1320204.58949   1021784.48247  21690062.505    21690061.554    21690069.783
       235.000         197.000
   3156975.72049   2450626.27045  24040513.521    24040513.019    24040523.912
       213.000         153.000
  -4630660.64449  -3587918.68847  20679757.814    20679757.914    20679765.701
       240.000         202.000
  -5816973.71949  -4512226.54946  22838150.430    22838150.375    22838162.961
       220.000         168.000
   1395005.78249   1082767.34147  20825822.340    20825821.421    20825828.448
       242.000         208.000
  -3900450.63149  -3028546.57147  21296374.734    21296374.416    21296381.658
       241.000         206.000
 00  5 15 15  8 29.9990000  0  7G 5G 2G26G 4G24G 7G 9
  -4039707.88449  -3133276.28345  24086328.056    24086327.218    24086337.503
       215.000         150.000
   1353074.69149   1047397.47447  21696317.605    21696316.594    21696324.834
       236.000         196.000
   3221699.45749   2501060.19145  24052830.147    24052829.708    24052840.584
       214.000         151.000
  -4706919.38649  -3647341.04047  20665246.261    20665246.334    20665254.080
       240.000         203.000
  -5934410.18449  -4603735.32646  22815802.857    22815802.828    22815815.378
       221.000         168.000
   1428957.25449   1109223.01747  20832283.145    20832282.205    20832289.235
       242.000         208.000
  -3962405.87249  -3076823.35547  21284585.119    21284584.755    21284591.957
       242.000         206.000
 00  5 15 15  8 59.9990000  0  7G 5G 2G26G 4G24G 7G 9
  -4137388.45349  -3209390.94445  24067739.976    24067739.157    24067749.522
       212.000         149.000
   1386082.41549   1073117.70547  21702598.851    21702597.829    21702606.063
       235.000         196.000
   3286377.59949   2551458.59245  24065138.199    24065137.732    24065148.574
       210.000         151.000
  -4782808.04149  -3706475.01347  20650805.090    20650805.172    20650812.896
       240.000         203.000
  -6051820.04749  -4695223.38546  22793460.334    22793460.332    22793472.858
       220.000         169.000
   1462996.89349   1135747.39647  20838760.722    20838759.757    20838766.789
       242.000         208.000
  -4023997.59849  -3124816.87947  21272864.629    21272864.244    21272871.443
       241.000         206.000
 00  5 15 15  9 29.9980000  0  7G 5G 2G26G 4G24G 7G 9
  -4235019.59449  -3285467.08545  24049161.346    24049160.567    24049170.847
       214.000         149.000
   1419412.26249   1099088.94047  21708941.384    21708940.362    21708948.595
       236.000         197.000
   3351190.32049   2601961.82845  24077471.785    24077471.345    24077482.202
       213.000         151.000
  -4858136.50449  -3765172.46847  20636470.559    20636470.610    20636478.326
       240.000         204.000
  -6169011.53949  -4786541.27346  22771159.444    22771159.408    22771171.900
       221.000         170.000
   1497307.29949   1162482.76047  20845289.815    20845288.846    20845295.876
       242.000         207.000
  -4085036.85249  -3172379.90947  21261249.215    21261248.829    21261256.072
       241.000         206.000
 00  5 15 15  9 59.9980000  0  7G 5G 2G26G 4G24G 7G 9
  -4332628.84049  -3361526.13445  24030586.824    24030586.039    24030596.396
       219.000         150.000
   1453045.39949   1125296.50147  21715341.653    21715340.620    21715348.842
       235.000         197.000
   3416117.54649   2652554.31845  24089827.139    24089826.703    24089837.596
       216.000         152.000
  -4932929.10249  -3823452.37147  20622238.018    20622238.038    20622245.727
       241.000         204.000
  -6286011.07049  -4877709.58746  22748895.092    22748895.023    22748907.495
       221.000         171.000
   1531867.89549   1189413.07647  20851866.521    20851865.535    20851872.569
       242.000         207.000
  -4145547.14649  -3219530.76747  21249734.505    21249734.101    21249741.317
       242.000         206.000
 00  5 15 15 10 29.9980000  0  7G 5G 2G26G 4G24G 7G 9
  -4430176.65549  -3437537.35045  24012024.083    24012023.280    24012033.587
       213.000         150.000
   1487016.89249   1151767.71747  21721806.342    21721805.278    21721813.476
       236.000         197.000
   3481190.03449   2703259.97145  24102210.196    24102209.718    24102220.710
       213.000         151.000
  -5007145.18749  -3881283.03847  20608115.130    20608115.158    20608122.837
       240.000         203.000
  -6402776.26749  -4968695.30046  22726675.309    22726675.242    22726687.686
       223.000         173.000
   1566711.68549   1216564.06447  20858497.112    20858496.114    20858503.136
       242.000         208.000
  -4205489.15949  -3266238.80747  21238327.897    21238327.503    21238334.702
       241.000         206.000
 00  5 15 15 10 59.9980000  0  7G 5G 2G26G 4G24G 7G 9
  -4527667.68849  -3513504.30145  23993472.012    23993471.290    23993481.607
       212.000         151.000
   1521321.86249   1178498.78947  21728334.450    21728333.378    21728341.560
       236.000         196.000
   3546399.44949   2754072.33345  24114619.288    24114618.786    24114629.800
       210.000         150.000
  -5080788.10649  -3938667.09547  20594101.321    20594101.336    20594108.992
       241.000         203.000
  -6519309.73849  -5059500.46546  22704499.673    22704499.573    22704511.947
       223.000         173.000
   1601831.86349   1243930.41647  20865180.292    20865179.297    20865186.307
       242.000         207.000
  -4264866.38649  -3312506.75847  21227028.763    21227028.386    21227035.560
       242.000         206.000
 00  5 15 15 11 29.9980000  0  7G 5G 2G26G 4G24G 7G 9
  -4625125.86949  -3589445.64745  23974926.215    23974925.568    23974935.836
       218.000         151.000
   1555936.14749   1205470.89647  21734921.411    21734920.334    21734928.496
       236.000         196.000
   3611718.26549   2804969.95045  24127049.206    24127048.657    24127059.673
       212.000         152.000
  -5153880.06349  -3995621.82847  20580192.392    20580192.381    20580200.000
       241.000         204.000
  -6635633.08049  -5150141.88146  22682364.013    22682363.894    22682376.224
       223.000         173.000
   1637202.28449   1271491.77147  20871911.093    20871910.096    20871917.088
       242.000         207.000
  -4323701.55049  -3358352.31647  21215832.824    21215832.423    21215839.558
       241.000         206.000
 00  5 15 15 11 59.9980000  0  7G 5G 2G26G 4G24G 7G 9
  -4722442.38549  -3665276.62445  23956407.450    23956406.795    23956417.092
       217.000         154.000
   1590968.29749   1232768.60247  21741587.877    21741586.800    21741594.965
       235.000         196.000
   3677251.94549   2856034.97745  24139520.018    24139519.429    24139530.487
       214.000         151.000
  -5226310.65149  -4052061.21247  20566409.285    20566409.290    20566416.875
       240.000         204.000
  -6751635.54449  -5240533.28246  22660289.433    22660289.284    22660301.544
       223.000         172.000
   1672929.81149   1299331.38347  20878709.841    20878708.850    20878715.821
       241.000         207.000
  -4381884.85449  -3403689.94147  21204760.952    21204760.530    21204767.620
       242.000         206.000
 00  5 15 15 12 29.9980000  0  7G 5G 2G26G 4G24G 7G 9
  -4819512.97149  -3740915.94445  23937935.503    23937934.891    23937945.062
       217.000         154.000
   1626522.13249   1260472.81347  21748353.647    21748352.543    21748360.713
       236.000         196.000
   3743100.87949   2907345.65745  24152050.898    24152050.216    24152061.259
       214.000         153.000
  -5297974.23849  -4107902.92947  20552772.135    20552772.139    20552779.711
       240.000         204.000
  -6867210.81149  -5330591.80346  22638296.148    22638295.983    22638308.170
       222.000         171.000
   1709116.36949   1327528.67947  20885595.944    20885594.950    20885601.909
       241.000         207.000
  -4439310.81949  -3448437.43247  21193833.171    21193832.733    21193839.813
       242.000         206.000
 00  5 15 15 12 59.9980000  0  7G 5G 2G26G 4G24G 7G 9
  -4916510.46049  -3816498.30145  23919477.436    23919476.814    23919486.968
       215.000         153.000
   1662424.53949   1288448.64747  21755185.727    21755184.616    21755192.798
       235.000         196.000
   3809088.85949   2958764.69345  24164608.185    24164607.474    24164618.505
       213.000         153.000
  -5369042.06049  -4163280.41647  20539248.380    20539248.374    20539255.922
       240.000         204.000
  -6982529.49149  -5420450.37546  22616351.688    22616351.501    22616363.617
       222.000         170.000
   1745587.08049   1355947.39547  20892536.108    20892535.118    20892542.080
       241.000         207.000
  -4496151.43849  -3492728.81547  21183016.789    21183016.326    21183023.388
       242.000         206.000
 00  5 15 15 13 29.9980000  0  7G 5G 2G26G 4G24G 7G 9
  -5013442.77449  -3892029.88745  23901031.804    23901031.154    23901041.275
       217.000         152.000
   1698667.42049   1316689.78747  21762082.559    21762081.474    21762089.666
       235.000         195.000
   3875204.50649   3010283.21145  24177189.681    24177189.063    24177200.052
       213.000         154.000
  -5439520.46649  -4218198.62547  20525836.794    20525836.757    20525844.282
       241.000         205.000
  -7097597.40249  -5510113.54746  22594454.950    22594454.721    22594466.775
       222.000         171.000
   1782332.01749   1384579.78947  20899528.458    20899527.470    20899534.418
       242.000         208.000
  -4552413.45449  -3536569.33447  21172310.487    21172310.023    21172317.076
       242.000         207.000
 00  5 15 15 13 59.9980000  0  7G 5G 2G26G 4G24G 7G 9
  -5110359.08349  -3967549.00345  23882589.152    23882588.495    23882598.596
       216.000         151.000
   1735201.25549   1345157.65147  21769034.730    21769033.671    21769041.902
       234.000         195.000
   3941395.05249   3061860.06945  24189785.478    24189784.833    24189795.929
       215.000         155.000
  -5509457.04049  -4272694.61847  20512528.245    20512528.240    20512535.749
       241.000         205.000
  -7212461.41549  -5599617.83246  22572596.997    22572596.744    22572608.755
       222.000         173.000
   1819299.96649   1413385.96647  20906563.202    20906562.251    20906569.220
       241.000         208.000
  -4608144.85549  -3579996.38447  21161705.129    21161704.704    21161711.712
       242.000         207.000
 00  5 15 15 14 29.9980000  0  7G 5G 2G26G 4G24G 7G 9
  -5207201.25749  -4043010.35545  23864160.687    23864160.028    23864169.997
       213.000         151.000
   1772083.90949   1373897.31747  21776053.307    21776052.259    21776060.509
       235.000         196.000
   4007715.11849   3113537.85345  24202405.919    24202405.278    24202416.509
       212.000         156.000
  -5578792.31149  -4326722.07347  20499334.125    20499334.145    20499341.661
       241.000         205.000
  -7327061.56349  -5688916.50546  22550789.226    22550788.997    22550800.936
       224.000         174.000
   1856546.86249   1442409.49847  20913651.060    20913650.128    20913657.090
       242.000         208.000
  -4663286.76849  -3622964.09847  21151211.935    21151211.524    21151218.516
       243.000         207.000
 00  5 15 15 14 59.9980000  0  7G 5G 2G26G 4G24G 7G 9
  -5303982.09849  -4118423.93545  23845743.918    23845743.255    23845753.063
       215.000         152.000
   1809302.23649   1402898.55547  21783135.773    21783134.745    21783143.009
       235.000         196.000
   4074148.27849   3165303.75845  24215047.820    24215047.225    24215058.488
       212.000         157.000
  -5647537.88749  -4380290.01747  20486252.266    20486252.263    20486259.773
       241.000         205.000
  -7441408.55349  -5778017.92146  22529029.656    22529029.414    22529041.287
       223.000         173.000
   1894057.61149   1471638.62947  20920789.193    20920788.214    20920795.176
       242.000         208.000
  -4717851.00649  -3665481.67647  21140828.742    21140828.311    21140835.243
       243.000         207.000
 00  5 15 15 15 29.9980000  0  7G 5G 2G26G 4G24G 7G 9
  -5400722.88049  -4193806.28845  23827334.807    23827334.036    23827343.870
       208.000         153.000
   1846834.88749   1432144.70947  21790278.075    21790277.023    21790285.334
       235.000         195.000
   4140669.85549   3217138.55545  24227706.611    24227706.000    24227717.325
       215.000         157.000
  -5715713.40549  -4433413.76947  20473278.894    20473278.883    20473286.353
       241.000         205.000
  -7555521.16349  -5866936.68346  22507314.614    22507314.426    22507326.279
       221.000         172.000
   1931809.20949   1501055.43247  20927973.122    20927972.147    20927979.115
       242.000         208.000
  -4771857.67549  -3707564.78847  21130551.663    21130551.209    21130558.117
       243.000         207.000
 00  5 15 15 15 59.9980000  0  7G 5G 2G26G 4G24G 7G 9
  -5497435.84349  -4269166.93545  23808930.808    23808930.081    23808939.950
       216.000         153.000
   1884669.13549   1461625.88247  21797477.742    21797476.706    21797485.037
       234.000         195.000
   4207263.95549   3269029.85945  24240379.247    24240378.633    24240389.898
       216.000         157.000
  -5783329.85149  -4486101.87547  20460411.924    20460411.898    20460419.340
       242.000         206.000
  -7669409.99649  -5955681.06946  22485642.088    22485641.978    22485653.820
       223.000         172.000
   1969786.98049   1530648.47447  20935200.089    20935199.107    20935206.089
       242.000         208.000
  -4825318.24349  -3749222.36247  21120378.461    21120377.997    21120384.904
       242.000         207.000
 00  5 15 15 16 29.9980000  0  7G 5G 2G26G 4G24G 7G 9
  -5594078.42549  -4344472.76645  23790540.259    23790539.555    23790549.411
       215.000         156.000
   1922847.03549   1491374.84047  21804742.760    21804741.756    21804750.108
       234.000         194.000
   4273969.31449   3321007.87245  24253073.028    24253072.379    24253083.688
       213.000         157.000
  -5850343.52049  -4538320.28647  20447659.630    20447659.601    20447667.037
       241.000         206.000
  -7783030.44249  -6044216.30946  22464020.662    22464020.578    22464032.443
       222.000         172.000
   2008031.20749   1560449.14447  20942477.761    20942476.776    20942483.771
       242.000         208.000
  -4878189.67049  -3790420.86547  21110317.329    21110316.887    21110323.819
       241.000         207.000
 00  5 15 15 16 59.9980000  0  7G 5G 2G26G 4G24G 7G 9
  -5690666.42049  -4419736.04545  23772160.084    23772159.408    23772169.263
       217.000         157.000
   1961352.18849   1521378.78647  21812070.064    21812069.066    21812077.466
       234.000         194.000
   4340766.46849   3373057.40745  24265784.204    24265783.580    24265794.958
       214.000         157.000
  -5916768.97949  -4590080.34247  20435019.245    20435019.224    20435026.671
       241.000         206.000
  -7896396.38849  -6132553.22446  22442447.712    22442447.644    22442459.479
       223.000         173.000
   2046523.92149   1590443.44847  20949802.730    20949801.733    20949808.736
       243.000         208.000
  -4930486.71949  -3831171.80147  21100365.453    21100365.042    21100372.042
       242.000         207.000
 00  5 15 15 17 29.9980000  0  7G 5G 2G26G 4G24G 7G 9
  -5787227.06149  -4494978.03045  23753785.244    23753784.508    23753794.349
       216.000         157.000
   2000157.29249   1551616.47347  21819454.488    21819453.497    21819461.929
       234.000         195.000
   4407625.08549   3425154.85145  24278507.146    24278506.470    24278517.878
       215.000         160.000
  -5982631.82349  -4641402.00947  20422485.930    20422485.914    20422493.358
       241.000         206.000
  -8009532.60249  -6220711.14146  22420918.539    22420918.447    22420930.209
       226.000         175.000
   2085235.91449   1620608.60547  20957169.382    20957168.404    20957175.414
       242.000         208.000
  -4982235.33349  -3871495.38947  21090517.985    21090517.583    21090524.618
       242.000         207.000
 00  5 15 15 17 59.9980000  0  7G 5G 2G26G 4G24G 7G 9
  -5883732.97449  -4570177.35345  23735420.718    23735420.008    23735429.826
       217.000         158.000
   2039289.05649   1582108.69747  21826901.077    21826900.084    21826908.544
       233.000         195.000
   4474568.66449   3477318.47645  24291246.303    24291245.559    24291257.047
       216.000         160.000
  -6047903.69349  -4692263.17047  20410065.057    20410065.056    20410072.506
       241.000         206.000
  -8122409.80649  -6308667.22746  22399438.637    22399438.552    22399450.235
       226.000         177.000
   2124192.51649   1650964.37747  20964582.605    20964581.615    20964588.662
       242.000         208.000
  -5033407.68949  -3911369.94547  21080780.231    21080779.827    21080786.841
       243.000         207.000
 00  5 15 15 18 29.9980000  0  7G 5G 2G26G 4G24G 7G 9
  -5980188.76149  -4645337.62045  23717065.724    23717065.003    23717074.865
       215.000         157.000
   2078742.55749   1612851.61647  21834408.884    21834407.896    21834416.384
       234.000         195.000
   4541589.33749   3529542.18845  24304000.039    24303999.324    24304010.864
       215.000         159.000
  -6112587.68549  -4742666.25047  20397756.061    20397756.066    20397763.526
       242.000         207.000
  -8235030.61949  -6396423.52146  22378007.514    22378007.431    22378019.046
       226.000         176.000
   2163387.19249   1681505.65147  20972041.086    20972040.130    20972047.184
       241.000         208.000
  -5084007.38549  -3950798.27047  21071151.459    21071151.024    21071158.030
       242.000         207.000
 00  5 15 15 18 59.9980000  0  7G 5G 2G26G 4G24G 7G 9
  -6076585.75149  -4720452.05245  23698721.769    23698721.179    23698731.077
       219.000         159.000
   2118526.14149   1643851.76047  21841979.517    21841978.528    21841987.014
       233.000         194.000
   4608691.94049   3581829.71445  24316769.314    24316768.618    24316780.258
       217.000         161.000
  -6176674.09949  -4792603.68247  20385560.781    20385560.805    20385568.264
       242.000         207.000
  -8347384.38149  -6483971.71746  22356627.198    22356627.131    22356638.652
       227.000         177.000
   2202826.07649   1712237.22447  20979546.051    20979545.115    20979552.182
       242.000         208.000
  -5134025.05749  -3989773.07347  21061633.407    21061632.978    21061639.986
       242.000         208.000
 00  5 15 15 19 29.9980000  0  7G 5G 2G26G 4G24G 7G 9
  -6172821.00549  -4795440.49145  23680408.723    23680408.140    23680418.049
       217.000         159.000
   2158742.45949   1675189.08047  21849632.431    21849631.484    21849640.007
       233.000         194.000
   4675975.93849   3634258.59545  24329573.072    24329572.478    24329584.231
       218.000         161.000
  -6240058.88849  -4841994.38947  20373499.035    20373499.068    20373506.508
       242.000         206.000
  -8459366.15649  -6571230.06546  22335317.660    22335317.600    22335329.062
       226.000         176.000
   2242610.25149   1743237.85447  20987116.716    20987115.817    20987122.889
       241.000         208.000
  -5183356.88549  -4028213.45447  21052245.847    21052245.446    21052252.449
       243.000         208.000
 00  5 15 15 19 59.9980000  0  7G 5G 2G26G 4G24G 7G 9
  -6268907.46149  -4870312.97945  23662123.887    23662123.423    23662133.334
       216.000         158.000
   2199377.66349   1706852.80647  21857365.102    21857364.155    21857372.698
       233.000         194.000
   4743424.56449   3686815.75445  24342408.291    24342407.690    24342419.488
       217.000         161.000
  -6302754.10249  -4890847.77147  20361568.472    20361568.519    20361575.968
       241.000         207.000
  -8570986.88649  -6658207.07346  22314076.826    22314076.775    22314088.157
       227.000         177.000
   2282724.28649   1774495.50947  20994750.208    20994749.293    20994756.364
       241.000         208.000
  -5232015.55749  -4066129.30347  21042986.392    21042986.010    21042993.013
       243.000         208.000
 00  5 15 15 20 29.9980000  0  7G 5G 2G26G 4G24G 7G 9
  -6365041.05949  -4945222.18345  23643830.153    23643829.703    23643839.617
       215.000         157.000
   2240235.39449   1738689.92547  21865140.182    21865139.200    21865147.751
       234.000         194.000
   4810838.50249   3739345.85545  24355236.922    24355236.342    24355248.100
       218.000         160.000
  -6364954.35249  -4939315.45847  20349732.149    20349732.193    20349739.634
       242.000         207.000
  -8682440.65549  -6745053.98646  22292867.767    22292867.714    22292879.033
       227.000         176.000
   2322970.26849   1805855.98947  21002408.804    21002407.887    21002414.939
       241.000         208.000
  -5280195.86249  -4103672.39247  21033817.991    21033817.592    21033824.621
       242.000         208.000
 00  5 15 15 20 59.9980000  0  7G 5G 2G26G 4G24G 7G 9
  -6461130.77449  -5020097.20045  23625544.745    23625544.329    23625554.279
       213.000         156.000
   2281406.02549   1770770.86447  21872974.828    21872973.811    21872982.331
       234.000         195.000
   4878304.89049   3791916.84145  24368075.499    24368074.883    24368086.658
       217.000         160.000
  -6426567.78049  -4987325.89147  20338007.529    20338007.534    20338014.958
       242.000         207.000
  -8793634.47549  -6831698.35546  22271708.143    22271708.102    22271719.387
       226.000         179.000
   2363436.80149   1837388.32047  21010109.343    21010108.429    21010115.508
       241.000         208.000
  -5327806.35649  -4140771.47547  21024757.998    21024757.620    21024764.655
       243.000         208.000
 00  5 15 15 21 29.9980000  0  7G 5G 2G26G 4G24G 7G 9
  -6557176.88349  -5094938.24245  23607267.667    23607267.216    23607277.208
       211.000         157.000
   2322888.74249   1803094.98447  21880868.829    21880867.782    21880876.301
       234.000         194.000
   4945819.92149   3844525.72145  24380923.271    24380922.668    24380934.501
       218.000         161.000
  -6487593.54949  -5034878.41047  20326394.702    20326394.707    20326402.108
       241.000         206.000
  -8904566.74349  -6918138.90946  22250598.297    22250598.270    22250609.519
       228.000         178.000
   2404121.50749   1869090.65647  21017851.414    21017850.493    21017857.568
       241.000         207.000
  -5374847.17449  -4177426.65447  21015806.440    21015806.056    21015813.080
       242.000         208.000
 00  5 15 15 21 59.9980000  0  7G 5G 2G26G 4G24G 7G 9
  -6653134.87849  -5169710.62445  23589007.446    23589006.967    23589016.960
       215.000         158.000
   2364727.67949   1835696.66847  21888830.605    21888829.540    21888838.067
       234.000         193.000
   5013424.58949   3897204.44945  24393788.265    24393787.603    24393799.454
       220.000         161.000
  -6547985.98149  -5081937.42447  20314902.413    20314902.401    20314909.774
       241.000         206.000
  -9015190.81149  -7004339.30946  22229547.143    22229547.113    22229558.312
       229.000         179.000
   2445066.86049   1900996.08747  21025643.096    21025642.161    21025649.244
       241.000         207.000
  -5421272.61849  -4213602.33047  21006971.978    21006971.589    21006978.620
       243.000         208.000
 00  5 15 15 22 29.9980000  0  7G 5G 2G26G 4G24G 7G 9
  -6749302.29549  -5244646.20145  23570707.300    23570706.838    23570716.826
       219.000         159.000
   2406624.86749   1868343.74947  21896803.445    21896802.376    21896810.930
       233.000         193.000
   5080817.78749   3949718.39345  24406613.065    24406612.302    24406624.171
       219.000         162.000
  -6608041.62049  -5128733.98547  20303474.166    20303474.174    20303481.558
       241.000         206.000
  -9125802.36149  -7090529.95646  22208498.344    22208498.329    22208509.454
       229.000         179.000
   2485973.27049   1932871.18547  21033427.360    21033426.427    21033433.509
       241.000         207.000
  -5467379.39849  -4249529.68347  20998198.129    20998197.733    20998204.797
       243.000         208.000
 00  5 15 15 22 59.9980000  0  7G 5G 2G26G 4G24G 7G 9
  -6845382.36449  -5319513.70145  23552423.854    23552423.360    23552433.360
       214.000         159.000
   2448876.52249   1901267.03547  21904843.704    21904842.666    21904851.244
       233.000         193.000
   5148292.64949   4002295.96045  24419453.276    24419452.534    24419464.462
       218.000         161.000
  -6667462.86549  -5175036.22347  20292166.630    20292166.660    20292174.048
       241.000         206.000
  -9236102.69249  -7176478.10846  22187508.780    22187508.757    22187519.818
       230.000         180.000
   2527135.18849   1964945.37647  21041260.228    21041259.303    21041266.393
       240.000         207.000
  -5512870.25249  -4284977.09447  20989541.508    20989541.117    20989548.170
       243.000         209.000
 00  5 15 15 23 29.9980000  0  7G 5G 2G26G 4G24G 7G 9
  -6941369.53549  -5394308.80245  23534158.069    23534157.555    23534167.540
       216.000         159.000
   2491487.77949   1934470.53947  21912952.407    21912951.363    21912959.956
       233.000         193.000
   5215851.18849   4054938.74445  24432309.316    24432308.626    24432320.673
       218.000         160.000
  -6726243.09249  -5220838.96247  20280981.094    20280981.135    20280988.524
       241.000         206.000
  -9346084.25049  -7262177.86146  22166579.864    22166579.844    22166590.851
       229.000         179.000
   2568556.04849   1997221.34447  21049142.348    21049141.442    21049148.544
       240.000         206.000
  -5557739.28049  -4319939.96047  20981003.192    20981002.813    20981009.878
       243.000         208.000
 00  5 15 15 23 59.9980000  0  7G 5G 2G26G 4G24G 7G 9
  -7037004.90749  -5468829.77645  23515959.231    23515958.691    23515968.659
       217.000         158.000
   2534716.85949   1968155.44147  21921178.693    21921177.671    21921186.254
       233.000         193.000
   5283748.92649   4107845.83645  24445229.937    24445229.295    24445241.414
       218.000         161.000
  -6784122.53249  -5265939.80247  20269966.995    20269967.019    20269974.399
       241.000         206.000
  -9455485.93849  -7347425.79146  22145761.313    22145761.294    22145772.246
       228.000         179.000
   2610492.77949   2029899.27047  21057122.683    21057121.767    21057128.874
       240.000         206.000
  -5601726.90449  -4354216.03047  20972632.633    20972632.245    20972639.312
       244.000         208.000
 00  5 15 15 24 29.9980000  0  7G 5G 2G26G 4G24G 7G 9
  -7132567.57649  -5543294.10645  23497774.245    23497773.653    23497783.622
       219.000         160.000
   2578283.71649   2002103.56547  21929469.289    21929468.242    21929476.843
       233.000         194.000
   5351702.61449   4160796.51445  24458161.300    24458160.595    24458172.717
       220.000         162.000
  -6841379.66449  -5310555.71547  20259071.304    20259071.336    20259078.712
       241.000         206.000
  -9564585.70949  -7432438.44346  22125000.202    22125000.150    22125011.104
       228.000         180.000
   2652663.83549   2062759.79847  21065147.599    21065146.673    21065153.791
       240.000         206.000
  -5645111.83949  -4388022.46347  20964376.779    20964376.387    20964383.420
       244.000         209.000
 00  5 15 15 24 59.9980000  0  7G 5G 2G26G 4G24G 7G 9
  -7228029.04049  -5617679.58945  23479608.500    23479607.913    23479617.829
       218.000         161.000
   2622216.26549   2036336.63447  21937829.401    21937828.382    21937837.024
       232.000         193.000
   5419737.19449   4213810.23645  24471108.032    24471107.312    24471119.484
       218.000         161.000
  -6897985.15149  -5354663.86047  20248299.621    20248299.652    20248307.003
       241.000         206.000
  -9673352.87049  -7517191.93046  22104302.347    22104302.344    22104313.250
       229.000         181.000
   2695095.39449   2095823.31447  21073222.072    21073221.155    21073228.280
       240.000         206.000
  -5687865.21049  -4421336.77047  20956241.092    20956240.689    20956247.729
       244.000         209.000
 00  5 15 15 25 29.9980000  0  7G 5G 2G26G 4G24G 7G 9
  -7323398.35749  -5691993.26945  23461460.226    23461459.697    23461469.531
       219.000         160.000
   2666504.77949   2070847.08047  21946257.226    21946256.257    21946264.921
       231.000         193.000
   5487840.11049   4266877.19146  24484067.736    24484067.024    24484079.226
       219.000         163.000
  -6953947.20249  -5398270.62747  20237650.369    20237650.401    20237657.727
       240.000         206.000
  -9781794.64149  -7601691.88046  22083666.413    22083666.431    22083677.299
       228.000         181.000
   2737776.30449   2129081.12947  21081343.989    21081343.088    21081350.225
       240.000         206.000
  -5729995.92649  -4454165.89547  20948223.865    20948223.484    20948230.523
       243.000         209.000
 00  5 15 15 25 59.9980000  0  7G 5G 2G26G 4G24G 7G 9
  -7418679.33749  -5766238.12145  23443328.777    23443328.286    23443338.052
       219.000         159.000
   2711144.89849   2105631.50347  21954751.954    21954751.023    21954759.738
       232.000         192.000
   5556003.75549   4319991.46945  24497038.997    24497038.327    24497050.576
       216.000         159.000
  -7009269.11249  -5441378.57447  20227122.898    20227122.974    20227130.271
       240.000         206.000
  -9889913.08149  -7685939.88046  22063091.951    22063092.017    22063102.917
       228.000         180.000
   2780700.68049   2162528.65947  21089512.215    21089511.338    21089518.502
       239.000         206.000
  -5771507.26049  -4486512.38147  20940324.500    20940324.134    20940331.188
       243.000         209.000
 00  5 15 15 26 29.9980000  0  7G 5G 2G26G 4G24G 7G 9
  -7513875.69149  -5840417.01645  23425213.425    23425212.966    23425222.689
       219.000         161.000
   2756132.36449   2140686.58647  21963312.824    21963311.896    21963320.650
       232.000         192.000
   5624220.92849   4373147.44645  24510020.375    24510019.768    24510032.097
       218.000         160.000
  -7063953.35349  -5483989.64047  20216716.807    20216716.881    20216724.176
       241.000         206.000
  -9997709.87949  -7769937.26546  22042578.712    22042578.801    22042589.693
       227.000         180.000
   2823862.53649   2196161.23047  21097725.645    21097724.776    21097731.972
       239.000         206.000
  -5812402.37849  -4518378.70647  20932542.411    20932542.050    20932549.107
       243.000         209.000
 00  5 15 15 26 59.9980000  0  7G 5G 2G26G 4G24G 7G 9
  -7609009.87549  -5914547.49345  23407110.003    23407109.511    23407119.155
       219.000         162.000
   2801443.86749   2175994.16347  21971935.359    21971934.435    21971943.218
       231.000         192.000
   5692465.52449   4426324.68645  24523007.064    24523006.439    24523018.840
       217.000         155.000
  -7118021.98849  -5526121.01747  20206427.898    20206427.958    20206435.214
       241.000         207.000
 -10105205.78649  -7853700.18446  22022122.777    22022122.886    22022133.765
       228.000         180.000
   2867237.33449   2229959.72747  21105979.609    21105978.749    21105985.958
       240.000         206.000
  -5852703.34749  -4549782.06047  20924873.390    20924873.043    20924880.093
       243.000         208.000
 00  5 15 15 27 29.9980000  0  7G 5G 2G26G 4G24G 7G 9
  -7704062.08349  -5988614.07745  23389022.187    23389021.623    23389031.226
       220.000         162.000
   2847098.42149   2211569.04947  21980623.193    21980622.265    21980631.089
       231.000         191.000
   5760754.08349   4479536.38345  24536002.212    24536001.522    24536014.005
       218.000         162.000
  -7171454.48849  -5567756.70547  20196260.063    20196260.097    20196267.313
       241.000         206.000
 -10212379.01849  -7937211.67746  22001728.316    22001728.383    22001739.248
       229.000         183.000
   2910842.74849   2263937.92647  21114277.486    21114276.616    21114283.834
       240.000         206.000
  -5892390.11649  -4580706.81847  20917321.245    20917320.882    20917327.937
       243.000         208.000
 00  5 15 15 27 59.9980000  0  7G 5G 2G26G 4G24G 7G 9
  -7799011.00249  -6062600.20245  23370954.014    23370953.407    23370962.976
       217.000         162.000
   2893116.56749   2247427.23047  21989380.180    21989379.267    21989388.128
       231.000         191.000
   5829103.58749   4532795.46845  24549008.869    24549008.162    24549020.775
       216.000         160.000
  -7224228.93449  -5608879.62947  20186217.387    20186217.417    20186224.650
       240.000         206.000
 -10319206.84149  -8020454.02546  21981399.586    21981399.615    21981410.449
       230.000         184.000
   2954697.65449   2298110.52747  21122622.816    21122621.950    21122629.191
       240.000         206.000
  -5931441.43249  -4611136.42347  20909890.007    20909889.657    20909896.726
       243.000         208.000
 00  5 15 15 28 29.9980000  0  7G 5G 2G26G 4G24G 7G 9
  -7893886.74949  -6136529.31945  23352899.675    23352899.111    23352908.665
       218.000         161.000
   2939467.84949   2283544.98447  21998200.604    21998199.671    21998208.577
       231.000         191.000
   5897480.59949   4586075.93645  24562020.776    24562020.075    24562032.719
       218.000         159.000
  -7276374.87149  -5649512.81347  20176294.290    20176294.348    20176301.590
       240.000         206.000
 -10425717.21249  -8103449.02446  21961131.278    21961131.284    21961142.064
       229.000         184.000
   2998769.98949   2332452.54547  21131009.526    21131008.665    21131015.914
       239.000         206.000
  -5969886.90249  -4641093.95547  20902574.022    20902573.702    20902580.799
       242.000         208.000
 00  5 15 15 28 59.9980000  0  7G 5G 2G26G 4G24G 7G 9
  -7988679.24049  -6210393.55146  23334861.183    23334860.669    23334870.189
       218.000         163.000
   2986161.28449   2319929.36647  22007086.156    22007085.214    22007094.141
       231.000         191.000
   5965891.58949   4639382.90045  24575039.167    24575038.447    24575051.168
       216.000         158.000
  -7327881.57949  -5689647.89147  20166492.855    20166492.919    20166500.157
       240.000         206.000
 -10531898.33649  -8186187.44946  21940925.600    21940925.582    21940936.335
       228.000         182.000
   3043067.47949   2366970.01847  21139439.079    21139438.216    21139445.490
       240.000         206.000
  -6007716.12949  -4670571.28147  20895375.330    20895375.014    20895382.138
       242.000         208.000
 00  5 15 15 29 29.9980000  0  7G 5G 2G26G 4G24G 7G 9
  -8083384.53349  -6284189.82346  23316839.358    23316838.812    23316848.326
       219.000         164.000
   3033200.08349   2356582.86647  22016037.443    22016036.490    22016045.428
       231.000         190.000
   6034336.73549   4692716.51745  24588064.071    24588063.358    24588076.175
       215.000         158.000
  -7378744.74249  -5729281.49547  20156813.883    20156813.961    20156821.206
       240.000         207.000
 -10637744.75549  -8268665.06646  21920783.572    21920783.583    21920794.306
       228.000         182.000
   3087591.79349   2401664.24847  21147911.820    21147910.947    21147918.228
       240.000         206.000
  -6044925.02349  -4699565.22447  20888294.669    20888294.378    20888301.495
       242.000         208.000
 00  5 15 15 29 59.9980000  0  7G 5G 2G26G 4G24G 7G 9
  -8178000.65049  -6357916.61346  23298834.429    23298833.900    23298843.427
       220.000         164.000
   3080585.63349   2393506.55747  22025054.749    22025053.743    22025062.702
       231.000         190.000
   6102814.42449   4746075.43645  24601095.051    24601094.391    24601107.346
       214.000         157.000
  -7428961.83049  -5768411.67047  20147257.858    20147257.944    20147265.183
       240.000         207.000
 -10743252.54749  -8350878.82346  21900706.034    21900706.029    21900716.711
       230.000         183.000
   3132342.80249   2436535.11847  21156427.713    21156426.829    21156434.119
       240.000         206.000
  -6081511.25849  -4728073.98647  20881332.510    20881332.239    20881339.378
       242.000         208.000
 00  5 15 15 30 29.9980000  0  7G 5G 2G26G 4G24G 7G 9
  -8272527.07549  -6431573.51846  23280846.637    23280846.083    23280855.572
       219.000         163.000
   3128317.51249   2430700.11747  22034137.989    22034136.927    22034145.873
       231.000         190.000
   6171321.43349   4799457.23845  24614131.742    24614131.057    24614144.083
       214.000         156.000
  -7478531.79349  -5807037.59247  20137825.038    20137825.093    20137832.326
       241.000         207.000
 -10848419.52449  -8432827.00646  21880693.388    21880693.358    21880703.993
       230.000         184.000
   3177318.68749   2471581.21847  21164986.434    21164985.508    21164992.796
       240.000         206.000
  -6117474.44549  -4756097.25447  20874488.996    20874488.677    20874495.805
       242.000         208.000
 00  5 15 15 30 59.9980000  0  7G 5G 2G26G 4G24G 7G 9
  -8366963.02749  -6505159.91546  23262876.026    23262875.480    23262884.968
       220.000         164.000
   3176395.57849   2468163.42847  22043287.084    22043285.983    22043294.929
       231.000         191.000
   6239854.93149   4852859.67345  24627173.451    24627172.720    24627185.884
       215.000         155.000
  -7527453.44949  -5845158.33747  20128515.584    20128515.602    20128522.831
       241.000         207.000
 -10953243.24249  -8514507.71946  21860746.090    21860746.000    21860756.605
       230.000         186.000
   3222518.15149   2506801.53547  21173587.696    21173586.731    21173594.020
       240.000         206.000
  -6152813.62749  -4783634.28247  20867764.214    20867763.869    20867770.990
       242.000         208.000
 00  5 15 15 31 29.9980000  0  7G 5G 2G26G 4G24G 7G 9
  -8461312.64349  -6578679.04146  23244921.905    23244921.358    23244930.762
       220.000         164.000
   3224814.84649   2505892.61047  22052501.114    22052499.975    22052508.933
       231.000         190.000
   6308407.17849   4906276.72645  24640218.711    24640217.980    24640231.202
       214.000         154.000
  -7575730.65249  -5882776.91847  20119328.752    20119328.750    20119335.971
       241.000         207.000
 -11057726.21749  -8595922.91846  21840863.602    21840863.483    21840874.057
       230.000         187.000
   3267934.88149   2542191.14647  21182230.269    21182229.298    21182236.592
       239.000         205.000
  -6187532.82149  -4810688.20247  20861157.398    20861157.038    20861164.146
       242.000         208.000
 00  5 15 15 31 59.9980000  0  7G 5G 2G26G 4G24G 7G 9
  -8555574.59649  -6652129.86246  23226984.466    23226983.892    23226993.242
       219.000         165.000
   3273576.02149   2543888.21447  22061780.149    22061779.006    22061788.008
       231.000         189.000
   6376975.87049   4959706.56345  24653267.121    24653266.328    24653279.686
       213.000         153.000
  -7623361.48149  -5919891.82547  20110264.889    20110264.907    20110272.102
       241.000         207.000
 -11161865.12749  -8677070.00946  21821046.532    21821046.429    21821056.969
       231.000         187.000
   3313568.07949   2577749.44147  21190913.967    21190913.046    21190920.356
       240.000         206.000
  -6221630.84149  -4837258.09447  20854668.777    20854668.406    20854675.512
       243.000         208.000
 00  5 15 15 32 29.9980000  0  7G 5G 2G26G 4G24G 7G 9
  -8649761.00349  -6725521.79446  23209061.309    23209060.758    23209070.116
       219.000         163.000
   3322665.84049   2582139.90547  22071121.616    22071120.539    22071129.602
       230.000         189.000
   6445545.16049   5013136.88345  24666315.583    24666314.839    24666328.256
       212.000         152.000
  -7670357.67849  -5956512.21547  20101321.744    20101321.801    20101328.990
       240.000         207.000
 -11265670.53449  -8757957.22846  21801292.923    21801292.837    21801303.349
       231.000         186.000
   3359403.33949   2613465.18347  21199636.145    21199635.229    21199642.557
       239.000         205.000
  -6255119.55349  -4863353.19947  20848296.088    20848295.719    20848302.798
       242.000         208.000
 00  5 15 15 32 59.9980000  0  7G 5G 2G26G 4G24G 7G 9
  -8743853.67349  -6798840.70046  23191156.025    23191155.459    23191164.817
       221.000         163.000
   3372101.58949   2620661.15747  22080528.899    22080527.904    22080537.013
       229.000         188.000
   6514129.54749   5066578.94645  24679366.965    24679366.238    24679379.688
       214.000         152.000
  -7716700.91149  -5992623.80147  20092502.861    20092502.955    20092510.136
       240.000         207.000
 -11369122.67949  -8838569.17646  21781606.539    21781606.458    21781616.937
       231.000         186.000
   3405456.44549   2649350.67747  21208399.739    21208398.865    21208406.217
       240.000         205.000
  -6287980.93449  -4888959.46947  20842042.782    20842042.428    20842049.472
       243.000         208.000
 00  5 15 15 33 29.9980000  0  7G 5G 2G26G 4G24G 7G 9
  -8837868.97449  -6872099.31246  23173265.406    23173264.901    23173274.239
       218.000         164.000
   3421865.99849   2659438.49947  22089998.811    22089997.825    22090006.976
       229.000         189.000
   6582708.88149   5120017.06745  24692417.453    24692416.722    24692430.188
       214.000         152.000
  -7762407.52149  -6028239.31947  20083805.146    20083805.256    20083812.440
       240.000         207.000
 -11472236.29949  -8918917.33646  21761984.580    21761984.503    21761994.945
       232.000         186.000
   3451708.94749   2685391.53947  21217201.337    21217200.449    21217207.826
       240.000         206.000
  -6320231.32149  -4914089.64347  20835905.751    20835905.396    20835912.426
       242.000         208.000
 00  5 15 15 33 59.9980000  0  7G 5G 2G26G 4G24G 7G 9
  -8931802.05649  -6945293.85946  23155390.434    23155389.972    23155399.338
       218.000         163.000
   3471962.88549   2698474.91347  22099532.016    22099531.026    22099540.216
       230.000         188.000
   6651284.51949   5173452.30645  24705467.193    24705466.497    24705479.985
       212.000         149.000
  -7807472.11249  -6063354.56147  20075229.614    20075229.729    20075236.920
       240.000         206.000
 -11575004.94649  -8998996.68746  21742428.297    21742428.212    21742438.583
       232.000         187.000
   3498163.42949   2721589.79347  21226041.367    21226040.488    21226047.868
       240.000         205.000
  -6351865.94649  -4938739.99947  20829885.863    20829885.524    20829892.577
       243.000         209.000
 00  5 15 15 34 29.9980000  0  7G 5G 2G26G 4G24G 7G 9
  -9025651.77349  -7018423.43245  23137531.253    23137530.872    23137540.277
       217.000         162.000
   3522392.56949   2737770.64747  22109128.517    22109127.556    22109136.799
       228.000         188.000
   6719853.78849   5226882.59045  24718515.762    24718515.014    24718528.566
       211.000         149.000
  -7851893.38049  -6097968.51347  20066776.500    20066776.611    20066783.802
       240.000         206.000
 -11677425.92249  -9078805.13547  21722938.182    21722938.083    21722948.384
       233.000         188.000
   3544818.72749   2757944.52147  21234919.620    21234918.733    21234926.131
       239.000         205.000
  -6382883.74049  -4962909.70947  20823983.360    20823983.032    20823990.083
       243.000         209.000
 00  5 15 15 34 59.9980000  0  7G 5G 2G26G 4G24G 7G 9
  -9119405.16249  -7091477.95446  23119690.477    23119690.089    23119699.518
       220.000         164.000
   3573167.11149   2777335.09546  22118790.610    22118789.681    22118799.009
       227.000         187.000
   6788426.04549   5280315.21845  24731564.799    24731564.069    24731577.742
       211.000         148.000
  -7895658.35449  -6132071.07447  20058448.305    20058448.400    20058455.563
       240.000         206.000
 -11779484.53049  -9158331.22447  21703516.982    21703516.906    21703527.144
       233.000         189.000
   3591685.70949   2794464.19647  21243838.130    21243837.259    21243844.667
       240.000         206.000
  -6413272.09049  -4986588.94647  20818200.669    20818200.345    20818207.386
       243.000         209.000
 00  5 15 15 35 29.9980000  0  7G 5G 2G26G 4G24G 7G 9
  -9213069.86649  -7164463.36746  23101866.721    23101866.249    23101875.664
       221.000         167.000
   3624278.08049   2817161.70846  22128516.771    22128515.852    22128525.217
       228.000         186.000
   6856989.92149   5333741.29545  24744612.203    24744611.499    24744625.331
       213.000         148.000
  -7938774.35949  -6165667.94047  20050243.610    20050243.708    20050250.826
       240.000         206.000
 -11881186.86749  -9237579.68647  21684163.577    21684163.511    21684173.715
       232.000         188.000
   3638754.45449   2831141.08947  21252795.082    21252794.193    21252801.602
       239.000         206.000
  -6443038.47749  -5009783.53847  20812536.310    20812535.981    20812543.046
       243.000         209.000
 00  5 15 15 35 59.9980000  0  7G 5G 2G26G 4G24G 7G 9
  -9306675.76249  -7237402.96046  23084054.073    23084053.603    23084062.985
       221.000         166.000
   3675694.48349   2857226.31446  22138301.048    22138300.123    22138309.543
       228.000         187.000
   6925511.87249   5387134.72145  24757651.771    24757651.043    24757664.894
       212.000         148.000
  -7981271.26349  -6198782.38647  20042156.718    20042156.792    20042163.920
       240.000         207.000
 -11982561.36349  -9316572.68447  21664872.537    21664872.483    21664882.684
       232.000         189.000
   3685992.90449   2867950.22347  21261784.283    21261783.410    21261790.828
       239.000         206.000
  -6472213.10349  -5032517.01547  20806984.578    20806984.241    20806991.308
       243.000         209.000
 00  5 15 15 36 29.9980000  0  7G 5G 2G26G 4G24G 7G 9
  -9400174.96649  -7310259.42146  23066261.747    23066261.266    23066270.610
       220.000         166.000
   3727463.25249   2897565.48547  22148152.415    22148151.468    22148160.919
       228.000         188.000
   6994036.27449   5440530.03445  24770691.759    24770691.053    24770704.970
       210.000         146.000
  -8023100.89249  -6231376.88347  20034196.762    20034196.852    20034203.992
       240.000         206.000
 -12083558.41949  -9395271.58047  21645653.280    21645653.277    21645663.485
       232.000         188.000
   3733446.72749   2904927.17347  21270814.475    21270813.602    21270821.037
       240.000         206.000
  -6500748.17649  -5054752.14447  20801554.522    20801554.193    20801561.257
       242.000         209.000
 00  5 15 15 36 59.9980000  0  7G 5G 2G26G 4G24G 7G 9
  -9493583.56549  -7383045.27446  23048486.608    23048486.141    23048495.478
       221.000         166.000
   3779567.09949   2938165.75846  22158067.520    22158066.599    22158076.062
       228.000         187.000
   7062543.10349   5493911.65745  24783728.431    24783727.677    24783741.660
       210.000         145.000
  -8064279.71249  -6263464.25947  20026360.653    20026360.756    20026367.909
       240.000         206.000
 -12184192.80249  -9473687.88747  21626503.073    21626503.089    21626513.261
       234.000         188.000
   3781097.47849   2942057.57947  21279882.145    21279881.277    21279888.727
       239.000         206.000
  -6528660.21649  -5076501.79547  20796243.022    20796242.704    20796249.783
       243.000         209.000
 00  5 15 15 37 29.9980000  0  7G 5G 2G26G 4G24G 7G 9
  -9586915.38049  -7455771.30246  23030726.117    23030725.644    23030734.964
       223.000         167.000
   3831991.16249   2979015.55546  22168043.614    22168042.661    22168052.157
       228.000         187.000
   7131014.92649   5547266.00445  24796758.395    24796757.636    24796771.733
       210.000         145.000
  -8104821.50249  -6295055.24547  20018645.829    20018645.909    20018653.043
       241.000         206.000
 -12284476.72049  -9551831.09847  21607419.610    21607419.625    21607429.739
       234.000         189.000
   3828929.07249   2979328.89947  21288984.261    21288983.372    21288990.839
       240.000         206.000
  -6555963.23449  -5097776.88547  20791047.470    20791047.131    20791054.206
       243.000         209.000
 00  5 15 15 37 59.9980000  0  7G 5G 2G26G 4G24G 7G 9
  -9680186.66049  -7528450.15946  23012977.172    23012976.654    23012985.954
       223.000         167.000
   3884718.17349   3020101.40646  22178077.310    22178076.377    22178085.891
       229.000         187.000
   7199432.03449   5600577.67345  24809778.038    24809777.273    24809791.393
       210.000         144.000
  -8144742.18249  -6326162.25647  20011049.182    20011049.256    20011056.371
       240.000         206.000
 -12384424.56049  -9629712.44147  21588400.135    21588400.105    21588410.182
       233.000         189.000
   3876923.32449   3016726.95947  21298117.328    21298116.424    21298123.911
       240.000         206.000
  -6582673.55649  -5118590.14447  20785964.710    20785964.346    20785971.406
       243.000         209.000
 00  5 15 15 38 29.9980000  0  7G 5G 2G26G 4G24G 7G 9
  -9773385.51849  -7601072.57746  22995241.966    22995241.494    22995250.711
       222.000         168.000
   3937758.87849   3061431.70946  22188170.767    22188169.784    22188179.300
       230.000         187.000
   7267802.29749   5653852.86545  24822788.719    24822787.950    24822802.089
       208.000         143.000
  -8184029.99949  -6356776.11847  20003572.950    20003573.013    20003580.134
       240.000         206.000
 -12484023.25549  -9707321.70647  21569447.077    21569447.027    21569457.091
       233.000         189.000
   3925089.73249   3054259.17247  21307283.178    21307282.249    21307289.744
       240.000         206.000
  -6608779.84349  -5138932.71747  20780996.891    20780996.507    20781003.549
       243.000         209.000
 00  5 15 15 38 59.9980000  0  7G 5G 2G26G 4G24G 7G 9
  -9866502.75949  -7673631.41046  22977522.333    22977521.855    22977531.038
       221.000         168.000
   3991121.45449   3103012.81846  22198325.484    22198324.463    22198333.957
       229.000         187.000
   7336131.41149   5707095.97145  24835791.490    24835790.810    24835805.026
       209.000         141.000
  -8222676.12249  -6386889.96847  19996218.812    19996218.885    19996226.002
       240.000         206.000
 -12583262.29049  -9784650.72047  21550562.430    21550562.377    21550572.446
       233.000         190.000
   3973435.21749   3091930.92047  21316483.075    21316482.134    21316489.654
       240.000         206.000
  -6634273.23049  -5158797.71247  20776145.702    20776145.301    20776152.329
       243.000         210.000
 00  5 15 15 39 29.9980000  0  7G 5G 2G26G 4G24G 7G 9
  -9959534.69949  -7746123.76446  22959818.883    22959818.402    22959827.555
       223.000         168.000
   4044808.58049   3144846.82546  22208541.902    22208540.885    22208550.368
       229.000         186.000
   7404419.26549   5760306.97845  24848786.445    24848785.742    24848800.047
       208.000         142.000
  -8260676.85249  -6416500.91247  19988987.478    19988987.585    19988994.684
       241.000         207.000
 -12682136.36349  -9861695.34947  21531747.230    21531747.179    21531757.254
       234.000         190.000
   4021961.09749   3129743.23647  21325717.278    21325716.348    21325723.884
       239.000         205.000
  -6659150.63149  -5178182.71847  20771411.673    20771411.300    20771418.336
       243.000         209.000
 00  5 15 15 39 59.9980000  0  7G 5G 2G26G 4G24G 7G 9
 -10052468.19549  -7818539.41846  22942134.093    22942133.679    22942142.835
       221.000         167.000
   4098832.17849   3186943.00546  22218822.325    22218821.321    22218830.835
       229.000         186.000
   7472675.38549   5813493.18345  24861775.563    24861774.782    24861789.088
       207.000         138.000
  -8298019.29349  -6445598.90647  19981881.423    19981881.558    19981888.630
       241.000         207.000
 -12780630.87149  -9938444.22647  21513004.269    21513004.219    21513014.274
       235.000         190.000
   4070678.38849   3167704.70647  21334987.884    21334986.983    21334994.526
       240.000         205.000
  -6683399.18949  -5197077.71347  20766797.274    20766796.943    20766803.989
       244.000         210.000
 00  5 15 15 40 29.9980000  0  7G 5G 2G26G 4G24G 7G 9
 -10145306.91049  -7890881.20646  22924467.370    22924467.013    22924476.151
       221.000         168.000
   4153187.37649   3229297.59246  22229165.838    22229164.843    22229174.418
       228.000         185.000
   7540892.47149   5866649.00145  24874757.242    24874756.327    24874770.596
       205.000         141.000
  -8334707.18749  -6474186.85847  19974899.908    19974900.054    19974907.135
       240.000         207.000
 -12878748.06849 -10014899.09847  21494333.114    21494333.075    21494343.072
       234.000         190.000
   4119581.29249   3205810.81447  21344293.789    21344292.928    21344300.486
       238.000         205.000
  -6707023.02949  -5215485.90747  20762301.791    20762301.476    20762308.531
       243.000         210.000
 00  5 15 15 40 59.9980000  0  7G 5G 2G26G 4G24G 7G 9
 -10238061.92649  -7963157.78446  22906816.601    22906816.237    22906825.396
       221.000         168.000
   4207861.97349   3271901.06046  22239570.121    22239569.156    22239578.762
       227.000         185.000
   7609055.63249   5919762.80645  24887728.470    24887727.596    24887741.922
       202.000         132.000
  -8370751.99549  -6502273.71047  19968040.788    19968040.931    19968048.014
       240.000         207.000
 -12976497.57449 -10091067.45347  21475731.912    21475731.883    21475741.852
       233.000         191.000
   4168656.33249   3244051.04547  21353632.468    21353631.620    21353639.208
       238.000         205.000
  -6730033.72449  -5233416.33347  20757922.991    20757922.688    20757929.737
       243.000         210.000
 00  5 15 15 41 29.9980000  0  7G 5G 2G26G 4G24G 7G 9
 -10330731.53849  -8035367.82546  22889182.086    22889181.718    22889190.886
       222.000         167.000
   4262856.64349   3314753.93546  22250035.354    22250034.385    22250043.999
       228.000         184.000
   7677163.03349   5972833.15045  24900689.068    24900688.340    24900702.705
       201.000         136.000
  -8406152.14449  -6529858.23347  19961304.353    19961304.505    19961311.568
       241.000         207.000
 -13073876.53249 -10166947.07147  21457201.189    21457201.202    21457211.172
       234.000         192.000
   4217903.11549   3282425.10247  21363003.822    21363002.991    21363010.602
       238.000         205.000
  -6752429.99349  -5250867.98647  20753661.104    20753660.834    20753667.886
       243.000         210.000
 00  5 15 15 41 59.9980000  0  7G 5G 2G26G 4G24G 7G 9
 -10423316.60549  -8107511.98346  22871563.620    22871563.274    22871572.483
       221.000         168.000
   4318169.02149   3357854.36646  22260561.054    22260560.077    22260569.706
       229.000         184.000
   7745209.84149   6025856.26345  24913638.103    24913637.356    24913651.943
       201.000         132.000
  -8440909.02049  -6556941.50647  19954690.340    19954690.496    19954697.534
       241.000         207.000
 -13170884.31649 -10242537.46347  21438741.145    21438741.159    21438751.147
       235.000         194.000
   4267318.22749   3320930.32547  21372407.187    21372406.396    21372414.026
       238.000         204.000
  -6774213.36549  -5267842.05747  20749515.911    20749515.615    20749522.667
       244.000         211.000
 00  5 15 15 42 29.9980000  0  7G 5G 2G26G 4G24G 7G 9
 -10515805.03449  -8179580.84946  22853963.589    22853963.272    22853972.436
       221.000         168.000
   4373810.03249   3401210.87646  22271149.280    22271148.310    22271157.956
       227.000         184.000
   7813204.62949   6078838.89444  24926577.267    24926576.536    24926591.317
       197.000         131.000
  -8475010.84549  -6583514.34647  19948200.986    19948201.142    19948208.149
       241.000         207.000
 -13267507.46749 -10317828.14047  21420354.309    21420354.325    21420364.311
       236.000         194.000
   4316911.76349   3359574.58647  21381844.505    21381843.747    21381851.401
       238.000         204.000
  -6795372.61449  -5284329.79147  20745489.453    20745489.163    20745496.199
       244.000         211.000
 00  5 15 15 42 59.9980000  0  7G 5G 2G26G 4G24G 7G 9
 -10608191.45549  -8251570.21546  22836382.993    22836382.654    22836391.827
       222.000         168.000
   4429783.83449   3444826.69446  22281800.801    22281799.867    22281809.548
       227.000         183.000
   7881148.94249   6131782.11645  24939507.020    24939506.270    24939521.078
       203.000         132.000
  -8508452.61649  -6609572.86247  19941837.194    19941837.369    19941844.385
       240.000         207.000
 -13363739.43149 -10392814.00747  21402041.919    21402041.925    21402051.900
       235.000         193.000
   4366686.74149   3398360.22647  21391316.369    21391315.627    21391323.320
       238.000         204.000
  -6815902.99449  -5300327.50147  20741582.660    20741582.380    20741589.408
       244.000         211.000
 00  5 15 15 43 29.9980000  0  7G 5G 2G26G 4G24G 7G 9
 -10700484.86649  -8323487.10446  22818820.080    22818819.773    22818828.952
       222.000         168.000
   4486080.19249   3488693.86146  22292513.679    22292512.779    22292522.513
       225.000         183.000
   7949030.26949   6184676.31744  24952424.627    24952423.971    24952438.699
       201.000         130.000
  -8541243.57949  -6635124.25447  19935597.260    19935597.456    19935604.466
       240.000         207.000
 -13459587.53849 -10467500.76047  21383802.514    21383802.550    21383812.530
       235.000         193.000
   4416632.03049   3437278.57847  21400820.676    21400819.936    21400827.632
       238.000         204.000
  -6835813.74349  -5315842.38147  20737793.790    20737793.532    20737800.545
       244.000         211.000
 00  5 15 15 43 59.9980000  0  7G 5G 2G26G 4G24G 7G 9
 -10792699.84549  -8395342.88146  22801272.105    22801271.805    22801280.943
       222.000         169.000
   4542683.03649   3532799.84546  22303284.919    22303284.016    22303293.833
       227.000         182.000
   8016830.23849   6237507.09644  24965326.826    24965326.141    24965341.194
       201.000         127.000
  -8573398.97449  -6660180.40047  19929478.309    19929478.480    19929485.485
       241.000         207.000
 -13555065.43949 -10541899.03747  21365633.547    21365633.617    21365643.591
       236.000         193.000
   4466730.58849   3476316.36147  21410354.147    21410353.411    21410361.118
       239.000         204.000
  -6855120.35049  -5330886.50347  20734119.862    20734119.605    20734126.630
       245.000         211.000
 00  5 15 15 44 29.9980000  0  7G 5G 2G26G 4G24G 7G 9
 -10884815.59149  -8467121.33246  22783743.050    22783742.729    22783751.825
       223.000         169.000
   4599611.96249   3577159.91946  22314118.207    22314117.318    22314127.208
       227.000         182.000
   8084565.69949   6290287.68644  24978216.656    24978216.006    24978231.017
       202.000         128.000
  -8604898.70449  -6684725.64047  19923484.114    19923484.274    19923491.264
       241.000         207.000
 -13650150.91649 -10615991.53647  21347539.277    21347539.363    21347549.315
       236.000         193.000
   4517000.90649   3515487.98247  21419920.313    21419919.565    21419927.292
       238.000         203.000
  -6873802.85849  -5345444.31647  20730564.716    20730564.464    20730571.491
       245.000         211.000
 00  5 15 15 44 59.9980000  0  6G 5G 2G 4G24G 7G 9
 -10976807.73549  -8538803.46846  22766237.488    22766237.155    22766246.242
       222.000         169.000
   4656890.48449   3621792.40346  22325018.050    22325017.149    22325027.090
       225.000         182.000
  -8635718.31849  -6708740.91747  19917619.322    19917619.484    19917626.480
       240.000         207.000
 -13744818.40849 -10689758.32947  21329524.600    21329524.666    21329534.582
       236.000         194.000
   4567465.47149   3554810.96247  21429523.444    21429522.694    21429530.432
       238.000         203.000
  -6891837.30649  -5359497.14547  20727132.924    20727132.648    20727139.662
       243.000         211.000
 00  5 15 15 45 29.9980000  0  6G 5G 2G 4G24G 7G 9
 -11068705.77249  -8610412.27946  22748749.838    22748749.496    22748758.546
       222.000         171.000
   4714487.50449   3666673.05846  22335978.539    22335977.605    22335987.558
       225.000         181.000
  -8665888.31049  -6732249.99647  19911878.174    19911878.324    19911885.325
       240.000         207.000
 -13839095.75349 -10763221.11147  21311584.194    21311584.211    21311594.113
       236.000         195.000
   4618092.33849   3594260.41047  21439157.492    21439156.716    21439164.451
       238.000         203.000
  -6909254.04849  -5373068.65447  20723818.639    20723818.358    20723825.368
       243.000         210.000
 00  5 15 15 45 59.9980000  0  6G 5G 2G 4G24G 7G 9
 -11160513.68149  -8681950.86446  22731279.383    22731279.024    22731288.025
       226.000         172.000
   4772397.52849   3711797.60746  22346998.556    22346997.615    22347007.589
       226.000         181.000
  -8695413.15349  -6755256.36647  19906259.796    19906259.931    19906266.930
       241.000         207.000
 -13932986.08249 -10836382.32047  21293717.433    21293717.444    21293727.292
       237.000         195.000
   4668875.11149   3633831.33747  21448821.206    21448820.409    21448828.141
       239.000         202.000
  -6926058.09449  -5386162.74047  20720620.938    20720620.666    20720627.678
       245.000         211.000
 00  5 15 15 46 29.9980000  0  6G 5G 2G 4G24G 7G 9
 -11252203.78349  -8753397.64246  22713831.352    22713830.961    22713839.918
       223.000         172.000
   4830647.03649   3757186.69146  22358083.173    22358082.220    22358092.211
       226.000         181.000
  -8724265.85549  -6777738.98647  19900769.306    19900769.443    19900776.433
       241.000         207.000
 -14026460.61449 -10909219.53147  21275929.805    21275929.789    21275939.608
       236.000         196.000
   4719839.28449   3673543.61747  21458519.442    21458518.617    21458526.360
       238.000         203.000
  -6942222.58349  -5398758.46547  20717544.964    20717544.691    20717551.699
       244.000         211.000
 00  5 15 15 46 59.9980000  0  6G 5G 2G 4G24G 7G 9
 -11343789.75349  -8824763.28146  22696403.067    22696402.678    22696411.652
       224.000         172.000
   4889221.02349   3802828.61246  22369229.544    22369228.576    22369238.579
       226.000         181.000
  -8752460.74449  -6799709.02447  19895403.988    19895404.144    19895411.118
       240.000         207.000
 -14119531.66249 -10981742.34047  21258218.910    21258218.886    21258228.699
       236.000         196.000
   4770968.99249   3713384.88547  21468249.136    21468248.322    21468256.078
       237.000         203.000
  -6957761.88649  -5410867.03447  20714587.909    20714587.658    20714594.690
       244.000         210.000
 00  5 15 15 47 29.9980000  0  6G 5G 2G 4G24G 7G 9
 -11435274.69449  -8896050.19546  22678994.039    22678993.619    22679002.596
       224.000         172.000
   4948114.66049   3848719.61446  22380436.733    22380435.782    22380445.775
       226.000         181.000
  -8780001.70749  -6821169.51447  19890163.113    19890163.254    19890170.243
       240.000         207.000
 -14212201.43649 -11053952.47047  21240584.350    21240584.347    21240594.131
       236.000         196.000
   4822258.69249   3753350.82447  21478009.293    21478008.474    21478016.267
       237.000         203.000
  -6972680.27249  -5422491.77247  20711749.028    20711748.786    20711755.814
       244.000         211.000
 00  5 15 15 47 59.9980000  0  6G 5G 2G 4G24G 7G 9
 -11526645.12549  -8967247.89346  22661606.788    22661606.372    22661615.326
       222.000         172.000
   5007340.44249   3894869.42446  22391707.128    22391706.199    22391716.182
       226.000         181.000
  -8806875.95249  -6842110.48747  19885049.114    19885049.260    19885056.260
       239.000         207.000
 -14304455.01649 -11125838.30547  21223028.985    21223029.010    21223038.758
       236.000         196.000
   4873719.74649   3793450.27847  21487802.051    21487801.237    21487809.046
       237.000         202.000
  -6986965.03449  -5433622.78047  20709030.776    20709030.497    20709037.528
       244.000         210.000
 00  5 15 15 48 29.9980000  0  6G 5G 2G 4G24G 7G 9
 -11617876.57849  -9038337.28246  22644245.964    22644245.563    22644254.467
       223.000         172.000
   5066921.23849   3941295.86146  22403045.089    22403044.160    22403054.164
       226.000         181.000
  -8833059.63049  -6862513.35247  19880066.482    19880066.674    19880073.679
       239.000         207.000
 -14396266.57449 -11197379.70347  21205557.754    21205557.790    21205567.508
       236.000         197.000
   4925374.46449   3833700.64347  21497631.675    21497630.863    21497638.678
       237.000         202.000
  -7000592.60849  -5444241.68947  20706437.495    20706437.270    20706444.298
       244.000         211.000
 00  5 15 15 48 59.9980000  0  6G 5G 2G 4G24G 7G 9
 -11708973.46149  -9109321.81746  22626910.750    22626910.346    22626919.241
       226.000         173.000
   5126851.45349   3987994.57046  22414449.549    22414448.618    22414458.622
       226.000         181.000
  -8858558.06849  -6882382.26047  19875214.256    19875214.464    19875221.475
       239.000         206.000
 -14487639.66949 -11268579.44147  21188169.958    21188170.011    21188179.701
       237.000         197.000
   4977216.11949   3874096.66947  21507496.857    21507496.043    21507503.871
       238.000         202.000
  -7013568.42449  -5454352.73747  20703968.313    20703968.081    20703975.075
       245.000         210.000
 00  5 15 15 49 29.9980000  0  6G 5G 2G 4G24G 7G 9
 -11799948.23349  -9180211.20246  22609598.783    22609598.388    22609607.289
       225.000         172.000
   5187116.85449   4034954.46546  22425917.816    22425916.868    22425926.862
       227.000         181.000
  -8883384.64149  -6901727.64247  19870489.911    19870490.107    19870497.134
       240.000         207.000
 -14578585.66049 -11339446.36747  21170863.430    21170863.495    21170873.182
       237.000         197.000
   5029229.80349   3914626.74947  21517394.764    21517393.969    21517401.810
       238.000         202.000
  -7025906.14749  -5463966.56747  20701620.527    20701620.313    20701627.274
       244.000         210.000
 00  5 15 15 49 59.9980000  0  6G 5G 2G 4G24G 7G 9
 -11890824.79149  -9251024.05146  22592305.465    22592305.108    22592313.965
       223.000         172.000
   5247692.21249   4082155.88746  22437445.076    22437444.114    22437454.101
       226.000         181.000
  -8907563.86249  -6920568.59047  19865888.739    19865888.953    19865895.977
       239.000         206.000
 -14669127.42849 -11409998.31547  21153633.843    21153633.919    21153643.589
       237.000         197.000
   5081389.51349   3955270.61547  21527320.465    21527319.679    21527327.519
       237.000         202.000
  -7037630.48449  -5473102.43247  20699389.433    20699389.251    20699396.219
       244.000         210.000
 00  5 15 15 50 29.9980000  0  6G 5G 2G 4G24G 7G 9
 -11981586.04549  -9321747.04746  22575034.111    22575033.772    22575042.607
       225.000         174.000
   5308593.28549   4129611.12146  22449034.284    22449033.318    22449043.308
       226.000         179.000
  -8931079.49249  -6938892.45247  19861413.883    19861414.085    19861421.117
       240.000         206.000
 -14759246.46749 -11480220.87247  21136484.735    21136484.786    21136494.425
       237.000         198.000
   5133710.23949   3996039.94747  21537276.836    21537276.034    21537283.877
       237.000         201.000
  -7048725.40349  -5481747.84147  20697278.185    20697277.979    20697284.942
       245.000         211.000
 00  5 15 15 50 59.9980000  0  6G 5G 2G 4G24G 7G 9
 -12072231.06349  -9392379.48946  22557784.923    22557784.563    22557793.401
       226.000         174.000
   5369819.20449   4177319.45446  22460685.272    22460684.337    22460694.361
       225.000         179.000
  -8953931.99849  -6956699.60047  19857065.205    19857065.417    19857072.409
       240.000         206.000
 -14848941.21049 -11550112.82047  21119416.358    21119416.405    21119426.008
       237.000         197.000
   5186190.34049   4036933.46247  21547263.514    21547262.723    21547270.563
       237.000         201.000
  -7059191.29349  -5489903.10247  20695286.635    20695286.414    20695293.360
       244.000         210.000
 00  5 15 15 51 29.9980000  0  6G 5G 2G 4G24G 7G 9
 -12162784.47349  -9462940.52946  22540553.139    22540552.783    22540561.639
       224.000         173.000
   5431343.65549   4225260.44646  22472393.077    22472392.171    22472402.243
       225.000         177.000
  -8976146.91649  -6974009.92047  19852837.868    19852838.067    19852845.037
       240.000         206.000
 -14938235.26349 -11619692.52947  21102424.202    21102424.254    21102433.831
       236.000         196.000
   5238802.80349   4077930.12847  21557275.413    21557274.598    21557282.440
       237.000         201.000
  -7069054.16549  -5497588.47547  20693409.832    20693409.595    20693416.530
       245.000         211.000
 00  5 15 15 51 59.9980000  0  6G 5G 2G 4G24G 7G 9
 -12253226.67349  -9533414.91846  22523342.482    22523342.145    22523351.008
       225.000         176.000
   5493184.76749   4273448.14946  22484161.132    22484160.237    22484170.364
       223.000         177.000
  -8997705.72449  -6990808.99247  19848735.392    19848735.566    19848742.533
       240.000         206.000
 -15027107.95749 -11688943.91347  21085512.216    21085512.275    21085521.841
       237.000         196.000
   5291565.06649   4119043.51047  21567315.777    21567314.975    21567322.827
       237.000         200.000
  -7078295.55849  -5504789.58847  20691651.329    20691651.061    20691657.974
       245.000         211.000
 00  5 15 15 52 29.9980000  0  6G 5G 2G 4G24G 7G 9
 -12343531.26449  -9603782.07946  22506158.073    22506157.722    22506166.602
       226.000         175.000
   5555367.30749   4321901.92246  22495994.115    22495993.272    22496003.479
       222.000         176.000
  -9018582.98049  -7007076.97947  19844762.539    19844762.743    19844769.714
       239.000         206.000
 -15115531.94949 -11757845.66347  21068685.672    21068685.701    21068695.244
       238.000         197.000
   5344501.23549   4160292.40347  21577389.229    21577388.440    21577396.303
       237.000         200.000
  -7086890.35149  -5511486.84947  20690015.828    20690015.563    20690022.466
       245.000         211.000
 00  5 15 15 52 59.9980000  0  6G 5G 2G 4G24G 7G 9
 -12433747.40449  -9674080.32046  22488990.456    22488990.135    22488998.999
       225.000         176.000
   5617840.50049   4370582.17146  22507882.447    22507881.625    22507891.876
       223.000         177.000
  -9038828.95249  -7022853.05647  19840909.829    19840910.064    19840917.040
       239.000         206.000
 -15203555.51749 -11826435.40247  21051935.324    21051935.336    21051944.845
       237.000         197.000
   5397559.84049   4201636.70247  21587485.997    21587485.217    21587493.081
       237.000         200.000
  -7094888.73849  -5517719.38447  20688493.793    20688493.532    20688500.434
       245.000         211.000
 00  5 15 15 53 29.9980000  0  6G 5G 2G 4G24G 7G 9
 -12523871.71849  -9744307.00046  22471840.325    22471840.006    22471848.878
       227.000         176.000
   5680605.99349   4419490.19046  22519826.437    22519825.593    22519835.901
       223.000         175.000
  -9058441.57449  -7038135.61747  19837177.661    19837177.890    19837184.866
       239.000         206.000
 -15291174.52049 -11894709.89147  21035261.922    21035261.936    21035271.424
       236.000         196.000
   5450741.76249   4243077.09447  21597606.204    21597605.446    21597613.337
       237.000         200.000
  -7102289.03649  -5523485.86647  20687085.584    20687085.321    20687092.217
       244.000         211.000
 00  5 15 15 53 59.9980000  0  6G 5G 2G 4G24G 7G 9
 -12613891.06249  -9814451.89046  22454710.251    22454709.860    22454718.737
       226.000         177.000
   5743675.61149   4468635.18546  22531828.301    22531827.449    22531837.806
       222.000         175.000
  -9077408.56149  -7052915.09047  19833568.362    19833568.582    19833575.569
       239.000         206.000
 -15378374.51549 -11962657.87647  21018668.201    21018668.252    21018677.733
       236.000         196.000
   5504058.26349   4284622.34747  21607752.053    21607751.291    21607759.202
       235.000         200.000
  -7109079.13649  -5528776.87847  20685793.453    20685793.196    20685800.138
       242.000         210.000
 00  5 15 15 54 29.9980000  0  6G 5G 2G 4G24G 7G 9
 -12703794.46949  -9884506.46046  22437602.182    22437601.772    22437610.663
       227.000         176.000
   5807058.33449   4518024.14346  22543889.824    22543888.901    22543899.289
       224.000         176.000
  -9095720.26249  -7067183.95347  19830083.767    19830083.989    19830090.961
       240.000         206.000
 -15465143.79649 -12030270.25547  21002156.470    21002156.530    21002166.021
       238.000         197.000
   5557517.91949   4326279.14147  21617925.131    21617924.373    21617932.307
       237.000         199.000
  -7115249.49449  -5533584.98147  20684619.275    20684619.030    20684625.976
       244.000         210.000
 00  5 15 15 54 59.9980000  0  6G 5G 2G 4G24G 7G 9
 -12793581.61749  -9954470.42546  22420516.207    22420515.817    22420524.702
       228.000         178.000
   5870753.18449   4567656.31946  22556010.723    22556009.785    22556020.198
       223.000         175.000
  -9113377.74449  -7080943.03147  19826723.679    19826723.873    19826730.851
       240.000         206.000
 -15551480.99649 -12097545.93547  20985726.993    20985727.064    20985736.544
       240.000         198.000
   5611118.80749   4368045.99047  21628125.108    21628124.339    21628132.296
       237.000         199.000
  -7120801.07449  -5537910.91047  20683562.838    20683562.596    20683569.587
       243.000         210.000
 00  5 15 15 55 29.9980000  0  6G 5G 2G 4G24G 7G 9
 -12883226.79049 -10024323.75546  22403457.274    22403456.880    22403465.778
       229.000         176.000
   5934784.06949   4617550.34846  22568195.607    22568194.600    22568205.055
       225.000         176.000
  -9130356.16049  -7094172.96947  19823492.831    19823493.006    19823499.973
       240.000         206.000
 -15637359.59649 -12164464.26747  20969384.864    20969384.881    20969394.357
       240.000         198.000
   5664884.28649   4409941.09447  21638356.446    21638355.644    21638363.608
       237.000         199.000
  -7125709.48149  -5541735.66847  20682628.810    20682628.572    20682635.585
       243.000         210.000
 00  5 15 15 55 59.9980000  0  6G 5G 2G 4G24G 7G 9
 -12972795.25549 -10094117.32846  22386412.970    22386412.558    22386421.426
       227.000         176.000
   5999083.73949   4667653.80846  22580431.623    22580430.586    22580441.064
       225.000         176.000
  -9146722.34249  -7106925.84247  19820378.545    19820378.651    19820385.612
       239.000         207.000
 -15722844.20349 -12231075.59647  20953117.707    20953117.685    20953127.126
       239.000         197.000
   5718746.84449   4451911.84447  21648606.276    21648605.418    21648613.401
       236.000         199.000
  -7130041.75249  -5545111.48847  20681804.477    20681804.192    20681811.209
       243.000         210.000
 00  5 15 15 56 29.9980000  0  6G 5G 2G 4G24G 7G 9
 -13062286.15949 -10163850.43446  22369383.399    22369382.991    22369391.843
       229.000         178.000
   6063651.67649   4717966.32446  22592718.733    22592717.639    22592728.123
       225.000         176.000
  -9162476.61749  -7119201.89847  19817380.681    19817380.746    19817387.697
       240.000         207.000
 -15807932.75749 -12297378.30647  20936925.855    20936925.820    20936935.245
       240.000         197.000
   5772705.22549   4493957.26347  21658874.314    21658873.433    21658881.427
       237.000         199.000
  -7133798.11449  -5548038.53847  20681089.718    20681089.412    20681096.430
       244.000         210.000
 00  5 15 15 56 59.9980000  0  6G 5G 2G 4G24G 7G 9
 -13151622.08649 -10233462.80146  22352383.338    22352382.903    22352391.751
       228.000         177.000
   6128563.39549   4768546.69946  22605071.191    22605070.068    22605080.580
       224.000         176.000
  -9177543.46749  -7130942.30647  19814513.548    19814513.623    19814520.577
       239.000         206.000
 -15892547.53549 -12363311.84847  20920824.168    20920824.114    20920833.505
       240.000         198.000
   5826834.15249   4536135.57147  21669174.816    21669173.903    21669181.900
       236.000         199.000
  -7136903.31649  -5550458.20247  20680498.844    20680498.517    20680505.570
       243.000         210.000
 00  5 15 15 57 29.9980000  0  6G 5G 2G 4G24G 7G 9
 -13240813.75549 -10302962.75846  22335410.684    22335410.259    22335419.090
       228.000         178.000
   6193806.46249   4819385.26646  22617486.701    22617485.550    22617496.093
       223.000         174.000
  -9191934.66749  -7142156.22747  19811774.973    19811775.065    19811782.013
       239.000         206.000
 -15976698.56249 -12428884.02447  20904810.742    20904810.670    20904820.041
       240.000         199.000
   5881120.67249   4578436.68247  21679505.258    21679504.351    21679512.358
       236.000         199.000
  -7139369.15349  -5552379.65247  20680029.653    20680029.328    20680036.370
       243.000         210.000
 00  5 15 15 57 59.9980000  0  6G 5G 2G 4G24G 7G 9
 -13329889.78049 -10372372.58246  22318460.026    22318459.595    22318468.425
       228.000         178.000
   6259350.44149   4870458.31446  22629959.421    22629958.282    22629968.862
       223.000         174.000
  -9205680.49649  -7152867.25847  19809159.244    19809159.327    19809166.286
       240.000         207.000
 -16060413.42749 -12494116.32447  20888880.293    20888880.219    20888889.580
       239.000         199.000
   5935533.90649   4620836.53647  21689859.823    21689858.912    21689866.927
       236.000         199.000
  -7141226.04849  -5553826.59947  20679676.281    20679675.965    20679683.045
       243.000         210.000
 00  5 15 15 58 29.9980000  0  6G 5G 2G 4G24G 7G 9
 -13418839.58849 -10441684.08546  22301533.399    22301532.987    22301541.790
       230.000         178.000
   6325204.26649   4921772.80346  22642491.105    22642489.994    22642500.583
       225.000         175.000
  -9218771.56849  -7163068.09847  19806668.135    19806668.205    19806675.149
       240.000         207.000
 -16143680.98449 -12559000.07547  20873034.936    20873034.871    20873044.249
       240.000         199.000
   5990082.23249   4663341.64747  21700240.076    21700239.184    21700247.203
       237.000         199.000
  -7142464.93249  -5554791.99047  20679440.537    20679440.242    20679447.317
       244.000         210.000
 00  5 15 15 58 59.9980000  0  6G 5G 2G 4G24G 7G 9
 -13507664.34249 -10510898.12846  22284630.584    22284630.178    22284638.957
       229.000         178.000
   6391365.01049   4973326.44946  22655081.176    22655080.109    22655090.718
       224.000         175.000
  -9231210.63549  -7172760.87747  19804301.039    19804301.129    19804308.083
       240.000         207.000
 -16226501.35749 -12623535.37247  20857274.657    20857274.609    20857284.001
       240.000         199.000
   6044762.35749   4705949.46547  21710645.417    21710644.522    21710652.570
       237.000         198.000
  -7143088.67949  -5555278.05047  20679321.872    20679321.573    20679328.638
       244.000         210.000
 00  5 15 15 59 29.9980000  0  6G 5G 2G 4G24G 7G 9
 -13596346.14449 -10580000.78646  22267754.950    22267754.540    22267763.316
       230.000         178.000
   6457848.31549   5025131.44046  22667732.627    22667731.593    22667742.235
       223.000         176.000
  -9242981.49549  -7181932.97647  19802061.089    19802061.206    19802068.157
       239.000         207.000
 -16308856.25949 -12687707.97047  20841602.966    20841602.943    20841612.331
       240.000         200.000
   6099589.60849   4748671.91747  21721078.730    21721077.873    21721085.915
       236.000         198.000
  -7143081.29749  -5555272.32247  20679323.237    20679322.979    20679330.064
       243.000         210.000
 00  5 15 15 59 59.9980000  0  6G 5G 2G 4G24G 7G 9
 -13684890.18249 -10648996.09346  22250905.550    22250905.140    22250913.873
       230.000         179.000
   6524647.45049   5077182.53346  22680444.195    22680443.173    22680453.857
       223.000         175.000
  -9254090.76549  -7190589.54947  19799947.076    19799947.193    19799954.140
       239.000         207.000
 -16390750.19049 -12751521.36647  20826019.012    20826019.000    20826028.379
       240.000         200.000
   6154556.60549   4791503.26747  21731538.642    21731537.789    21731545.870
       236.000         197.000
  -7142449.36949  -5554779.93347  20679443.495    20679443.248    20679450.325
       244.000         210.000
 00  5 15 16  0 29.9980000  0  6G 5G 2G 4G24G 7G 9
 -13773286.17949 -10717876.03246  22234084.333    22234083.922    22234092.609
       228.000         179.000
   6591770.79449   5129486.25746  22693217.519    22693216.443    22693227.200
       222.000         175.000
  -9264529.98649  -7198724.00547  19797960.574    19797960.690    19797967.619
       239.000         207.000
 -16472172.18649 -12814967.02047  20810524.867    20810524.860    20810534.230
       240.000         200.000
   6209671.43749   4834449.81747  21742026.702    21742025.831    21742033.945
       235.000         197.000
  -7141184.64949  -5553794.46047  20679684.214    20679683.944    20679691.016
       243.000         210.000
 00  5 15 16  0 59.9980000  0  6G 5G 2G 4G24G 7G 9
 -13861571.76249 -10786669.95246  22217284.121    22217283.684    22217292.348
       228.000         179.000
   6659179.13749   5182012.05346  22706045.069    22706043.994    22706054.770
       223.000         174.000
  -9274338.10149  -7206366.69147  19796094.165    19796094.286    19796101.200
       239.000         207.000
 -16553159.08249 -12878073.63647  20795113.567    20795113.533    20795122.881
       240.000         200.000
   6264894.26049   4877480.50247  21752535.315    21752534.460    21752542.571
       235.000         197.000
  -7139326.13049  -5552346.29347  20680037.938    20680037.639    20680044.714
       243.000         210.000
 00  5 15 16  1 29.9980000  0  6G 5G 2G 4G24G 7G 9
 -13949730.43149 -10855364.96346  22200508.064    22200507.614    22200516.238
       229.000         179.000
   6726886.70749   5234771.00646  22718929.543    22718928.461    22718939.270
       221.000         172.000
  -9283500.59849  -7213506.29347  19794350.652    19794350.731    19794357.655
       239.000         207.000
 -16633694.02549 -12940828.07847  20779788.270    20779788.215    20779797.550
       240.000         201.000
   6320238.93849   4920606.15247  21763067.169    21763066.268    21763074.389
       235.000         196.000
  -7136859.43449  -5550424.21247  20680507.389    20680507.070    20680514.152
       243.000         211.000
 00  5 15 16  1 59.9980000  0  6G 5G 2G 4G24G 7G 9
 -14037727.94549 -10923934.40046  22183762.683    22183762.204    22183770.808
       228.000         179.000
   6794925.55549   5287788.10446  22731877.021    22731875.974    22731886.813
       220.000         172.000
  -9291985.22249  -7220117.68447  19792736.116    19792736.177    19792743.097
       240.000         207.000
 -16713742.36049 -13003203.34747  20764555.577    20764555.492    20764564.827
       241.000         201.000
   6375737.47449   4963851.68547  21773628.298    21773627.372    21773635.479
       235.000         196.000
  -7133752.40549  -5548003.17547  20681098.704    20681098.347    20681105.456
       244.000         211.000
 00  5 15 16  2 29.9980000  0  6G 5G 2G 4G24G 7G 9
 -14125547.54149 -10992365.20746  22167051.137    22167050.649    22167059.239
       228.000         180.000
   6863310.82749   5341075.12746  22744890.467    22744889.377    22744900.288
       221.000         172.000
  -9299776.76249  -7226189.01547  19791253.472    19791253.512    19791260.415
       240.000         207.000
 -16793286.44649 -13065185.70247  20749418.880    20749418.732    20749428.038
       241.000         202.000
   6431404.41949   5007228.44147  21784221.476    21784220.516    21784228.619
       236.000         196.000
  -7129989.88849  -5545071.37947  20681814.730    20681814.359    20681821.467
       244.000         211.000
 00  5 15 16  2 59.9980000  0  6G 5G 2G 4G24G 7G 9
 -14213235.05049 -11060693.09046  22150364.727    22150364.219    22150372.815
       228.000         179.000
   6931994.77649   5394594.89346  22757960.829    22757959.661    22757970.594
       220.000         173.000
  -9306922.73649  -7231757.30247  19789893.683    19789893.700    19789900.595
       239.000         207.000
 -16872371.79749 -13126810.59147  20734369.439    20734369.250    20734378.566
       240.000         201.000
   6487191.57749   5050698.87247  21794837.507    21794836.546    21794844.641
       235.000         195.000
  -7125619.70249  -5541666.06547  20682646.420    20682646.026    20682653.125
       244.000         211.000
 00  5 15 16  3 29.9980000  0  6G 5G 2G 4G24G 7G 9
 -14300790.80349 -11128918.29746  22133703.371    22133702.842    22133711.478
       227.000         179.000
   7000975.25549   5448345.71146  22771087.546    22771086.341    22771097.330
       221.000         172.000
  -9313425.18249  -7236824.13747  19788656.319    19788656.344    19788663.216
       239.000         207.000
 -16950998.16749 -13188077.83147  20719407.315    20719407.125    20719416.432
       241.000         202.000
   6543096.44249   5094261.03047  21805475.930    21805474.954    21805483.050
       235.000         195.000
  -7120644.12049  -5537789.01347  20683593.285    20683592.879    20683600.007
       244.000         211.000
 00  5 15 16  3 59.9980000  0  6G 5G 2G 4G24G 7G 9
 -14388199.42749 -11197028.87846  22117069.984    22117069.489    22117078.120
       227.000         180.000
   7070265.58549   5502337.97746  22784273.175    22784271.998    22784283.045
       219.000         171.000
  -9319270.57749  -7241378.99247  19787544.028    19787544.017    19787550.877
       239.000         207.000
 -17029149.57849 -13248974.98047  20704535.610    20704535.398    20704544.676
       241.000         202.000
   6599132.24749   5137925.21047  21816139.279    21816138.289    21816146.393
       234.000         195.000
  -7115049.67749  -5533429.74047  20684657.937    20684657.511    20684664.640
       244.000         211.000
 00  5 15 16  4 29.9980000  0  6G 5G 2G 4G24G 7G 9
 -14475438.62849 -11265007.42446  22100468.847    22100468.372    22100477.013
       228.000         180.000
   7139885.74249   5556587.24946  22797521.593    22797520.417    22797531.561
       220.000         170.000
  -9324438.95749  -7245406.29747  19786560.535    19786560.516    19786567.378
       239.000         207.000
 -17106803.51549 -13309484.48847  20689758.512    20689758.316    20689767.569
       241.000         201.000
   6655318.62249   5181706.72447  21826831.270    21826830.265    21826838.378
       234.000         195.000
  -7108816.31849  -5528572.60447  20685844.163    20685843.727    20685850.845
       245.000         211.000
 00  5 15 16  4 59.9980000  0  6G 5G 2G 4G24G 7G 9
 -14562485.62849 -11332836.21046  22083904.335    22083903.848    22083912.479
       227.000         180.000
   7209856.43949   5611109.67146  22810836.728    22810835.561    22810846.731
       218.000         169.000
  -9328909.14749  -7248889.56247  19785709.879    19785709.874    19785716.740
       239.000         207.000
 -17183936.59949 -13369588.13247  20675080.522    20675080.340    20675089.569
       240.000         201.000
   6711676.16049   5225621.60047  21837555.837    21837554.813    21837562.942
       235.000         195.000
  -7101923.12149  -5523201.31047  20687155.929    20687155.485    20687162.614
       244.000         211.000
 00  5 15 16  5 29.9980000  0  6G 5G 2G 4G24G 7G 9
 -14649374.35149 -11400541.68046  22067369.945    22067369.446    22067378.080
       228.000         180.000
   7280142.04849   5665877.46846  22824211.760    22824210.604    22824221.845
       218.000         167.000
  -9332717.24249  -7251856.90247  19784985.196    19784985.211    19784992.062
       238.000         207.000
 -17260582.25849 -13429311.98047  20660495.313    20660495.119    20660504.305
       240.000         202.000
   6768168.68749   5269641.67547  21848306.075    21848305.055    21848313.207
       234.000         194.000
  -7094405.94749  -5517343.80047  20688586.407    20688585.969    20688593.112
       245.000         212.000
 00  5 15 16  5 59.9980000  0  6G 5G 2G 4G24G 7G 9
 -14736119.42749 -11468135.19446  22050862.886    22050862.390    22050870.991
       228.000         181.000
   7350725.75449   5720877.56246  22837643.557    22837642.376    22837653.655
       218.000         167.000
  -9335879.92749  -7254321.32947  19784383.353    19784383.380    19784390.233
       239.000         207.000
 -17336755.00349 -13488667.31247  20646000.142    20645999.918    20646009.072
       241.000         203.000
   6824779.23349   5313753.71147  21859078.788    21859077.760    21859085.927
       234.000         194.000
  -7086281.81449  -5511013.33647  20690132.417    20690131.978    20690139.110
       246.000         212.000
 00  5 15 16  6 29.9980000  0  6G 5G 2G 4G24G 7G 9
 -14822705.20349 -11535604.59346  22034386.165    22034385.652    22034394.235
       228.000         182.000
   7421620.93349   5776120.35546  22851134.566    22851133.432    22851144.764
       217.000         167.000
  -9338383.42849  -7256272.10947  19783906.931    19783906.975    19783913.847
       239.000         207.000
 -17412438.71249 -13547641.58547  20631598.016    20631597.781    20631606.900
       241.000         203.000
   6881521.14549   5357968.10747  21869876.438    21869875.452    21869883.640
       234.000         194.000
  -7077537.09349  -5504199.29847  20691796.508    20691796.082    20691803.214
       245.000         211.000
 00  5 15 16  6 59.9980000  0  6G 5G 2G 4G24G 7G 9
 -14909124.83049 -11602944.52146  22017941.096    22017940.558    22017949.074
       230.000         182.000
   7492832.59049   5831609.75246  22864685.914    22864684.722    22864696.094
       219.000         168.000
  -9340223.13449  -7257705.64747  19783556.866    19783556.887    19783563.766
       239.000         207.000
 -17487626.18649 -13606229.17747  20617290.287    20617290.051    20617299.163
       241.000         202.000
   6938398.98349   5402288.41947  21880699.960    21880698.998    21880707.232
       234.000         194.000
  -7068166.92949  -5496897.90047  20693579.576    20693579.176    20693586.317
       245.000         211.000
 00  5 15 16  7 29.9980000  0  6G 5G 2G 4G24G 7G 9
 -14995401.88849 -11670173.35446  22001523.101    22001522.556    22001531.085
       229.000         182.000
   7564334.76449   5887325.50746  22878292.581    22878291.337    22878302.703
       220.000         168.000
  -9341424.67249  -7258641.91347  19783328.266    19783328.265    19783335.128
       238.000         207.000
 -17562340.83549 -13664448.33847  20603072.520    20603072.294    20603081.375
       240.000         202.000
   6995386.70549   5446694.35447  21891544.412    21891543.462    21891551.733
       233.000         193.000
  -7058197.72949  -5489129.71847  20695476.701    20695476.278    20695483.408
       245.000         211.000
 00  5 15 16  7 59.9980000  0  6G 5G 2G 4G24G 7G 9
 -15081503.89249 -11737265.79346  21985138.480    21985137.910    21985146.375
       230.000         182.000
   7636157.80049   5943291.29846  22891960.305    22891958.998    22891970.353
       221.000         168.000
  -9341957.86549  -7259057.38947  19783226.827    19783226.814    19783233.668
       239.000         207.000
 -17636549.71849 -13722273.39447  20588951.015    20588950.781    20588959.841
       241.000         203.000
   7052514.52749   5491209.46247  21902415.548    21902414.578    21902422.882
       234.000         193.000
  -7047598.95549  -5480870.95947  20697493.645    20697493.206    20697500.318
       245.000         211.000
 00  5 15 16  8 29.9980000  0  6G 5G 2G 4G24G 7G 9
 -15167459.47749 -11804244.13346  21968781.683    21968781.085    21968789.534
       230.000         183.000
   7708271.11649   5999483.27046  22905683.232    22905681.873    22905693.276
       220.000         168.000
  -9341853.35549  -7258975.95747  19783246.710    19783246.702    19783253.567
       239.000         206.000
 -17710281.17749 -13779726.43547  20574920.382    20574920.137    20574929.172
       241.000         204.000
   7109751.68049   5535809.76147  21913307.487    21913306.519    21913314.836
       232.000         192.000
  -7036401.49449  -5472145.69247  20699624.518    20699624.054    20699631.154
       245.000         211.000
 00  5 15 16  8 59.9980000  0  6G 5G 2G 4G24G 7G 9
 -15253265.94749 -11871106.29046  21952453.291    21952452.643    21952461.080
       230.000         183.000
   7780674.94749   6055901.61446  22919461.384    22919460.012    22919471.454
       220.000         167.000
  -9341110.86449  -7258397.39547  19783388.023    19783388.012    19783394.850
       238.000         207.000
 -17783532.54449 -13836805.37747  20560981.121    20560980.848    20560989.859
       241.000         203.000
   7167098.34349   5580495.39447  21924220.266    21924219.292    21924227.627
       232.000         192.000
  -7024605.02049  -5462953.66447  20701869.360    20701868.890    20701875.978
       245.000         211.000
 00  5 15 16  9 29.9980000  0  6G 5G 2G 4G24G 7G 9
 -15338904.40649 -11937837.51946  21936156.859    21936156.177    21936164.578
       230.000         183.000
   7853386.37149   6112559.64146  22933298.102    22933296.708    22933308.216
       218.000         167.000
  -9339713.44949  -7257308.50447  19783654.006    19783653.962    19783660.790
       239.000         207.000
 -17856284.45049 -13893495.13047  20547136.874    20547136.589    20547145.578
       241.000         204.000
   7224571.31149   5625279.44347  21935157.076    21935156.100    21935164.449
       232.000         191.000
  -7012192.68249  -5453281.74247  20704231.395    20704230.910    20704237.997
       246.000         211.000
 00  5 15 16  9 59.9980000  0  6G 5G 2G 4G24G 7G 9
 -15424400.80749 -12004458.05246  21919887.416    21919886.730    21919895.113
       231.000         184.000
   7926377.13149   6169435.32746  22947187.905    22947186.529    22947198.123
       219.000         167.000
  -9337689.27049  -7255731.23047  19784039.208    19784039.156    19784045.983
       239.000         207.000
 -17928562.47549 -13949815.62647  20533382.791    20533382.509    20533391.485
       241.000         204.000
   7282142.38449   5670139.93747  21946112.569    21946111.575    21946119.949
       231.000         191.000
  -6999192.94549  -5443152.10947  20706705.216    20706704.722    20706711.794
       245.000         211.000
 00  5 15 16 10 29.9980000  0  6G 5G 2G 4G24G 7G 9
 -15509742.16349 -12070957.78546  21903647.491    21903646.793    21903655.154
       230.000         184.000
   7999657.83649   6226536.92946  22961132.886    22961131.551    22961143.213
       220.000         168.000
  -9335028.03849  -7253657.55547  19784545.638    19784545.586    19784552.392
       238.000         206.000
 -18000353.77449 -14005756.85547  20519721.317    20519721.042    20519730.025
       242.000         204.000
   7339821.92049   5715084.94947  21957088.701    21957087.705    21957096.082
       232.000         191.000
  -6985595.32749  -5432556.59847  20709292.791    20709292.294    20709299.356
       245.000         211.000
 00  5 15 16 10 59.9980000  0  6G 5G 2G 4G24G 7G 9
 -15594929.31049 -12137337.34846  21887436.856    21887436.195    21887444.560
       229.000         184.000
   8073225.56549   6283862.21046  22975132.543    22975131.199    22975142.898
       216.000         166.000
  -9331732.63549  -7251089.71547  19785172.757    19785172.688    19785179.505
       238.000         207.000
 -18071658.74449 -14061319.12247  20506152.465    20506152.152    20506161.103
       242.000         205.000
   7397607.00849   5760112.20647  21968084.916    21968083.894    21968092.298
       231.000         190.000
  -6971402.96249  -5421497.64747  20711993.510    20711993.027    20712000.106
       245.000         211.000
 00  5 15 16 11 29.9980000  0  6G 5G 2G 4G24G 7G 9
 -15679924.84149 -12203567.59446  21871262.667    21871262.043    21871270.424
       230.000         185.000
   8147115.39149   6341438.46146  22989193.453    22989192.128    22989203.883
       217.000         166.000
  -9327768.23149  -7248000.58147  19785927.186    19785927.120    19785933.925
       238.000         207.000
 -18142440.15749 -14116473.42647  20492683.267    20492682.905    20492691.812
       242.000         205.000
   7455532.74949   5805249.06047  21979107.890    21979106.870    21979115.272
       231.000         190.000
  -6956581.10049  -5409948.17747  20714814.072    20714813.572    20714820.643
       245.000         211.000
 00  5 15 16 11 59.9980000  0  6G 5G 2G 4G24G 7G 9
 -15764764.14849 -12269676.11346  21855118.239    21855117.606    21855126.006
       231.000         184.000
   8221289.69649   6399236.37546  23003308.541    23003307.202    23003318.995
       215.000         165.000
  -9323172.42849  -7244419.44747  19786801.751    19786801.673    19786808.495
       239.000         207.000
 -18212733.15549 -14171247.14647  20479306.940    20479306.571    20479315.464
       242.000         205.000
   7513561.29749   5850466.02547  21990150.465    21990149.415    21990157.820
       232.000         189.000
  -6941167.35649  -5397937.50347  20717747.216    20717746.726    20717753.818
       245.000         211.000
 00  5 15 16 12 29.9980000  0  6G 5G 2G 4G24G 7G 9
 -15849455.05449 -12335668.99646  21839002.054    21839001.416    21839009.835
       231.000         185.000
   8295738.22749   6457247.97946  23017475.807    23017474.489    23017486.287
       213.000         165.000
  -9317955.75349  -7240354.52047  19787794.444    19787794.385    19787801.199
       238.000         206.000
 -18282545.66249 -14225646.45547  20466022.026    20466021.660    20466030.543
       243.000         206.000
   7571682.52949   5895755.20747  22001210.655    22001209.583    22001217.997
       231.000         189.000
  -6925172.14749  -5385473.73747  20720791.035    20720790.539    20720797.629
       245.000         211.000
 00  5 15 16 12 59.9980000  0  6G 5G 2G 4G24G 7G 9
 -15933989.28349 -12401539.78446  21822915.680    21822915.054    21822923.479
       232.000         186.000
   8370467.00749   6515477.94346  23031696.415    23031695.053    23031706.933
       214.000         164.000
  -9312112.27749  -7235801.18347  19788906.412    19788906.364    19788913.181
       239.000         206.000
 -18351869.11649 -14279664.69447  20452830.195    20452829.839    20452838.680
       243.000         206.000
   7629902.50049   5941121.33247  22012289.594    22012288.550    22012296.959
       232.000         189.000
  -6908589.75149  -5372552.42947  20723946.575    20723946.087    20723953.172
       245.000         211.000
 00  5 15 16 13 29.9980000  0  6G 5G 2G 4G24G 7G 9
 -16018400.54449 -12467314.75546  21806852.675    21806852.093    21806860.526
       231.000         186.000
   8445440.00449   6573898.21646  23045963.429    23045962.095    23045974.037
       213.000         164.000
  -9305678.30149  -7230787.70647  19790130.753    19790130.724    19790137.530
       238.000         207.000
 -18420737.34949 -14333328.20647  20439724.974    20439724.629    20439733.437
       242.000         206.000
   7688185.11749   5986536.27747  22023380.494    22023379.428    22023387.849
       233.000         189.000
  -6891456.74949  -5359202.06947  20727206.848    20727206.391    20727213.516
       245.000         211.000
 00  5 15 16 13 59.9980000  0  6G 5G 2G 4G24G 7G 9
 -16102612.26649 -12532934.24446  21790827.684    21790827.125    21790835.550
       231.000         187.000
   8520731.42449   6632566.59946  23060291.127    23060289.760    23060301.776
       213.000         164.000
  -9298579.74249  -7225256.37547  19791481.537    19791481.528    19791488.350
       238.000         207.000
 -18489073.79349 -14386577.34047  20426720.921    20426720.601    20426729.398
       242.000         206.000
   7746604.73749   6032057.97147  22034497.444    22034496.389    22034504.814
       232.000         190.000
  -6873699.04549  -5345364.93247  20730586.038    20730585.599    20730592.741
       245.000         211.000
 00  5 15 16 14 29.9980000  0  6G 5G 2G 4G24G 7G 9
 -16186653.61949 -12598420.97546  21774835.124    21774834.557    21774842.998
       232.000         187.000
   8596309.83849   6691458.60545  23074673.388    23074672.032    23074684.126
       213.000         162.000
  -9290848.27749  -7219231.88147  19792952.812    19792952.783    19792959.608
       239.000         206.000
 -18556907.32549 -14439434.59147  20413812.579    20413812.278    20413821.063
       243.000         206.000
   7805129.92549   6077661.92947  22045634.465    22045633.424    22045641.859
       232.000         189.000
  -6855348.15849  -5331065.57247  20734078.124    20734077.687    20734084.843
       245.000         211.000
 00  5 15 16 14 59.9980000  0  6G 5G 2G 4G24G 7G 9
 -16270558.18149 -12663801.12046  21758868.552    21758868.018    21758876.464
       232.000         187.000
   8672139.22149   6750546.17645  23089103.397    23089102.069    23089114.273
       213.000         161.000
  -9282520.11149  -7212742.41747  19794537.617    19794537.604    19794544.423
       240.000         207.000
 -18624271.97249 -14491926.48247  20400993.456    20400993.180    20401001.961
       243.000         206.000
   7863724.68349   6123320.09347  22056784.733    22056783.694    22056792.160
       233.000         188.000
  -6836440.56249  -5316332.41847  20737676.134    20737675.699    20737682.876
       246.000         211.000
 00  5 15 16 15 29.9980000  0  6G 5G 2G 4G24G 7G 9
 -16354291.06049 -12729047.48846  21742934.709    21742934.169    21742942.614
       232.000         187.000
   8748251.88149   6809854.49545  23103587.350    23103586.042    23103598.309
       213.000         162.000
  -9273563.27649  -7205763.08547  19796242.076    19796242.056    19796248.850
       239.000         207.000
 -18691132.80749 -14544025.79547  20388270.214    20388269.956    20388278.725
       242.000         206.000
   7922421.38049   6169057.68847  22067954.404    22067953.376    22067961.865
       231.000         189.000
  -6816944.35849  -5301140.60947  20741386.174    20741385.743    20741392.914
       245.000         211.000
 00  5 15 16 15 59.9980000  0  6G 5G 2G 4G24G 7G 9
 -16437842.22049 -12794152.25147  21727035.426    21727034.873    21727043.330
       232.000         188.000
   8824655.62749   6869389.60346  23118126.651    23118125.340    23118137.709
       213.000         163.000
  -9263970.15949  -7198287.94847  19798067.644    19798067.589    19798074.383
       240.000         207.000
 -18757480.02649 -14595724.88847  20375644.709    20375644.464    20375653.218
       242.000         206.000
   7981227.99249   6214880.93647  22079145.017    22079143.988    22079152.475
       233.000         189.000
  -6796852.11849  -5285484.34947  20745209.646    20745209.200    20745216.374
       245.000         211.000
 00  5 15 16 16 29.9980000  0  6G 5G 2G 4G24G 7G 9
 -16521244.43949 -12859140.95746  21711164.495    21711163.943    21711172.399
       231.000         187.000
   8901315.17949   6929124.06646  23132714.762    23132713.405    23132725.801
       210.000         163.000
  -9253776.35149  -7190344.73647  19800007.470    19800007.421    19800014.221
       238.000         207.000
 -18823346.33649 -14647049.24047  20363110.733    20363110.494    20363119.219
       242.000         206.000
   8040109.38949   6260762.45347  22090349.858    22090348.826    22090357.313
       232.000         189.000
  -6776199.12649  -5269391.14147  20749139.813    20749139.366    20749146.562
       245.000         210.000
 00  5 15 16 16 59.9980000  0  6G 5G 2G 4G24G 7G 9
 -16604469.67849 -12923991.76247  21695327.241    21695326.705    21695335.104
       232.000         188.000
   8978256.04949   6989077.70145  23147356.309    23147354.956    23147367.446
       211.000         162.000
  -9242956.41249  -7181913.63747  19802066.457    19802066.410    19802073.204
       239.000         207.000
 -18888704.05549 -14697977.29447  20350673.528    20350673.291    20350682.015
       242.000         206.000
   8099091.21549   6306722.23047  22101573.779    22101572.768    22101581.272
       231.000         188.000
  -6754960.34749  -5252841.48147  20753181.453    20753180.999    20753188.203
       245.000         210.000
 00  5 15 16 17 29.9980000  0  6G 5G 2G 4G24G 7G 9
 -16687536.90449 -12988719.42847  21679520.070    21679519.504    21679527.909
       232.000         188.000
   9055456.88349   7049233.89745  23162047.329    23162045.973    23162058.534
       211.000         162.000
  -9231532.36849  -7173011.80247  19804240.396    19804240.351    19804247.153
       239.000         206.000
 -18953572.17349 -14748523.83047  20338329.454    20338329.257    20338337.999
       242.000         206.000
   8158152.14349   6352743.64347  22112812.797    22112811.776    22112820.286
       232.000         188.000
  -6733157.71549  -5235852.44447  20757330.382    20757329.932    20757337.123
       245.000         209.000
 00  5 15 16 17 59.9980000  0  6G 5G 2G 4G24G 7G 9
 -16770406.53149 -13053293.13647  21663750.518    21663749.955    21663758.296
       233.000         188.000
   9132954.90049   7109621.68346  23176794.969    23176793.552    23176806.159
       213.000         163.000
  -9219467.22049  -7163610.40847  19806536.309    19806536.284    19806543.087
       239.000         207.000
 -19017911.36249 -14798658.22847  20326086.073    20326085.886    20326094.624
       243.000         207.000
   8217329.65149   6398855.89647  22124073.993    22124072.959    22124081.490
       232.000         189.000
  -6710754.25949  -5218395.24547  20761593.633    20761593.191    20761600.381
       246.000         209.000
 00  5 15 16 18 29.9980000  0  6G 5G 2G 4G24G 7G 9
 -16853108.24349 -13117735.98046  21648012.838    21648012.283    21648020.650
       231.000         187.000
   9210717.69449   7170215.77945  23191592.913    23191591.521    23191604.147
       210.000         160.000
  -9206793.36249  -7153734.69247  19808948.098    19808948.061    19808954.851
       238.000         206.000
 -19081751.56149 -14848403.79347  20313937.669    20313937.476    20313946.188
       242.000         206.000
   8276591.52049   6445033.88947  22135351.197    22135350.197    22135358.762
       231.000         188.000
  -6687782.80149  -5200495.44247  20765964.975    20765964.536    20765971.719
       245.000         209.000
 00  5 15 16 18 59.9980000  0  6G 5G 2G 4G24G 7G 9
 -16935635.53549 -13182042.92047  21632308.395    21632307.833    21632316.164
       233.000         188.000
   9288749.12549   7231019.18645  23206442.073    23206440.621    23206453.266
       214.000         162.000
  -9193507.59349  -7143382.16647  19811476.318    19811476.264    19811483.042
       239.000         207.000
 -19145086.60649 -14897755.73247  20301885.379    20301885.180    20301893.898
       242.000         206.000
   8335942.14049   6491281.03046  22146645.305    22146644.313    22146652.916
       231.000         187.000
  -6664239.59149  -5182150.11947  20770445.081    20770444.685    20770451.857
       245.000         209.000
 00  5 15 16 19 29.9980000  0  6G 5G 2G 4G24G 7G 9
 -17017985.31349 -13246211.54547  21616637.746    21616637.162    21616645.475
       233.000         188.000
   9367050.17649   7292032.71245  23221342.491    23221341.045    23221353.726
       211.000         162.000
  -9179609.12149  -7132552.20547  19814121.146    19814121.094    19814127.853
       239.000         207.000
 -19207913.26549 -14946711.52647  20289929.841    20289929.623    20289938.348
       242.000         207.000
   8395382.27549   6537597.93546  22157956.419    22157955.446    22157964.098
       231.000         187.000
  -6640124.18349  -5163358.91947  20775034.099    20775033.699    20775040.882
       245.000         209.000
 00  5 15 16 19 59.9980000  0  6G 5G 2G 4G24G 7G 9
 -17100160.94349 -13310244.46747  21601000.223    21600999.631    21601007.919
       232.000         188.000
   9445614.86949   7353251.64845  23236292.982    23236291.592    23236304.381
       211.000         160.000
  -9165104.41249  -7121249.85547  19816881.336    19816881.253    19816888.036
       239.000         207.000
 -19270235.29949 -14995274.10447  20278070.339    20278070.099    20278078.833
       242.000         207.000
   8454906.27849   6583980.18646  22169283.544    22169282.546    22169291.235
       230.000         187.000
  -6615442.90349  -5144126.79247  20779730.844    20779730.426    20779737.593
       245.000         209.000
 00  5 15 16 20 29.9980000  0  6G 5G 2G 4G24G 7G 9
 -17182105.19149 -13374097.09447  21585406.747    21585406.135    21585414.398
       232.000         189.000
   9524497.86649   7414718.59845  23251304.109    23251302.734    23251315.624
       213.000         161.000
  -9149939.17849  -7109432.81447  19819767.164    19819767.109    19819773.892
       238.000         206.000
 -19331996.00349 -15043399.28747  20266317.639    20266317.404    20266326.119
       241.000         207.000
   8514568.97949   6630470.50846  22180637.027    22180636.044    22180644.768
       229.000         187.000
  -6590141.97249  -5124411.82347  20784545.486    20784545.062    20784552.216
       244.000         209.000
 00  5 15 16 20 59.9980000  0  6G 5G 2G 4G24G 7G 9
 -17263885.55149 -13437822.01947  21569844.398    21569843.816    21569852.065
       232.000         188.000
   9603629.13749   7476379.03446  23266362.586    23266361.187    23266374.061
       214.000         163.000
  -9134184.11849  -7097156.16347  19822765.259    19822765.213    19822772.006
       238.000         207.000
 -19393263.07449 -15091139.82047  20254658.864    20254658.642    20254667.344
       241.000         207.000
   8574300.70349   6677014.61846  22192003.665    22192002.671    22192011.440
       231.000         186.000
  -6564292.01149  -5104269.04047  20789464.600    20789464.182    20789471.315
       245.000         209.000
 00  5 15 16 21 29.9980000  0  6G 5G 2G 4G24G 7G 9
 -17345475.90549 -13501398.89147  21554318.213    21554317.657    21554325.904
       232.000         189.000
   9683032.19449   7538251.22845  23281472.734    23281471.349    23281484.262
       213.000         161.000
  -9117815.88349  -7084401.71347  19825880.027    19825879.997    19825886.795
       238.000         206.000
 -19454010.78149 -15138475.64647  20243098.920    20243098.702    20243107.408
       241.000         206.000
   8634125.12849   6723630.95546  22203387.940    22203386.952    22203395.760
       230.000         186.000
  -6537869.63649  -5083680.21647  20794492.640    20794492.225    20794499.365
       244.000         209.000
 00  5 15 16 21 59.9980000  0  6G 5G 2G 4G24G 7G 9
 -17426901.95149 -13564847.73347  21538823.311    21538822.746    21538831.010
       233.000         190.000
   9762678.67949   7600313.08245  23296629.162    23296627.761    23296640.768
       217.000         161.000
  -9100863.27949  -7071191.91247  19829105.988    19829105.967    19829112.796
       238.000         207.000
 -19514265.27349 -15185427.15347  20231632.805    20231632.604    20231641.302
       241.000         206.000
   8694014.36649   6770297.81346  22214784.578    22214783.571    22214792.388
       231.000         186.000
  -6510903.59949  -5062667.76647  20799624.107    20799623.704    20799630.883
       244.000         209.000
 00  5 15 16 22 29.9980000  0  6G 5G 2G 4G24G 7G 9
 -17508180.95649 -13628181.99147  21523356.393    21523355.844    21523364.098
       233.000         190.000
   9842548.63649   7662549.08245  23311828.278    23311826.773    23311839.796
       219.000         162.000
  -9083346.54649  -7057542.53147  19832439.329    19832439.310    19832446.130
       238.000         206.000
 -19574044.14049 -15232008.04047  20220257.194    20220257.020    20220265.719
       241.000         206.000
   8753948.82949   6816999.90646  22226189.799    22226188.807    22226197.632
       232.000         186.000
  -6483414.22749  -5041247.51647  20804855.203    20804854.796    20804861.969
       245.000         209.000
 00  5 15 16 22 59.9980000  0  6G 5G 2G 4G24G 7G 9
 -17589269.25149 -13691367.64847  21507925.744    21507925.233    21507933.484
       233.000         191.000
   9922682.99849   7724991.11445  23327077.620    23327076.094    23327089.130
       216.000         162.000
  -9065225.32449  -7043422.12247  19835887.641    19835887.666    19835894.485
       238.000         207.000
 -19633304.44949 -15278184.86247  20208980.278    20208980.121    20208988.819
       241.000         207.000
   8813969.78149   6863769.38846  22237611.447    22237610.482    22237619.309
       232.000         185.000
  -6455361.17049  -5019388.03647  20810193.531    20810193.126    20810200.319
       244.000         209.000
 00  5 15 16 23 29.9980000  0  6G 5G 2G 4G24G 7G 9
 -17670172.61349 -13754409.20147  21492530.298    21492529.797    21492538.051
       234.000         191.000
  10003073.30949   7787632.58845  23342375.601    23342374.074    23342387.201
       215.000         161.000
  -9046508.54649  -7028837.64547  19839449.298    19839449.347    19839456.200
       239.000         207.000
 -19692052.36849 -15323962.41347  20197800.848    20197800.716    20197809.419
       241.000         207.000
   8874068.96149   6910599.82646  22249047.976    22249047.045    22249055.889
       232.000         185.000
  -6426753.64449  -4997096.50847  20815637.321    20815636.974    20815644.195
       244.000         208.000
 00  5 15 16 23 59.9980000  0  6G 5G 2G 4G24G 7G 9
 -17750883.77649 -13817300.98547  21477171.482    21477170.959    21477179.219
       234.000         192.000
  10083724.21749   7850477.08845  23357723.152    23357721.623    23357734.821
       215.000         159.000
  -9027192.13149  -7013785.91647  19843125.112    19843125.158    19843131.998
       238.000         207.000
 -19750281.45649 -15369335.68147  20186720.172    20186720.043    20186728.758
       240.000         207.000
   8934251.49249   6957495.21446  22260500.415    22260499.476    22260508.332
       231.000         185.000
  -6397587.64749  -4974369.80347  20821187.445    20821187.093    20821194.339
       243.000         208.000
 00  5 15 16 24 29.9980000  0  6G 5G 2G 4G24G 7G 9
 -17831402.76749 -13880043.03347  21461849.208    21461848.688    21461856.944
       234.000         192.000
  10164632.72749   7913522.34445  23373119.775    23373118.253    23373131.460
       217.000         161.000
  -9007279.33549  -6998269.47547  19846914.393    19846914.435    19846921.287
       238.000         207.000
 -19807991.93149 -15414304.84047  20175738.197    20175738.069    20175746.793
       241.000         207.000
   8994514.77749   7004453.52246  22271968.220    22271967.264    22271976.132
       231.000         185.000
  -6367866.28349  -4951210.34947  20826843.226    20826842.892    20826850.155
       243.000         207.000
 00  5 15 16 24 59.9980000  0  7G 5G 2G30G 4G24G 7G 9
 -17911750.00549 -13942651.23647  21446559.639    21446559.107    21446567.379
       234.000         193.000
  10245775.79449   7976750.38845  23388561.095    23388559.521    23388572.819
       214.000         161.000
  -1970612.52259  -1515756.15555  24600209.877    24600210.058    24600220.745
       216.000         151.000
  -8986793.65649  -6982306.62847  19850812.693    19850812.750    19850819.602
       238.000         207.000
 -19865204.90349 -15458886.32947  20164850.918    20164850.770    20164859.493
       241.000         207.000
   9054836.36149   7051457.26446  22283447.155    22283446.171    22283455.022
       229.000         185.000
  -6337613.23949  -4927636.59647  20832600.184    20832599.864    20832607.148
       243.000         208.000
 00  5 15 16 25 29.9980000  0  7G 5G 2G30G 4G24G 7G 9
 -17991921.48149 -14005122.48847  21431303.459    21431302.953    21431311.247
       234.000         193.000
  10327155.05149   8040162.45945  23404047.268    23404045.741    23404059.095
       213.000         157.000
  -2074074.38649  -1596375.80445  24580521.665    24580521.863    24580532.541
       220.000         153.000
  -8965734.32649  -6965896.78347  19854820.124    19854820.189    19854827.076
       238.000         207.000
 -19921916.87249 -15503077.42647  20154058.960    20154058.825    20154067.516
       241.000         207.000
   9115217.82749   7098507.66846  22294937.443    22294936.460    22294945.309
       232.000         185.000
  -6306827.79549  -4903647.98247  20838458.458    20838458.146    20838465.467
       243.000         207.000
 00  5 15 16 25 59.9980000  0  7G 5G 2G30G 4G24G 7G 9
 -18071896.14049 -14067440.37047  21416084.739    21416084.265    21416092.556
       234.000         193.000
  10408788.71049   8103772.76245  23419581.841    23419580.359    23419593.736
       215.000         158.000
  -2177557.13549  -1677011.70445  24560829.582    24560829.783    24560840.412
       213.000         152.000
  -8944083.63649  -6949026.13247  19858940.120    19858940.200    19858947.079
       239.000         207.000
 -19978107.26549 -15546862.09947  20143366.236    20143366.104    20143374.808
       240.000         207.000
   9175678.10049   7145619.48346  22306442.722    22306441.751    22306450.621
       231.000         185.000
  -6275492.05249  -4879230.56547  20844421.445    20844421.133    20844428.487
       243.000         207.000
 00  5 15 16 26 29.9980000  0  7G 5G 2G30G 4G24G 7G 9
 -18151710.22449 -14129633.13547  21400896.575    21400896.114    21400904.419
       234.000         194.000
  10490637.77349   8167550.90645  23435157.325    23435155.902    23435169.426
       215.000         158.000
  -2281097.79849  -1757692.69445  24541126.472    24541126.613    24541137.267
       217.000         153.000
  -8921880.86649  -6931725.29647  19863165.183    19863165.262    19863172.135
       238.000         207.000
 -20033813.06449 -15590269.17247  20132765.721    20132765.596    20132774.297
       240.000         206.000
   9236178.54549   7192762.59246  22317955.643    22317954.663    22317963.560
       231.000         185.000
  -6243645.49749  -4854415.11747  20850481.674    20850481.371    20850488.729
       244.000         208.000
 00  5 15 16 26 59.9980000  0  7G 5G 2G30G 4G24G 7G 9
 -18231352.08749 -14191691.69847  21385741.206    21385740.765    21385749.054
       235.000         193.000
  10572710.78049   8231503.55945  23450775.526    23450774.127    23450787.737
       213.000         154.000
  -2384685.56249  -1838410.36745  24521414.289    24521414.443    24521425.197
       217.000         151.000
  -8899118.07749  -6913988.07747  19867496.835    19867496.885    19867503.766
       239.000         207.000
 -20089023.26349 -15633290.06147  20122259.541    20122259.418    20122268.113
       241.000         207.000
   9296728.34249   7239944.16446  22329477.971    22329476.985    22329485.882
       231.000         184.000
  -6211280.03749  -4829195.32047  20856640.696    20856640.360    20856647.717
       244.000         208.000
 00  5 15 16 27 29.9980000  0  7G 5G 2G30G 4G24G 7G 9
 -18310859.87449 -14253645.78447  21370611.309    21370610.895    21370619.182
       234.000         193.000
  10654966.99049   8295598.95045  23466428.688    23466427.242    23466440.975
       212.000         154.000
  -2488359.17749  -1919195.00145  24501685.856    24501686.053    24501696.712
       216.000         148.000
  -8875836.52949  -6895846.63547  19871927.182    19871927.232    19871934.111
       239.000         208.000
 -20143776.80349 -15675955.11347  20111840.235    20111840.131    20111848.818
       240.000         207.000
   9357287.22549   7287132.81546  22341001.993    22341001.030    22341009.953
       231.000         184.000
  -6178437.09349  -4803603.46547  20862890.538    20862890.206    20862897.569
       244.000         208.000
 00  5 15 16 27 59.9980000  0  7G 5G 2G30G 4G24G 7G 9
 -18390170.03649 -14315445.87247  21355519.026    21355518.623    21355526.946
       234.000         193.000
  10737467.18849   8359884.47145  23482128.139    23482126.741    23482140.547
       211.000         153.000
  -2592055.64449  -1999997.42245  24481953.000    24481953.288    24481963.858
       209.000         147.000
  -8851975.96449  -6877254.00547  19876467.718    19876467.772    19876474.645
       239.000         208.000
 -20198010.90449 -15718215.40347  20101519.775    20101519.692    20101528.353
       240.000         206.000
   9417916.50349   7334376.31846  22352539.402    22352538.472    22352547.420
       230.000         183.000
  -6145056.64149  -4777592.77347  20869242.677    20869242.334    20869249.689
       244.000         208.000
 00  5 15 16 28 29.9980000  0  7G 5G 2G30G 4G24G 7G 9
 -18469279.17749 -14377089.32547  21340465.031    21340464.624    21340472.964
       235.000         194.000
  10820211.81349   8424360.44445  23497874.117    23497872.751    23497886.599
       211.000         154.000
  -2695772.10549  -2080815.41745  24462216.455    24462216.674    24462227.255
       210.000         147.000
  -8827536.67749  -6858210.42747  19881118.384    19881118.437    19881125.309
       239.000         208.000
 -20251722.76649 -15760068.75847  20091298.705    20091298.623    20091307.268
       240.000         206.000
   9478617.10449   7381675.39946  22364090.400    22364089.486    22364098.468
       230.000         183.000
  -6111138.64749  -4751163.21947  20875697.120    20875696.763    20875704.091
       245.000         208.000
 00  5 15 16 28 59.9980000  0  7G 5G 2G30G 4G24G 7G 9
 -18548202.20449 -14438587.75647  21325446.424    21325446.030    21325454.353
       235.000         193.000
  10903183.32849   8489013.23445  23513663.380    23513661.985    23513675.842
       213.000         154.000
  -2799524.16549  -2161661.10745  24442473.032    24442473.305    24442483.875
       208.000         145.000
  -8802536.76649  -6838729.99847  19885875.731    19885875.773    19885882.651
       239.000         208.000
 -20304928.15449 -15801527.46447  20081174.043    20081173.945    20081182.580
       240.000         206.000
   9539371.83749   7429016.65146  22375651.704    22375650.784    22375659.792
       229.000         182.000
  -6076701.54449  -4724329.16447  20882250.334    20882249.976    20882257.289
       244.000         207.000
 00  5 15 16 29 29.9980000  0  7G 5G 2G30G 4G24G 7G 9
 -18626913.45249 -14499921.16147  21310468.158    21310467.765    21310476.058
       235.000         193.000
  10986404.49749   8553860.55145  23529500.143    23529498.703    23529512.614
       210.000         152.000
  -2903286.68549  -2242514.97045  24422727.653    24422727.851    24422738.508
       208.000         147.000
  -8776954.15549  -6818795.51447  19890743.899    19890743.991    19890750.872
       239.000         207.000
 -20357601.97249 -15842571.95047  20071150.492    20071150.415    20071159.032
       240.000         205.000
   9600204.04749   7476418.27346  22387227.711    22387226.821    22387235.864
       229.000         182.000
  -6041723.11349  -4697073.30147  20888906.562    20888906.194    20888913.499
       244.000         207.000
 00  5 15 16 29 59.9980000  0  7G 5G 2G30G 4G24G 7G 9
 -18705401.34049 -14561080.52047  21295532.385    21295531.978    21295540.267
       235.000         193.000
  11069883.88249   8618909.04845  23545385.995    23545384.562    23545398.579
       210.000         148.000
  -3007048.91449  -2323368.60245  24402982.330    24402982.518    24402993.225
       209.000         145.000
  -8750780.70949  -6798400.63947  19895724.542    19895724.631    19895731.526
       240.000         207.000
 -20409733.79049 -15883194.10647  20061230.102    20061230.025    20061238.635
       240.000         205.000
   9661123.04249   7523887.51946  22398820.279    22398819.393    22398828.440
       229.000         182.000
  -6006195.44149  -4669389.45247  20895667.290    20895666.927    20895674.230
       244.000         207.000
 00  5 15 16 30 29.9980000  0  7G 5G 2G30G 4G24G 7G 9
 -18783688.39949 -14622083.39347  21280634.856    21280634.412    21280642.688
       235.000         193.000
  11153596.34649   8684139.13845  23561316.202    23561314.779    23561328.879
       210.000         152.000
  -3110833.68849  -2404239.79045  24383232.579    24383232.817    24383243.613
       208.000         145.000
  -8724042.38349  -6777565.60247  19900812.730    19900812.786    19900819.683
       239.000         208.000
 -20461346.77849 -15923411.98647  20051408.431    20051408.352    20051416.964
       239.000         205.000
   9722104.15049   7571405.15646  22410424.702    22410423.800    22410432.855
       229.000         181.000
  -5970144.54549  -4641297.91047  20902527.559    20902527.209    20902534.514
       243.000         206.000
 00  5 15 16 30 59.9980000  0  7G 5G 2G30G 4G24G 7G 9
 -18861746.23649 -14682907.64947  21265780.952    21265780.492    21265788.722
       235.000         194.000
  11237567.05449   8749570.45445  23577295.533    23577294.112    23577308.321
       211.000         150.000
  -3214613.48749  -2485107.11145  24363483.852    24363484.150    24363494.958
       198.000         146.000
  -8696714.34949  -6756271.04847  19906013.110    19906013.167    19906020.045
       239.000         208.000
 -20512413.41849 -15963204.13247  20041690.699    20041690.642    20041699.270
       239.000         205.000
   9783173.34149   7618991.43146  22422045.884    22422044.945    22422054.008
       228.000         181.000
  -5933545.65649  -4612779.35647  20909492.154    20909491.799    20909499.091
       244.000         207.000
 00  5 15 16 31 29.9980000  0  7G 5G 2G30G 4G24G 7G 9
 -18939608.80749 -14743579.74947  21250964.174    21250963.717    21250971.922
       236.000         194.000
  11321759.20349   8815174.34345  23593317.152    23593315.641    23593329.951
       205.000         152.000
  -3318422.72549  -2565997.36045  24343729.373    24343729.810    24343740.649
       205.000         144.000
  -8668834.17449  -6734546.25447  19911318.542    19911318.598    19911325.489
       240.000         208.000
 -20562968.60349 -16002597.74047  20032070.328    20032070.253    20032078.907
       240.000         205.000
   9844294.25149   7666618.01546  22433676.858    22433675.921    22433685.018
       228.000         180.000
  -5896436.66649  -4583863.31447  20916553.796    20916553.439    20916560.745
       244.000         206.000
 00  5 15 16 31 59.9980000  0  7G 5G 2G30G 4G24G 7G 9
 -19017256.54649 -14804084.45847  21236188.287    21236187.834    21236196.006
       236.000         194.000
  11406189.64049   8880963.90245  23609384.054    23609382.511    23609396.897
       203.000         150.000
  -3422242.34449  -2646895.68745  24323973.107    24323973.550    24323984.368
       201.000         145.000
  -8640385.87249  -6712378.76947  19916732.083    19916732.141    19916739.038
       239.000         208.000
 -20612993.67549 -16041578.28647  20022550.867    20022550.780    20022559.418
       239.000         205.000
   9905484.35249   7714298.50746  22445320.935    22445320.054    22445329.208
       227.000         180.000
  -5858801.25049  -4554537.08147  20923715.559    20923715.244    20923722.569
       243.000         206.000
 00  5 15 16 32 29.9980000  0  7G 5G 2G30G 4G24G 7G 9
 -19094687.94649 -14864420.58247  21221453.548    21221453.093    21221461.259
       235.000         194.000
  11490856.80349   8946937.85445  23625495.900    23625494.355    23625508.909
       209.000         152.000
  -3526071.56349  -2727801.50645  24304214.984    24304215.492    24304226.297
       205.000         145.000
  -8611371.57349  -6689770.24147  19922253.300    19922253.384    19922260.288
       239.000         207.000
 -20662488.31149 -16080145.49847  20013132.331    20013132.243    20013140.858
       239.000         205.000
   9966742.63849   7762032.12546  22456977.981    22456977.140    22456986.391
       227.000         180.000
  -5820641.82549  -4524802.52347  20930977.084    20930976.773    20930984.125
       243.000         207.000
 00  5 15 16 32 59.9980000  0  7G 5G 2G30G 4G24G 7G 9
 -19171921.36149 -14924602.44247  21206756.512    21206756.049    21206764.196
       236.000         194.000
  11575739.44249   9013079.76545  23641648.837    23641647.252    23641661.925
       207.000         150.000
  -3629929.52949  -2808729.72445  24284451.556    24284451.911    24284462.793
       206.000         147.000
  -8581813.29649  -6666737.83247  19927878.060    19927878.164    19927885.059
       240.000         208.000
 -20711471.59049 -16118314.25747  20003811.101    20003811.009    20003819.621
       240.000         205.000
  10028048.56649   7809802.87346  22468644.170    22468643.340    22468652.629
       227.000         181.000
  -5781980.00149  -4494676.49247  20938334.230    20938333.902    20938341.272
       244.000         207.000
 00  5 15 16 33 29.9980000  0  7G 5G 2G30G 4G24G 7G 9
 -19248956.59049 -14984629.87447  21192097.227    21192096.739    21192104.830
       236.000         194.000
  11660834.82949   9079387.45545  23657842.250    23657840.677    23657855.360
       206.000         153.000
  -3733816.31049  -2889680.40645  24264682.629    24264682.917    24264693.788
       211.000         147.000
  -8551714.34449  -6643284.12147  19933605.743    19933605.828    19933612.723
       240.000         208.000
 -20759944.33549 -16156085.19647  19994587.087    19994586.953    19994595.527
       239.000         205.000
  10089400.11649   7857609.17046  22480319.106    22480318.219    22480327.559
       227.000         180.000
  -5742819.47549  -4464161.85647  20945786.295    20945785.951    20945793.324
       244.000         206.000
 00  5 15 16 33 59.9980000  0  7G 5G 2G30G 4G24G 7G 9
 -19325814.68049 -15044519.26747  21177471.586    21177471.096    21177479.174
       237.000         194.000
  11746118.63449   9145841.92745  23674071.470    23674069.917    23674084.727
       206.000         148.000
  -3837753.59549  -2970670.44845  24244904.094    24244904.333    24244915.121
       210.000         147.000
  -8521099.57749  -6619428.47647  19939431.549    19939431.635    19939438.534
       240.000         208.000
 -20807928.83149 -16193475.68147  19985455.932    19985455.789    19985464.343
       240.000         205.000
  10150773.77949   7905432.69946  22491998.239    22491997.327    22492006.697
       227.000         180.000
  -5703185.09449  -4433277.98247  20953328.530    20953328.158    20953335.556
       244.000         206.000
 00  5 15 16 34 29.9980000  0  7G 5G 2G30G 4G24G 7G 9
 -19402518.29849 -15104288.30147  21162875.348    21162874.854    21162882.904
       237.000         195.000
  11831565.31949   9212423.30245  23690331.713    23690330.128    23690345.099
       208.000         150.000
  -3941764.97049  -3051718.22745  24225111.476    24225111.646    24225122.395
       205.000         146.000
  -8489995.48449  -6595191.54147  19945350.491    19945350.567    19945357.483
       241.000         208.000
 -20855448.73049 -16230504.14547  19976413.226    19976413.034    19976421.563
       240.000         205.000
  10212144.50749   7953253.92846  22503676.759    22503675.866    22503685.253
       228.000         181.000
  -5663103.23649  -4402045.42947  20960955.895    20960955.523    20960962.948
       244.000         206.000
 00  5 15 16 34 59.9980000  0  7G 5G 2G30G 4G24G 7G 9
 -19479007.43749 -15163890.20947  21148319.945    21148319.437    21148327.470
       236.000         195.000
  11917231.94449   9279176.10345  23706633.840    23706632.267    23706647.239
       208.000         149.000
  -4045790.56549  -3132777.05545  24205316.032    24205316.163    24205326.994
       204.000         148.000
  -8458345.68149  -6570529.37847  19951373.296    19951373.345    19951380.249
       240.000         208.000
 -20902445.02449 -16267124.60847  19967470.060    19967469.911    19967478.425
       239.000         204.000
  10273570.18549   8001117.99346  22515365.822    22515364.868    22515374.256
       228.000         180.000
  -5622517.75649  -4370420.44147  20968679.107    20968678.726    20968686.179
       244.000         206.000
 00  5 15 16 35 29.9980000  0  7G 5G 2G30G 4G24G 7G 9
 -19555305.62249 -15223343.32847  21133800.874    21133800.376    21133808.376
       237.000         195.000
  12003092.05349   9346079.66645  23722972.858    23722971.184    23722986.277
       207.000         147.000
  -4149854.62349  -3213865.86245  24185513.269    24185513.397    24185524.245
       207.000         148.000
  -8426177.27849  -6545463.11547  19957494.755    19957494.799    19957501.695
       240.000         208.000
 -20948942.39349 -16303356.30147  19958621.832    19958621.703    19958630.232
       239.000         204.000
  10335024.98149   8049004.73846  22527060.374    22527059.408    22527068.805
       227.000         180.000
  -5581455.92849  -4338424.27347  20976492.970    20976492.578    20976500.045
       243.000         205.000
 00  5 15 16 35 59.9980000  0  7G 5G 2G30G 4G24G 7G 9
 -19631365.25849 -15282610.55247  21119327.189    21119326.688    21119334.692
       238.000         196.000
  12089190.14749   9413168.61145  23739357.111    23739355.371    23739370.697
       211.000         147.000
  -4253910.28549  -3294948.13545  24165712.143    24165712.280    24165723.067
       213.000         151.000
  -8393446.72849  -6519958.80947  19963723.173    19963723.219    19963730.124
       240.000         208.000
 -20994894.43149 -16339163.05947  19949877.433    19949877.307    19949885.813
       240.000         205.000
  10396554.04949   8096949.36046  22538769.021    22538768.076    22538777.503
       227.000         180.000
  -5539874.08449  -4306022.89147  20984405.745    20984405.377    20984412.847
       244.000         205.000
 00  5 15 16 36 29.9980000  0  7G 5G 2G30G 4G24G 7G 9
 -19707199.68949 -15341702.29947  21104896.419    21104895.875    21104903.879
       238.000         197.000
  12175509.91849   9480430.32945  23755783.575    23755781.820    23755797.199
       212.000         149.000
  -4357971.25149  -3376034.54345  24145909.885    24145910.103    24145920.885
       211.000         150.000
  -8360170.97249  -6494029.67047  19970055.385    19970055.415    19970062.312
       241.000         208.000
 -21040315.41049 -16374556.00547  19941234.118    19941233.969    19941242.453
       240.000         205.000
  10458142.04749   8144939.89246  22550488.927    22550487.963    22550497.425
       227.000         181.000
  -5497789.15549  -4273229.50347  20992414.284    20992413.907    20992421.391
       243.000         205.000
 00  5 15 16 36 59.9980000  0  7G 5G 2G30G 4G24G 7G 9
 -19782797.17749 -15400609.41247  21090510.696    21090510.159    21090518.141
       237.000         197.000
  12262059.91849   9547871.40545  23772253.841    23772252.061    23772267.500
       212.000         144.000
  -4462026.08349  -3457116.17045  24126108.779    24126109.045    24126119.870
       218.000         152.000
  -8326341.96249  -6467669.42647  19976492.883    19976492.889    19976499.788
       241.000         209.000
 -21085194.93049 -16409527.04147  19932693.845    19932693.677    19932702.141
       239.000         205.000
  10519798.41349   8192983.69946  22562221.875    22562220.886    22562230.372
       229.000         180.000
  -5455193.06949  -4240037.80947  21000520.129    21000519.721    21000527.223
       242.000         205.000
 00  5 15 16 37 29.9980000  0  7G 5G 2G30G 4G24G 7G 9
 -19858191.51949 -15459358.23547  21076163.614    21076163.064    21076171.076
       237.000         197.000
  12348803.20149   9615463.10745  23788760.808    23788759.102    23788774.692
       206.000         141.000
  -4566109.27749  -3538219.90845  24106302.347    24106302.612    24106313.456
       215.000         152.000
  -8291997.34849  -6440907.41547  19983028.466    19983028.473    19983035.362
       240.000         208.000
 -21129568.02949 -16444103.46047  19924249.923    19924249.751    19924258.213
       239.000         205.000
  10581486.95949   8241052.57846  22573960.939    22573959.930    22573969.432
       226.000         179.000
  -5412123.88349  -4206477.47047  21008715.978    21008715.554    21008723.095
       242.000         205.000
 00  5 15 16 37 59.9980000  0  7G 5G 2G30G 4G24G 7G 9
 -19933359.64449 -15517930.77747  21061859.540    21061859.020    21061867.041
       238.000         197.000
  12435759.88649   9683221.14745  23805308.395    23805306.790    23805322.270
       203.000         143.000
  -4670198.38449  -3619328.25445  24086494.759    24086495.061    24086505.849
       214.000         152.000
  -8257118.27049  -6413728.93447  19989665.717    19989665.757    19989672.636
       242.000         208.000
 -21173412.59949 -16478268.03947  19915906.572    19915906.403    19915914.841
       241.000         205.000
  10643228.48549   8289162.75346  22585710.056    22585709.040    22585718.571
       228.000         179.000
  -5368562.43249  -4172533.54347  21017005.485    21017005.072    21017012.618
       243.000         204.000
 00  5 15 16 38 29.9980000  0  7G 5G 2G30G 4G24G 7G 9
 -20008289.51849 -15576317.66847  21047600.843    21047600.328    21047608.349
       239.000         197.000
  12522938.76349   9751152.21145  23821898.394    23821896.622    23821912.329
       210.000         141.000
  -4774282.08549  -3700432.36445  24066688.123    24066688.459    24066699.304
       220.000         154.000
  -8221696.37649  -6386127.49247  19996406.282    19996406.331    19996413.223
       242.000         209.000
 -21216718.34549 -16512012.76247  19907665.778    19907665.598    19907674.002
       241.000         205.000
  10705032.74749   8337321.79846  22597471.102    22597470.094    22597479.624
       228.000         178.000
  -5324500.56149  -4138199.68947  21025390.224    21025389.815    21025397.363
       243.000         204.000
 00  5 15 16 38 59.9980000  0  7G 5G 2G30G 4G24G 7G 9
 -20082995.82549 -15634530.35547  21033384.675    21033384.173    21033392.202
       238.000         197.000
  12610322.13549   9819242.64645  23838527.273    23838525.459    23838541.288
       212.000         148.000
  -4878375.17049  -3781543.80845  24046879.817    24046880.186    24046890.968
       216.000         155.000
  -8185750.44549  -6358117.70547  20003246.587    20003246.631    20003253.531
       242.000         209.000
 -21259500.97349 -16545349.85847  19899524.511    19899524.324    19899532.723
       240.000         206.000
  10766882.73849   8385516.48646  22609240.829    22609239.829    22609249.389
       226.000         177.000
  -5279956.92949  -4103490.43547  21033866.591    21033866.222    21033873.792
       242.000         204.000
 00  5 15 16 39 29.9980000  0  8G 5G 2G30G 4G24G 7G 9G16
 -20157465.85949 -15692558.93747  21019213.472    21019212.976    21019220.987
       237.000         197.000
  12697919.60549   9887499.96945  23855196.768    23855194.928    23855210.937
       208.000         139.000
  -4982465.85349  -3862653.39245  24027071.965    24027072.360    24027083.042
       215.000         153.000
  -8149271.38649  -6329692.49947  20010188.347    20010188.382    20010195.283
       240.000         209.000
 -21301749.19949 -16578270.53947  19891484.932    19891484.738    19891493.118
       239.000         205.000
  10828788.86849   8433754.90746  22621021.200    22621020.233    22621029.825
       224.000         176.000
  -5234922.88449  -4068399.04447  21042436.327    21042435.955    21042443.548
       241.000         204.000
  -6654755.18059  -5000189.06955  23758306.067    23758305.005    23758316.806
       209.000         159.000
 00  5 15 16 39 59.9980000  0  8G 5G 2G30G 4G24G 7G 9G16
 -20231710.37549 -15750411.79547  21005085.180    21005084.695    21005092.673
       238.000         198.000
  12785717.43449   9955913.37145  23871904.512    23871902.706    23871918.811
       202.000         138.000
  -5086565.13249  -3943769.66745  24007262.433    24007262.854    24007273.464
       221.000         153.000
  -8112274.04749  -6300863.44447  20017228.716    20017228.766    20017235.664
       242.000         209.000
 -21343475.24149 -16610784.31947  19883544.685    19883544.510    19883552.888
       240.000         205.000
  10890738.16149   8482026.96646  22632809.759    22632808.836    22632818.485
       225.000         175.000
  -5189413.10549  -4032936.95247  21051096.610    21051096.225    21051103.832
       243.000         204.000
  -6647384.56349  -4994445.72045  23759708.603    23759707.613    23759719.269
       217.000         159.000
 00  5 15 16 40 29.9980000  0  8G 5G 2G30G 4G24G 7G 9G16
 -20305722.42849 -15808083.50347  20991001.069    20991000.639    20991008.629
       237.000         197.000
  12873719.37449  10024485.84745  23888651.215    23888649.260    23888665.431
       207.000         143.000
  -5190666.50749  -4024887.58345  23987452.524    23987452.972    23987463.532
       219.000         151.000
  -8074755.27849  -6271628.07147  20024368.298    20024368.369    20024375.269
       241.000         208.000
 -21384673.08049 -16642886.51547  19875704.956    19875704.801    19875713.162
       239.000         205.000
  10952735.52649   8530336.48946  22644607.572    22644606.617    22644616.289
       223.000         175.000
  -5143424.39749  -3997101.66247  21059848.025    21059847.625    21059855.261
       241.000         204.000
  -6639468.59949  -4988277.42445  23761214.759    23761213.911    23761225.660
       208.000         158.000
 00  5 15 16 40 59.9980000  0  8G 5G 2G30G 4G24G 7G 9G16
 -20379461.06049 -15865542.17147  20976969.019    20976968.613    20976976.607
       238.000         197.000
  12961963.29849  10093246.77645  23905443.778    23905441.869    23905458.213
       204.000         138.000
  -5294729.73349  -4105975.76245  23967649.866    23967650.339    23967660.862
       218.000         149.000
  -8036678.34049  -6241957.76747  20031614.106    20031614.194    20031621.075
       241.000         208.000
 -21425303.41549 -16674546.50247  19867973.208    19867973.077    19867981.448
       238.000         205.000
  11014819.39449   8578713.40546  22656421.808    22656420.860    22656430.565
       223.000         174.000
  -5096920.11049  -3960864.62647  21068697.518    21068697.142    21068704.796
       242.000         204.000
  -6630968.61949  -4981654.06145  23762831.999    23762831.304    23762843.327
       207.000         160.000
 00  5 15 16 41 29.9980000  0  8G 5G 2G30G 4G24G 7G 9G16
 -20452970.84649 -15922822.51147  20962980.529    20962980.118    20962988.138
       239.000         197.000
  13050401.12949  10162158.90945  23922273.320    23922271.480    23922287.734
       202.000         138.000
  -5398800.07249  -4187069.50145  23947845.892    23947846.363    23947856.749
       219.000         150.000
  -7998091.65049  -6211890.25947  20038956.916    20038957.009    20038963.905
       241.000         208.000
 -21465412.36549 -16705800.21347  19860340.661    19860340.559    19860348.963
       239.000         204.000
  11076942.79349   8627121.12946  22668243.566    22668242.604    22668252.349
       223.000         174.000
  -5049948.87049  -3924263.73247  21077635.838    21077635.501    21077643.196
       242.000         204.000
  -6621930.99749  -4974611.74145  23764551.893    23764551.205    23764563.225
       207.000         160.000
 00  5 15 16 41 59.9980000  0  8G 5G 2G30G 4G24G 7G 9G16
 -20526234.92149 -15979911.38447  20949038.755    20949038.396    20949046.440
       238.000         197.000
  13139046.34149  10231232.52345  23939142.454    23939140.505    23939156.870
       200.000         142.000
  -5502860.97549  -4268155.85545  23928043.686    23928044.189    23928054.547
       219.000         149.000
  -7958982.69549  -6181415.79147  20046399.093    20046399.191    20046406.118
       241.000         208.000
 -21504984.35149 -16736635.51247  19852810.307    19852810.223    19852818.635
       238.000         204.000
  11139120.50849   8675571.16846  22680075.564    22680074.713    22680084.498
       222.000         174.000
  -5002497.92549  -3887289.04547  21086665.474    21086665.150    21086672.863
       241.000         204.000
      3505.62853                  23766374.769
       213.000          74.000
 00  5 15 16 42 29.9980000  0  8G 5G 2G30G 4G24G 7G 9G16
 -20599244.54849 -16036801.97547  20935145.463    20935145.093    20935153.144
       237.000         197.000
  13227904.81349  10300472.36645  23956051.966    23956050.097    23956066.538
       201.000         142.000
  -5606904.12549  -4349228.37545  23908244.911    23908245.388    23908255.673
       217.000         151.000
  -7919346.40449  -6150530.40947  20053941.627    20053941.744    20053948.685
       240.000         208.000
 -21544012.39649 -16767046.95347  19845383.456    19845383.409    19845391.809
       238.000         204.000
  11201358.87849   8724068.48246  22691919.140    22691918.316    22691928.184
       222.000         174.000
  -4954562.86849  -3849937.12447  21095787.239    21095786.935    21095794.675
       241.000         204.000
     11414.11045                  23768307.447
       217.000         162.000
 00  5 15 16 42 59.9980000  0  8G 5G 2G30G 4G24G 7G 9G16
 -20672005.42949 -16093498.75647  20921299.470    20921299.125    20921307.171
       238.000         197.000
  13316967.56949  10369871.37845  23973000.321    23972998.518    23973015.150
       199.000         141.000
  -5710935.67549  -4430291.88445  23888448.305    23888448.801    23888459.030
       217.000         149.000
  -7879192.81149  -6119241.94447  20061582.612    20061582.739    20061589.677
       241.000         208.000
 -21582503.43949 -16797039.96047  19838058.860    19838058.794    19838067.170
       238.000         204.000
  11263650.08349   8772606.95146  22703772.766    22703772.019    22703781.940
       222.000         174.000
  -4906153.34649  -3812215.50547  21104999.295    21104999.010    21105006.763
       241.000         204.000
     27422.95749     19753.22245  23770344.207    23770343.478    23770357.871
       210.000         159.000
 00  5 15 16 43 29.9980000  0  8G 5G 2G30G 4G24G 7G 9G16
 -20744539.56649 -16150018.84347  20907496.610    20907496.297    20907504.362
       239.000         197.000
  13406209.37049  10439409.91445  23989982.852    23989981.065    23989997.751
       200.000         146.000
  -5814978.20949  -4511363.94145  23868649.637    23868650.154    23868660.351
       221.000         149.000
  -7838547.77249  -6087570.52247  20069317.125    20069317.264    20069324.188
       242.000         208.000
 -21620481.02749 -16826632.86047  19830831.955    19830831.880    19830840.249
       239.000         203.000
  11325969.79349   8821167.64046  22715631.902    22715631.150    22715641.101
       223.000         174.000
  -4857295.52249  -3774144.54647  21114296.664    21114296.387    21114304.180
       242.000         203.000
     38652.84959     28503.77655  23772480.680    23772479.067    23772491.824
       207.000         154.000
 00  5 15 16 43 59.9980000  0  8G 5G 2G30G 4G24G10G 7G 9
 -20816824.95949 -16206345.11447  20893741.151    20893740.820    20893748.883
       237.000         197.000
  13495648.89149  10509102.43645  24007002.950    24007001.170    24007018.013
       205.000         143.000
  -5919010.29849  -4592427.88045  23848853.019    23848853.519    23848863.640
       216.000         150.000
  -7797393.51449  -6055502.31347  20077148.523    20077148.674    20077155.614
       241.000         207.000
 -21657924.67449 -16855809.71147  19823706.611    19823706.568    19823714.939
       237.000         203.000
   -320031.08459   -224925.61655  24358599.403    24358598.506    24358618.649
       208.000         144.000
  11388337.71449   8869765.90446  22727500.254    22727499.465    22727509.439
       221.000         173.000
  -4807971.42549  -3735710.25947  21123682.778    21123682.500    21123690.312
       241.000         203.000
 00  5 15 16 44 29.9980000  0  9G 5G 2G30G 4G24G10G 7G 9G16
 -20888844.65349 -16262464.34047  20880036.274    20880035.906    20880043.988
       238.000         197.000
  13585299.63449  10578959.69945  24024063.313    24024061.507    24024078.352
       200.000         147.000
  -6023015.30249  -4673470.68545  23829061.524    23829062.026    23829072.067
       222.000         151.000
  -7755717.31349  -6023027.39847  20085079.273    20085079.411    20085086.361
       242.000         207.000
 -21694819.09049 -16884558.59347  19816685.800    19816685.770    19816694.159
       238.000         203.000
   -421137.04749   -303709.14745  24339359.510    24339358.294    24339378.332
       207.000         144.000
  11450768.51149   8918413.14546  22739380.510    22739379.691    22739389.743
       223.000         174.000
  -4758168.52749  -3696902.89247  21133160.009    21133159.735    21133167.544
       242.000         203.000
      4494.41453                  23777069.170
       208.000          74.000
 00  5 15 16 44 59.9980000  0  9G 5G 2G30G 4G24G10G 7G 9G16
 -20960604.69649 -16318381.24547  20866380.796    20866380.419    20866388.480
       238.000         197.000
  13675152.59949  10648974.40645  24041162.231    24041160.390    24041177.404
       209.000         152.000
  -6126999.58949  -4754497.34245  23809273.946    23809274.376    23809284.462
       220.000         153.000
  -7713529.16649  -5990153.56347  20093107.451    20093107.563    20093114.541
       240.000         207.000
 -21731171.95449 -16912885.48547  19809768.076    19809768.028    19809776.418
       237.000         203.000
   -522351.56159   -382577.28655  24320098.975    24320098.573    24320118.046
       209.000         145.000
  11513254.13549   8967103.11746  22751271.191    22751270.389    22751280.510
       221.000         175.000
  -4707896.90449  -3657730.28347  21142726.470    21142726.170    21142733.989
       241.000         202.000
       627.69453                  23779523.676
       213.000          74.000
 00  5 15 16 45 29.9980000  0  9G 5G 2G30G 4G24G10G 7G 9G16
 -21032091.86149 -16374085.51547  20852777.248    20852776.847    20852784.904
       238.000         197.000
  13765217.83349  10719154.56845  24058301.439    24058299.587    24058316.764
       208.000         150.000
  -6230950.32149  -4835497.85245  23789492.669    23789493.175    23789503.237
       218.000         153.000
  -7670819.90549  -5956873.66347  20101234.749    20101234.889    20101241.866
       241.000         206.000
 -21766971.33149 -16940781.08147  19802955.676    19802955.618    19802963.996
       238.000         203.000
   -623660.60849   -461519.07645  24300820.345    24300819.495    24300839.441
       208.000         145.000
  11575805.46649   9015844.29046  22763174.441    22763173.598    22763183.750
       223.000         174.000
  -4657147.27849  -3618185.19547  21152383.875    21152383.568    21152391.395
       241.000         202.000
     11117.28845                  23782085.564
       210.000         146.000
 00  5 15 16 45 59.9980000  0  9G 5G 2G30G 4G24G10G 7G 9G16
 -21103322.44849 -16429589.84647  20839222.456    20839222.088    20839230.150
       236.000         197.000
  13855475.73149  10789484.83545  24075477.340    24075475.496    24075492.817
       209.000         154.000
  -6334884.46349  -4916485.48445  23769714.669    23769715.104    23769725.160
       215.000         151.000
  -7627610.27449  -5923203.86847  20109457.287    20109457.424    20109464.418
       240.000         206.000
 -21802235.58949 -16968259.69647  19796245.097    19796245.052    19796253.412
       237.000         203.000
   -725079.96949   -540546.87445  24281520.722    24281519.877    24281539.697
       206.000         148.000
  11638403.87349   9064622.14346  22775086.595    22775085.762    22775095.978
       222.000         174.000
  -4605940.47649  -3578283.87347  21162128.231    21162127.938    21162135.777
       240.000         202.000
     22034.16345                  23784752.357                    23784765.526
       209.000         158.000
 00  5 15 16 46 29.9980000  0  9G 5G 2G30G 4G24G10G 7G 9G16
 -21174279.68049 -16484881.18247  20825719.772    20825719.379    20825727.404
       237.000         197.000
  13945939.63849  10859975.63845  24092692.390    24092690.570    24092708.066
       207.000         148.000
  -6438785.50849  -4997447.23645  23749942.919    23749943.322    23749953.411
       215.000         154.000
  -7583887.36149  -5889134.11447  20117777.507    20117777.648    20117784.627
       240.000         206.000
 -21836949.40849 -16995309.41347  19789639.270    19789639.212    19789647.576
       237.000         203.000
   -826592.39649   -619647.12345  24262203.371    24262202.496    24262222.400
       209.000         148.000
  11701063.80549   9113447.93546  22787010.514    22787009.673    22787019.900
       222.000         174.000
  -4554264.17149  -3538016.70647  21171961.983    21171961.667    21171969.533
       241.000         202.000
     46510.05449     33389.29345  23787525.132    23787524.022    23787536.787
       209.000         156.000
 00  5 15 16 46 59.9980000  0  9G 5G 2G30G 4G24G10G 7G 9G16
 -21244946.55249 -16539946.26047  20812272.319    20812271.909    20812279.916
       236.000         196.000
  14036623.33049  10930637.68345  24109949.272    24109947.489    24109965.124
       202.000         152.000
  -6542637.29149  -5078370.62645  23730180.495    23730180.953    23730191.041
       215.000         154.000
  -7539638.68749  -5854654.67647  20126197.766    20126197.919    20126204.905
       240.000         206.000
 -21871097.58849 -17021918.36947  19783141.090    19783141.030    19783149.366
       236.000         202.000
   -928180.10649   -698806.09545  24242871.720    24242870.886    24242890.758
       209.000         149.000
  11763800.13349   9162333.26046  22798948.944    22798948.103    22798958.385
       223.000         175.000
  -4502105.52849  -3497373.69547  21181887.505    21181887.183    21181895.067
       240.000         201.000
     61659.66659     45194.21755  23790408.331    23790409.073    23790419.085
       212.000         158.000
 00  5 15 16 47 29.9980000  0  9G 5G 2G30G 4G24G10G 7G 9G16
 -21315285.93849 -16594756.15647  20798887.156    20798886.767    20798894.775
       237.000         196.000
  14127560.72149  11001497.42745  24127254.441    24127252.657    24127270.476
       207.000         152.000
  -6646402.69049  -5159226.73945  23710434.563    23710434.992    23710445.031
       218.000         153.000
  -7494831.18049  -5819739.78047  20134724.392    20134724.533    20134731.529
       240.000         206.000
 -21904644.71049 -17048058.96347  19776757.246    19776757.196    19776765.542
       236.000         202.000
  -1029805.03749   -777993.99645  24223532.915    24223532.166    24223552.019
       211.000         152.000
  11826647.80749   9211305.34546  22810908.517    22810907.710    22810918.033
       223.000         174.000
  -4449431.56249  -3456329.13147  21191911.036    21191910.754    21191918.644
       240.000         201.000
     77421.36649     57476.08845  23793407.904    23793408.290    23793419.187
       212.000         160.000
 00  5 15 16 47 59.9980000  0  9G 5G 2G30G 4G24G10G 7G 9G16
 -21385366.75849 -16649364.56947  20785551.207    20785550.824    20785558.825
       237.000         197.000
  14218679.54849  11072498.50645  24144594.197    24144592.422    24144610.426
       209.000         151.000
  -6750151.23349  -5240069.70845  23690691.759    23690692.244    23690702.313
       217.000         153.000
  -7449538.10649  -5784446.52647  20143343.415    20143343.546    20143350.554
       240.000         206.000
 -21937661.43549 -17073786.26647  19770474.331    19770474.290    19770482.647
       236.000         202.000
  -1131535.57549   -857264.21645  24204174.031    24204173.379    24204193.219
       208.000         149.000
  11889535.55149   9260308.65146  22822875.760    22822874.939    22822885.278
       223.000         175.000
  -4396315.71049  -3414940.24647  21202018.704    21202018.406    21202026.302
       240.000         201.000
     93724.28849     70179.67945  23796509.878    23796509.843    23796521.617
       213.000         157.000
 00  5 15 16 48 29.9980000  0  9G 5G 2G30G 4G24G10G 7G 9G16
 -21455148.20549 -16703739.71147  20772272.226    20772271.840    20772279.828
       237.000         197.000
  14310016.98949  11143669.96245  24161975.620    24161973.850    24161991.844
       202.000         148.000
  -6853842.42849  -5320867.99545  23670959.909    23670960.376    23670970.473
       215.000         155.000
  -7403722.85649  -5748746.37447  20152061.778    20152061.926    20152068.944
       239.000         205.000
 -21970108.71549 -17099069.84747  19764299.771    19764299.754    19764308.122
       235.000         202.000
  -1233330.35849   -936584.48045  24184802.917    24184802.368    24184822.191
       210.000         154.000
  11952501.79749   9309373.14246  22834857.902    22834857.107    22834867.493
       222.000         175.000
  -4342721.46049  -3373178.57747  21212217.370    21212217.101    21212225.006
       240.000         201.000
    110606.81549     83334.91545  23799722.612    23799722.539    23799734.180
       207.000         157.000
 00  5 15 16 48 59.9980000  0  9G 5G 2G30G 4G24G10G 7G 9G16
 -21524626.35249 -16757878.51547  20759050.985    20759050.591    20759058.554
       236.000         196.000
  14401573.88549  11215012.37145  24179398.804    24179396.987    24179415.095
       207.000         150.000
  -6957472.98249  -5401619.03545  23651239.635    23651240.072    23651250.182
       216.000         153.000
  -7357385.69349  -5712639.53447  20160879.464    20160879.624    20160886.655
       240.000         205.000
 -22001984.38049 -17123908.02047  19758234.040    19758234.022    19758242.373
       236.000         202.000
  -1335184.54649  -1015951.01645  24165420.458    24165420.033    24165439.870
       208.000         149.000
  12015548.52449   9358500.33746  22846855.359    22846854.598    22846865.024
       222.000         175.000
  -4288649.10149  -3331044.36447  21222507.043    21222506.786    21222514.727
       240.000         201.000
    128070.91249     96943.33045  23803045.877    23803045.734    23803057.746
       210.000         157.000
 00  5 15 16 49 29.9980000  0  9G 5G 2G30G 4G24G10G 7G 9G16
 -21593789.39549 -16811771.78547  20745889.666    20745889.276    20745897.235
       237.000         197.000
  14493358.35949  11286532.14845  24196865.321    24196863.437    24196881.693
       209.000         150.000
  -7061031.41949  -5482313.86645  23631533.110    23631533.519    23631543.612
       214.000         154.000
  -7310519.32149  -5676120.33047  20169797.877    20169798.024    20169805.067
       240.000         205.000
 -22033278.79549 -17148293.26547  19752278.925    19752278.874    19752287.241
       236.000         202.000
  -1437086.01149  -1095354.40045  24146029.057    24146028.656    24146048.483
       211.000         151.000
  12078684.98849   9407697.45246  22858869.938    22858869.171    22858879.651
       222.000         173.000
  -4234091.06049  -3288531.70247  21232889.185    21232888.901    21232896.870
       240.000         201.000
    146125.57249    111011.85645  23806481.292    23806481.135    23806493.695
       214.000         157.000
 00  5 15 16 49 59.9980000  0  9G 5G 2G30G 4G24G10G 7G 9G16
 -21662657.69849 -16865435.38047  20732784.453    20732784.060    20732792.010
       237.000         197.000
  14585347.10949  11358211.10345  24214370.723    24214368.764    24214387.116
       208.000         146.000
  -7164538.56749  -5562968.72745  23611836.242    23611836.687    23611846.776
       212.000         151.000
  -7263148.15249  -5639207.76647  20178812.340    20178812.484    20178819.554
       240.000         204.000
 -22064013.81749 -17172242.61947  19746430.238    19746430.193    19746438.542
       235.000         201.000
  -1539054.05949  -1174809.65645  24126624.921    24126624.616    24126644.386
       206.000         151.000
  12141888.80149   9456947.05746  22870897.402    22870896.573    22870907.051
       222.000         172.000
  -4179072.25949  -3245659.99647  21243358.982    21243358.703    21243366.681
       240.000         201.000
    164748.52649    125523.29945  23810025.230    23810024.951    23810037.503
       214.000         157.000
 00  5 15 16 50 29.9980000  0  9G 5G 2G30G 4G24G10G 7G 9G16
 -21731243.96849 -16918879.20747  20719732.896    20719732.505    20719740.454
       237.000         197.000
  14677524.16249  11430036.69645  24231911.928    24231909.914    24231928.419
       210.000         147.000
  -7268006.85949  -5643593.31645  23592146.820    23592147.250    23592157.416
       209.000         152.000
  -7215289.12149  -5601915.06147  20187919.634    20187919.785    20187926.866
       240.000         204.000
 -22094203.90349 -17195767.35447  19740685.248    19740685.198    19740693.541
       235.000         201.000
  -1641100.56749  -1254326.04445  24107205.791    24107205.574    24107225.365
       207.000         149.000
  12205145.33949   9506237.73446  22882934.884    22882934.003    22882944.485
       222.000         173.000
  -4123609.59549  -3202442.43547  21253913.242    21253912.950    21253920.971
       240.000         202.000
    183925.21949    140466.18545  23813674.868    23813674.372    23813686.739
       216.000         159.000
 00  5 15 16 50 59.9980000  0  9G 5G 2G30G 4G24G10G 7G 9G16
 -21799529.19249 -16972088.45247  20706738.656    20706738.269    20706746.189
       237.000         197.000
  14769904.71949  11502020.98245  24249491.859    24249489.894    24249508.412
       207.000         143.000
  -7371418.16749  -5724173.48545  23572468.215    23572468.650    23572478.830
       217.000         154.000
  -7166927.71049  -5564230.87947  20197122.527    20197122.681    20197129.777
       240.000         204.000
 -22123832.19549 -17218854.31947  19735047.153    19735047.114    19735055.444
       234.000         201.000
  -1743206.23049  -1333888.53745  24087775.431    24087775.262    24087795.038
       207.000         149.000
  12268470.87849   9555582.18346  22894985.425    22894984.567    22894995.049
       221.000         172.000
  -4067688.86049  -3158867.92547  21264554.685    21264554.386    21264562.436
       240.000         202.000
    203671.49649    155852.92745  23817432.563    23817431.966    23817444.003
       215.000         155.000
 00  5 15 16 51 29.9980000  0  9G 5G 2G30G 4G24G10G 7G 9G16
 -21867498.52749 -17025051.55447  20693804.505    20693804.114    20693812.017
       237.000         197.000
  14862500.19449  11574172.64045  24267112.643    24267110.647    24267129.311
       207.000         148.000
  -7474758.01049  -5804697.97845  23552803.257    23552803.673    23552813.842
       215.000         154.000
  -7118053.52249  -5526147.14047  20206422.993    20206423.144    20206430.250
       239.000         204.000
 -22152885.62749 -17241493.35347  19729518.423    19729518.413    19729526.755
       234.000         201.000
  -1845355.09149  -1413484.66345  24068336.841    24068336.697    24068356.485
       206.000         148.000
  12331878.28949   9604990.42046  22907051.561    22907050.687    22907061.187
       220.000         172.000
  -4011299.51649  -3114928.27547  21275285.284    21275284.987    21275293.085
       240.000         201.000
    224000.21349    171693.49445  23821300.866    23821300.396    23821312.386
       213.000         157.000
 00  5 15 16 51 59.9980000  0  9G 5G 2G30G 4G24G10G 7G 9G16
 -21935145.81849 -17077763.70947  20680931.640    20680931.241    20680939.133
       236.000         197.000
  14955313.58349  11646494.12144  24284774.868    24284772.980    24284791.713
       196.000         124.000
  -7578020.40649  -5885162.12845  23533152.975    23533153.456    23533163.525
       212.000         153.000
  -7068664.58549  -5487662.28947  20215821.429    20215821.585    20215828.686
       240.000         204.000
 -22181360.05549 -17263681.20547  19724099.903    19724099.890    19724108.229
       235.000         201.000
  -1947540.33649  -1493109.17045  24048891.315    24048891.248    24048911.053
       202.000         146.000
  12395371.58649   9654465.58846  22919133.978    22919133.155    22919143.697
       220.000         171.000
  -3954439.56749  -3070621.91047  21286105.407    21286105.124    21286113.276
       240.000         201.000
    244914.92249    187990.68545  23825280.862    23825280.319    23825292.360
       210.000         158.000
 00  5 15 16 52 29.9980000  0  9G 5G 2G30G 4G24G10G 7G 9G16
 -22002476.73949 -17130229.34547  20668118.985    20668118.587    20668126.449
       236.000         197.000
                  11718978.45354  24302476.877                    24302493.920
       176.000          98.000
  -7681211.31749  -5965570.55145  23513516.327    23513516.855    23513526.975
       213.000         155.000
  -7018770.85349  -5448784.09347  20225315.950    20225316.086    20225323.190
       240.000         204.000
 -22209262.97649 -17285423.73147  19718790.161    19718790.140    19718798.481
       235.000         201.000
  -2049766.78249  -1572765.79645  24029437.933    24029437.932    24029457.678
       204.000         145.000
  12458942.80649   9704001.48246  22931231.293    22931230.446    22931241.037
       220.000         170.000
  -3897119.40049  -3025956.94047  21297013.129    21297012.851    21297021.058
       240.000         202.000
    266407.84749    204738.40345  23829370.589    23829370.228    23829382.451
       212.000         157.000
 00  5 15 16 52 59.9980000  0  8G 5G30G 4G24G10G 7G 9G16
 -22069686.56849 -17182600.62347  20655329.349    20655328.976    20655336.825
       237.000         197.000
  -7784526.41249  -6046075.77045  23493856.185    23493856.602    23493866.717
       211.000         156.000
  -6968572.00249  -5409668.14447  20234868.493    20234868.638    20234875.744
       241.000         204.000
 -22236791.67749 -17306874.65847  19713551.630    19713551.615    19713559.923
       234.000         201.000
  -2152228.87649  -1652606.04245  24009939.779    24009939.802    24009959.468
       201.000         144.000
  12522394.58449   9753444.29546  22943305.861    22943304.991    22943315.621
       219.000         170.000
  -3839538.78149  -2981089.02847  21307970.465    21307970.140    21307978.404
       240.000         201.000
    288281.26649    221782.62245  23833532.938    23833532.545    23833544.754
       211.000         156.000
 00  5 15 16 53 29.9980000  0  8G 5G30G 4G24G10G 7G 9G16
 -22136656.83949 -17234785.23947  20642585.330    20642584.968    20642592.791
       237.000         198.000
  -7887847.74949  -6126585.84745  23474194.847    23474195.163    23474205.287
       217.000         158.000
  -6917954.03649  -5370225.61047  20244500.778    20244500.948    20244508.069
       240.000         204.000
 -22263829.81449 -17327943.32647  19708406.438    19708406.400    19708414.725
       234.000         201.000
  -2254807.71349  -1732537.27245  23990419.435    23990419.422    23990438.941
       201.000         142.000
  12585843.11849   9802884.58046  22955379.831    22955378.943    22955389.597
       221.000         170.000
  -3781583.56649  -2935929.21947  21318999.022    21318998.709    21319007.013
       240.000         201.000
    310650.88449    239213.49845  23837789.642    23837789.264    23837801.429
       215.000         155.000
 00  5 15 16 53 59.9980000  0  8G 5G30G 4G24G10G 7G 9G16
 -22203298.41049 -17286713.71647  20629903.865    20629903.491    20629911.288
       237.000         198.000
  -7991086.40249  -6207031.49845  23454549.180    23454549.526    23454559.558
       220.000         159.000
  -6866832.06649  -5330390.34347  20254228.961    20254229.140    20254236.300
       240.000         204.000
 -22290290.06149 -17348561.68947  19703371.204    19703371.174    19703379.484
       234.000         200.000
  -2357413.20849  -1812489.24345  23970894.044    23970894.039    23970913.426
       204.000         141.000
  12649375.39749   9852390.12546  22967469.729    22967468.828    22967479.511
       219.000         170.000
  -3723169.09549  -2890411.54347  21330114.962    21330114.680    21330122.981
       239.000         200.000
    333603.41249    257098.59145  23842157.656    23842157.107    23842169.171
       209.000         158.000
 00  5 15 16 54 29.9980000  0  8G 5G30G 4G24G10G 7G 9G16
 -22269624.46249 -17338396.34447  20617282.428    20617282.050    20617289.826
       237.000         197.000
  -8094255.90649  -6287423.26245  23434916.637    23434916.989    23434927.020
       221.000         161.000
  -6815223.99749  -5290176.30547  20264049.632    20264049.835    20264057.033
       239.000         204.000
 -22316188.08049 -17368741.95847  19698442.956    19698442.943    19698451.246
       233.000         200.000
  -2460057.58749  -1892471.55945  23951361.214    23951361.310    23951380.595
       199.000         139.000
  12712975.80249   9901948.76046  22979572.562    22979571.682    22979582.399
       220.000         169.000
  -3664313.32749  -2844550.00647  21341314.901    21341314.630    21341322.933
       239.000         200.000
    357123.12449    275425.66445  23846633.339    23846632.782    23846644.607
       209.000         155.000
 00  5 15 16 54 59.9980000  0  8G 5G30G 4G24G10G 7G 9G16
 -22335601.98749 -17389807.39047  20604727.295    20604726.935    20604734.693
       237.000         198.000
  -8197323.53349  -6367735.63845  23415303.464    23415303.832    23415313.872
       214.000         161.000
  -6763100.99749  -5249561.02347  20273968.335    20273968.546    20273975.750
       240.000         204.000
 -22341492.65649 -17388459.80147  19693627.627    19693627.620    19693635.941
       234.000         200.000
  -2562707.23649  -1972457.96845  23931827.426    23931827.562    23931846.599
       202.000         138.000
  12776675.33749   9951584.63246  22991694.245    22991693.399    22991704.128
       221.000         169.000
  -3604987.77549  -2798322.41047  21352604.199    21352603.962    21352612.303
       239.000         200.000
    381240.67949    294218.44145  23851222.281    23851221.910    23851234.365
       218.000         160.000
 00  5 15 16 55 29.9980000  0  8G 5G30G 4G24G10G 7G 9G16
 -22401260.90749 -17440970.17047  20592232.774    20592232.438    20592240.178
       236.000         198.000
  -8300319.41849  -6447992.11346  23395703.962    23395704.313    23395714.403
       219.000         163.000
  -6710497.58049  -5208571.38947  20283978.468    20283978.676    20283985.894
       241.000         204.000
 -22366235.92049 -17407740.25547  19688919.113    19688919.108    19688927.438
       233.000         200.000
  -2665391.37549  -2052471.27045  23912287.057    23912287.214    23912306.159
       200.000         138.000
  12840441.78349  10001272.65546  23003828.750    23003827.852    23003838.613
       218.000         169.000
  -3545226.75349  -2751755.48447  21363976.400    21363976.148    21363984.530
       239.000         199.000
    405923.17949    313451.65545  23855919.457    23855919.124    23855931.062
       203.000         151.000
 00  5 15 16 55 59.9980000  0  8G 5G30G 4G24G10G 7G 9G16
 -22466565.42549 -17491856.79047  20579805.717    20579805.375    20579813.138
       237.000         197.000
  -8403208.43749  -6528165.31345  23376124.763    23376125.123    23376135.242
       218.000         162.000
  -6657382.36549  -5167182.94947  20294085.990    20294086.199    20294093.427
       240.000         204.000
 -22390384.17949 -17426557.06747  19684323.816    19684323.835    19684332.203
       233.000         199.000
  -2768073.44249  -2132482.96545  23892747.052    23892747.182    23892766.129
       199.000         137.000
  12904308.89149  10051039.10946  23015982.353    23015981.466    23015992.270
       219.000         169.000
  -3484998.95449  -2704824.82547  21375437.452    21375437.191    21375445.563
       239.000         199.000
    431204.01549    333150.96345  23860730.215    23860729.778    23860741.979
       216.000         158.000
 00  5 15 16 56 29.9980000  0  8G 5G30G 4G24G10G 7G 9G16
 -22531528.68149 -17542477.49847  20567443.592    20567443.271    20567451.027
       237.000         197.000
  -8506003.42149  -6608265.23245  23356563.399    23356563.812    23356573.975
       219.000         160.000
  -6603772.79149  -5125409.30147  20304287.595    20304287.799    20304295.036
       240.000         204.000
 -22413952.46549 -17444921.95547  19679838.901    19679838.907    19679847.286
       233.000         200.000
  -2870765.55049  -2212502.47145  23873205.171    23873205.290    23873224.178
       199.000         138.000
  12968261.45749  10100872.14446  23028152.180    23028151.342    23028162.161
       219.000         169.000
  -3424321.87349  -2657544.08247  21386983.990    21386983.725    21386992.088
       239.000         200.000
    457067.57849    353304.39645  23865651.711    23865651.403    23865663.535
       217.000         159.000
 00  5 15 16 56 59.9980000  0  8G 5G30G 4G24G10G 7G 9G16
 -22595896.75949 -17592634.43047  20555194.742    20555194.410    20555202.173
       237.000         198.000
  -8608450.83449  -6688094.33445  23337068.135    23337068.627    23337078.835
       218.000         160.000
  -6549419.45549  -5083056.09547  20314630.721    20314630.924    20314638.168
       240.000         204.000
 -22436689.29849 -17462638.95747  19675512.208    19675512.238    19675520.606
       232.000         199.000
  -2973212.94249  -2292331.29945  23853709.811    23853710.009    23853728.859
       197.000         134.000
  13032551.02849  10150967.78846  23040386.157    23040385.341    23040396.181
       219.000         169.000
  -3362946.58549  -2609719.29247  21398663.391    21398663.138    21398671.533
       239.000         201.000
    483765.09749    374107.63745  23870731.946    23870731.833    23870744.074
       209.000         150.000
 00  5 15 16 57 29.9980000  0  8G 5G30G 4G24G10G 7G 9G16
 -22659884.81849 -17642495.25047  20543018.197    20543017.874    20543025.633
       237.000         198.000
  -8710766.28349  -6767820.59745  23317598.133    23317598.579    23317608.812
       219.000         161.000
  -6494541.88249  -5040294.40647  20325073.613    20325073.825    20325081.058
       240.000         204.000
 -22458812.02449 -17479877.44447  19671302.376    19671302.409    19671310.780
       232.000         199.000
  -3075630.07649  -2372136.58345  23834220.157    23834220.393    23834239.135
       200.000         134.000
  13096960.35749  10201156.73446  23052642.996    23052642.160    23052652.993
       219.000         169.000
  -3301092.72049  -2561521.58547  21410433.900    21410433.631    21410442.049
       239.000         200.000
    511078.52449    395390.88145  23875929.651    23875929.425    23875941.467
       207.000         158.000
 00  5 15 16 57 59.9980000  0  8G 5G30G 4G24G10G 7G 9G16
 -22723524.07749 -17692084.27347  20530908.017    20530907.703    20530915.475
       237.000         198.000
  -8812981.14949  -6847468.49445  23298147.228    23298147.674    23298157.891
       215.000         161.000
  -6439176.06249  -4997152.25447  20335609.412    20335609.617    20335616.861
       240.000         203.000
 -22480353.99949 -17496663.38647  19667203.017    19667203.073    19667211.473
       231.000         199.000
  -3178047.17149  -2451941.83645  23814730.549    23814730.718    23814749.581
       199.000         135.000
  13161456.00049  10251412.95246  23064916.231    23064915.351    23064926.247
       217.000         168.000
  -3238796.01249  -2512978.79747  21422288.645    21422288.365    21422296.813
       239.000         200.000
    538974.11549    417127.62645  23881238.141    23881237.821    23881250.037
       219.000         158.000
 00  5 15 16 58 29.9980000  0  8G 5G30G 4G24G10G 7G 9G16
 -22786810.81849 -17741398.60347  20518864.905    20518864.611    20518872.378
       236.000         198.000
  -8915091.92449  -6927035.25346  23278716.031    23278716.591    23278726.810
       219.000         163.000
  -6383322.47349  -4953630.02547  20346237.978    20346238.207    20346245.484
       239.000         203.000
 -22501313.72849 -17512995.63347  19663214.484    19663214.537    19663222.956
       231.000         199.000
  -3280459.66049  -2531743.50845  23795241.766    23795242.040    23795260.768
       202.000         137.000
  13226039.72549  10301737.80346  23077206.164    23077205.298    23077216.250
       219.000         168.000
  -3176057.13849  -2464091.46447  21434227.506    21434227.245    21434235.732
       238.000         199.000
    567452.84549    439318.79945  23886657.342    23886657.066    23886669.469
       218.000         157.000
 00  5 15 16 58 59.9980000  0  8G 5G30G 4G24G10G 7G 9G16
 -22849741.78949 -17790435.70747  20506889.520    20506889.232    20506897.005
       237.000         198.000
  -9017095.65449  -7006518.60846  23259305.300    23259305.849    23259316.096
       221.000         163.000
  -6326982.44749  -4909728.75447  20356959.098    20356959.364    20356966.663
       240.000         203.000
 -22521690.00249 -17528873.23847  19659336.987    19659337.054    19659345.481
       232.000         199.000
  -3382863.81149  -2611538.67145  23775754.616    23775754.969    23775773.647
       204.000         137.000
  13290712.55549  10352132.08646  23089513.058    23089512.209    23089523.219
       219.000         168.000
  -3112877.77149  -2414860.89747  21446250.226    21446249.948    21446258.471
       239.000         200.000
    596515.23449    461964.92345  23892187.688    23892187.537    23892199.612
       207.000         149.000
 00  5 15 16 59 29.9980000  0  8G 5G30G 4G24G10G 7G 9G16
 -22912328.79249 -17839204.79147  20494979.599    20494979.301    20494987.089
       236.000         198.000
  -9119004.51249  -7085928.05246  23239912.637    23239913.218    23239923.430
       216.000         163.000
  -6270172.35249  -4865461.20047  20367769.745    20367769.996    20367777.309
       240.000         203.000
 -22541497.28649 -17544307.48047  19655567.763    19655567.834    19655576.268
       231.000         199.000
  -3485270.36549  -2691335.71845  23756267.081    23756267.391    23756286.034
       202.000         136.000
  13355460.33149  10402584.76546  23101834.235    23101833.385    23101844.463
       220.000         169.000
  -3049274.27249  -2365299.83847  21458353.662    21458353.382    21458361.928
       238.000         199.000
    626146.63949    485054.29445  23897826.577    23897826.238    23897838.546
       209.000         155.000
 00  5 15 16 59 59.9980000  0  8G 5G30G 4G24G10G 7G 9G16
 -22974557.41249 -17887694.61447  20483137.863    20483137.560    20483145.360
       236.000         198.000
  -9220804.00649  -7165252.27945  23220540.772    23220541.348    23220551.595
       219.000         161.000
  -6212882.09349  -4820819.49247  20378671.762    20378672.004    20378679.336
       240.000         203.000
 -22560723.24449 -17559288.74047  19651909.200    19651909.265    19651917.683
       231.000         199.000
  -3587663.86249  -2771122.61045  23736782.005    23736782.329    23736800.922
       201.000         137.000
  13420295.57149  10453105.59546  23114172.102    23114171.239    23114182.337
       219.000         169.000
  -2985236.77349  -2315400.59747  21470539.628    21470539.380    21470547.957
       237.000         198.000
    656358.84449    508596.30045  23903575.755    23903575.408    23903587.617
       212.000         158.000
 00  5 15 17  0 29.9980000  0  8G 5G30G 4G24G10G 7G 9G16
 -23036445.96249 -17935919.45347  20471360.833    20471360.557    20471368.351
       237.000         198.000
  -9322512.93949  -7244505.92545  23201186.079    23201186.721    23201196.963
       221.000         161.000
  -6155134.72649  -4775821.59947  20389660.781    20389661.001    20389668.343
       239.000         203.000
 -22579388.55849 -17573833.13947  19648357.341    19648357.387    19648365.789
       232.000         199.000
  -3690061.75449  -2850912.89445  23717296.083    23717296.438    23717314.895
       201.000         137.000
  13485197.66949  10503678.52146  23126522.698    23126521.814    23126532.940
       218.000         169.000
  -2920788.38049  -2265181.18247  21482803.825    21482803.564    21482812.170
       237.000         198.000
    687130.74149    532574.30145  23909431.208    23909430.971    23909443.497
       212.000         152.000
 00  5 15 17  0 59.9980000  0  8G 5G30G 4G24G10G 7G 9G16
 -23097986.36149 -17983873.00647  20459650.088    20459649.809    20459657.588
       236.000         198.000
  -9424123.16049  -7323682.66945  23181850.273    23181850.880    23181861.131
       220.000         161.000
  -6096926.64549  -4730464.70547  20400737.465    20400737.676    20400745.009
       240.000         202.000
 -22597487.46949 -17587936.18747  19644913.295    19644913.305    19644921.676
       232.000         199.000
  -3792455.07749  -2930699.65545  23697811.034    23697811.328    23697829.827
       202.000         138.000
  13550172.69249  10554308.25546  23138887.153    23138886.273    23138897.417
       217.000         168.000
  -2855925.51749  -2214638.80847  21495146.903    21495146.636    21495155.266
       237.000         198.000
    718467.32249    556992.40745  23915394.502    23915394.151    23915406.627
       216.000         159.000
 00  5 15 17  1 29.9980000  0  9G 5G30G 4G24G10G 7G 6G 9G16
 -23159175.06049 -18031552.50347  20448006.236    20448005.951    20448013.758
       236.000         198.000
  -9525631.30549  -7402779.88045  23162533.940    23162534.492    23162544.706
       221.000         162.000
  -6038258.94349  -4684749.66347  20411901.624    20411901.808    20411909.138
       240.000         203.000
 -22615018.85049 -17601597.00647  19641577.212    19641577.211    19641585.564
       231.000         198.000
  -3894839.70349  -3010479.62845  23678327.673    23678327.947    23678346.413
       201.000         139.000
  13615221.84949  10604995.75546  23151265.657    23151264.806    23151276.008
       218.000         168.000
  -1764413.48659  -1362744.98255  24823510.867    24823510.835    24823525.539
       210.000         134.000
  -2790649.53449  -2163774.52247  21507568.616    21507568.323    21507576.966
       238.000         197.000
    750369.27449    581851.15645  23921465.188    23921464.919    23921477.050
       203.000         148.000
 00  5 15 17  1 59.9980000  0  9G 5G30G 4G24G10G 7G 6G 9G16
 -23220005.29849 -18078952.68647  20436430.627    20436430.326    20436438.146
       237.000         198.000
  -9627030.76649  -7481792.38745  23143238.293    23143238.806    23143248.960
       220.000         161.000
  -5979129.46249  -4638674.79647  20423153.631    20423153.813    20423161.147
       240.000         203.000
 -22631978.58949 -17614812.38647  19638349.908    19638349.869    19638358.225
       231.000         199.000
  -3997207.98749  -3090246.86345  23658847.451    23658847.704    23658866.153
       200.000         138.000
  13680349.84849  10655744.72746  23163659.226    23163658.361    23163669.613
       217.000         168.000
  -1841952.83949  -1423165.16345  24808755.541    24808755.437    24808770.276
       210.000         134.000
  -2724958.37349  -2112586.72247  21520069.353    21520069.038    21520077.659
       238.000         196.000
    782840.38749    607153.24545  23927644.695    23927644.190    23927656.497
       212.000         155.000
 00  5 15 17  2 29.9980000  0  9G 5G30G 4G24G10G 7G 6G 9G16
 -23280488.93949 -18126082.79547  20424920.995    20424920.665    20424928.481
       237.000         198.000
  -9728334.08649  -7560729.98945  23123960.911    23123961.401    23123971.499
       220.000         162.000
  -5919554.69049  -4592252.95647  20434490.408    20434490.561    20434497.904
       240.000         203.000
 -22648380.88549 -17627593.41147  19635228.695    19635228.634    19635236.979
       231.000         199.000
  -4099571.08349  -3170010.03045  23639368.189    23639368.385    23639386.886
       203.000         139.000
  13745542.39649  10706543.97346  23176065.116    23176064.198    23176075.476
       218.000         168.000
  -1919429.52249  -1483536.48445  24794012.110    24794012.065    24794026.881
       212.000         135.000
  -2658868.69049  -2061088.38147  21532645.970    21532645.591    21532654.182
       238.000         197.000
    815865.75249    632887.29745  23933929.116    23933928.651    23933940.922
       213.000         156.000
 00  5 15 17  2 59.9980000  0  9G 5G30G 4G24G10G 7G 6G 9G16
 -23340602.05349 -18172924.18147  20413481.828    20413481.518    20413489.327
       236.000         199.000
  -9829517.35149  -7639574.03745  23104706.383    23104706.834    23104716.893
       220.000         162.000
  -5859515.11749  -4545468.92947  20445915.631    20445915.767    20445923.102
       239.000         203.000
 -22664203.94149 -17639923.06847  19632217.682    19632217.618    19632225.959
       231.000         199.000
  -4201903.63449  -3249749.41745  23619894.824    23619894.926    23619913.393
       202.000         139.000
  13810821.73049  10757410.85146  23188487.445    23188486.592    23188497.858
       217.000         167.000
  -1996821.60049  -1543841.91045  24779284.819    24779284.831    24779299.582
       206.000         139.000
  -2592361.22749  -2009264.50147  21545302.009    21545301.637    21545310.240
       237.000         197.000
    849466.86549    659069.93945  23940322.937    23940322.562    23940334.765
       216.000         154.000
 00  5 15 17  3 29.9980000  0  9G 5G30G 4G24G10G 7G 6G 9G16
 -23400409.60949 -18219527.47047  20402100.818    20402100.499    20402108.338
       236.000         199.000
  -9930645.41849  -7718375.07246  23085462.316    23085462.789    23085472.793
       221.000         164.000
  -5799080.10749  -4498376.77047  20457416.079    20457416.204    20457423.553
       239.000         202.000
 -22679515.26049 -17651853.97347  19629304.032    19629303.966    19629312.318
       231.000         198.000
  -4304269.72949  -3329514.92845  23600415.025    23600415.093    23600433.535
       201.000         139.000
  13876120.80949  10808293.10246  23200913.556    23200912.719    23200923.998
       216.000         166.000
  -2074196.35949  -1604133.79245  24764560.665    24764560.790    24764575.585
       207.000         137.000
  -2525505.36349  -1957169.14647  21558024.348    21558023.974    21558032.606
       238.000         197.000
    883575.64449    685648.07045  23946813.463    23946813.215    23946825.791
       213.000         154.000
 00  5 15 17  3 59.9980000  0  9G 5G30G 4G24G10G 7G 6G 9G16
 -23459865.29849 -18265856.57647  20390786.760    20390786.457    20390794.283
       238.000         199.000
 -10031672.01649  -7797097.04146  23066237.582    23066238.035    23066247.990
       219.000         163.000
  -5738207.87949  -4450943.92247  20468999.725    20468999.849    20469007.208
       241.000         202.000
 -22694270.79949 -17663351.80447  19626496.136    19626496.093    19626504.444
       233.000         198.000
  -4406621.98349  -3409269.64045  23580937.804    23580937.894    23580956.373
       205.000         140.000
  13941483.73149  10859225.12346  23213351.767    23213350.963    23213362.311
       218.000         165.000
  -2151509.54849  -1664377.69245  24749848.471    24749848.551    24749863.306
       207.000         142.000
  -2458259.70949  -1904770.05047  21570820.895    21570820.505    21570829.152
       240.000         197.000
    918235.30449    712655.70245  23953409.107    23953408.891    23953421.020
       208.000         154.000
 00  5 15 17  4 29.9980000  0  9G 5G30G 4G24G10G 7G 6G 9G16
 -23518944.14749 -18311892.03247  20379544.455    20379544.128    20379551.968
       237.000         199.000
 -10132572.41949  -7875720.66145  23047036.777    23047037.302    23047047.196
       220.000         162.000
  -5676878.25049  -4403154.65247  20480670.403    20480670.535    20480677.900
       241.000         202.000
 -22708448.34749 -17674399.24847  19623798.245    19623798.213    19623806.536
       231.000         198.000
  -4508934.69749  -3488993.54245  23561468.189    23561468.232    23561486.576
       203.000         139.000
  14006933.30749  10910224.64746  23225806.464    23225805.679    23225817.103
       218.000         164.000
  -2228738.56049  -1724555.97345  24735152.144    24735152.310    24735167.055
       202.000         140.000
  -2390604.14949  -1852051.53647  21583695.389    21583695.016    21583703.679
       238.000         196.000
    953468.03249    740109.74545  23960113.613    23960113.414    23960125.441
       205.000         142.000
 00  5 15 17  4 59.9980000  0  9G 5G30G 4G24G10G 7G 6G 9G16
 -23577667.58949 -18357650.54947  20368369.758    20368369.416    20368377.261
       236.000         199.000
 -10233368.04549  -7954262.64746  23027855.949    23027856.486    23027866.316
       219.000         164.000
  -5615117.21449  -4355029.22247  20492423.201    20492423.320    20492430.678
       239.000         202.000
 -22722071.78949 -17685014.92047  19621205.834    19621205.760    19621214.063
       231.000         198.000
  -4611228.50549  -3568702.70245  23542002.160    23542002.148    23542020.370
       205.000         140.000
  14072446.17149  10961273.49146  23238273.298    23238272.463    23238283.932
       217.000         164.000
  -2305906.94049  -1784687.04245  24720467.352    24720467.567    24720482.143
       212.000         145.000
  -2322564.42849  -1799033.67847  21596642.935    21596642.599    21596651.313
       237.000         196.000
    989249.19749    767991.09045  23966922.990    23966922.491    23966934.706
       215.000         157.000
 00  5 15 17  5 29.9980000  0  9G 5G30G 4G24G10G 7G 6G 9G16
 -23636017.87749 -18403118.31047  20357266.062    20357265.722    20357273.586
       237.000         199.000
 -10334041.41649  -8032709.37446  23008698.421    23008698.912    23008708.755
       219.000         164.000
  -5552911.61649  -4306557.38947  20504260.566    20504260.690    20504268.058
       240.000         202.000
 -22735125.86349 -17695186.93847  19618721.739    19618721.671    19618729.969
       232.000         198.000
  -4713484.57249  -3648382.45945  23522543.255    23522543.280    23522561.361
       204.000         140.000
  14138037.86549  11012383.77246  23250755.141    23250754.242    23250765.744
       216.000         163.000
  -2382999.09549  -1844758.68145  24705797.129    24705797.339    24705811.908
       212.000         146.000
  -2254127.79149  -1745706.55847  21609666.053    21609665.719    21609674.510
       238.000         197.000
   1025593.47749    796311.30445  23973838.882    23973838.480    23973850.605
       214.000         157.000
 00  5 15 17  5 59.9980000  0  9G 5G30G 4G24G10G 7G 6G 9G16
 -23694012.80249 -18448309.15247  20346229.998    20346229.643    20346237.526
       238.000         199.000
 -10434610.34949  -8111074.71646  22989560.791    22989561.250    22989571.038
       219.000         164.000
  -5490283.57449  -4257756.36847  20516178.335    20516178.455    20516185.827
       241.000         202.000
 -22747630.83749 -17704931.08347  19616342.146    19616342.060    19616350.350
       232.000         199.000
  -4815719.75049  -3728045.91745  23503088.357    23503088.378    23503106.329
       204.000         140.000
  14203688.69049  11063540.12046  23263248.174    23263247.276    23263258.840
       218.000         164.000
  -2460034.92649  -1904786.47445  24691137.555    24691137.743    24691152.392
       210.000         148.000
  -2185316.71249  -1692087.65247  21622760.480    21622760.131    21622768.958
       238.000         197.000
   1062480.35849    825054.21345  23980858.181    23980857.766    23980870.152
       219.000         154.000
 00  5 15 17  6 29.9980000  0  9G 5G30G 4G24G10G 7G 6G 9G16
 -23751624.97049 -18493201.74547  20335266.753    20335266.413    20335274.302
       237.000         200.000
 -10535047.66049  -8189337.49646  22970448.139    22970448.601    22970458.352
       224.000         165.000
  -5427210.34149  -4208608.45047  20528180.811    20528180.943    20528188.323
       240.000         202.000
 -22759561.73249 -17714227.88647  19614071.818    19614071.714    19614079.983
       231.000         199.000
  -4917905.35449  -3807670.76845  23483642.856    23483642.843    23483660.709
       204.000         141.000
  14269423.75549  11114762.11246  23275757.200    23275756.360    23275767.940
       217.000         164.000
  -2536989.29549  -1964750.76045  24676493.309    24676493.620    24676508.383
       210.000         147.000
  -2116108.59849  -1638159.37247  21635930.422    21635930.072    21635938.932
       237.000         195.000
   1099934.05049    854238.88645  23987985.499    23987985.091    23987997.435
       215.000         157.000
 00  5 15 17  6 59.9980000  0  9G 5G30G 4G24G10G 7G 6G 9G16
 -23808859.30249 -18537799.92547  20324375.444    20324375.084    20324382.973
       237.000         200.000
 -10635358.49649  -8267501.70546  22951359.604    22951360.037    22951369.770
       224.000         166.000
  -5363701.75249  -4159121.29447  20540266.118    20540266.252    20540273.665
       239.000         202.000
 -22770926.34649 -17723083.43647  19611909.202    19611909.089    19611917.372
       230.000         198.000
  -5020045.60349  -3887260.26645  23464205.907    23464206.009    23464223.798
       207.000         142.000
  14335236.08049  11166044.30346  23288280.936    23288280.119    23288291.746
       218.000         163.000
  -2613869.24949  -2024657.07145  24661863.404    24661863.744    24661878.451
       209.000         145.000
  -2046513.33649  -1583929.41747  21649174.001    21649173.682    21649182.576
       236.000         195.000
   1137946.25249    883858.80445  23995219.083    23995218.654    23995230.861
       211.000         155.000
 00  5 15 17  7 29.9980000  0  9G 5G30G 4G24G10G 7G 6G 9G16
 -23865715.11549 -18582103.15647  20313556.150    20313555.787    20313563.677
       237.000         200.000
 -10735542.12149  -8345566.79846  22932295.301    22932295.687    22932305.416
       223.000         168.000
  -5299761.70649  -4109297.93247  20552433.529    20552433.682    20552441.100
       240.000         203.000
 -22781726.56949 -17731499.19847  19609853.985    19609853.880    19609862.173
       231.000         198.000
  -5122138.84349  -3966813.12845  23444778.089    23444778.163    23444795.798
       206.000         143.000
  14401124.25049  11217385.60045  23300819.165    23300818.319    23300830.000
       217.000         162.000
  -2690676.44749  -2084506.68945  24647247.353    24647247.725    24647262.344
       213.000         149.000
  -1976534.96949  -1529400.93547  21662490.555    21662490.212    21662499.131
       237.000         196.000
   1176514.51949    913911.95845  24002558.681    24002558.153    24002570.215
       202.000         140.000
 00  5 15 17  7 59.9980000  0  9G 5G30G 4G24G10G 7G 6G 9G16
 -23922175.79749 -18626098.49047  20302812.042    20302811.670    20302819.563
       237.000         201.000
 -10835581.51749  -8423519.52346  22913258.361    22913258.789    22913268.494
       222.000         168.000
  -5235377.74649  -4059128.66647  20564685.423    20564685.568    20564693.018
       239.000         202.000
 -22791948.32949 -17739464.21247  19607908.825    19607908.735    19607917.045
       231.000         198.000
  -5224167.41849  -4046315.60445  23425362.504    23425362.585    23425380.160
       208.000         145.000
  14467102.96549  11268797.45545  23313374.561    23313373.752    23313385.466
       218.000         162.000
  -2767396.24949  -2144288.21745  24632648.042    24632648.368    24632662.900
       217.000         153.000
  -1906161.43049  -1474564.53647  21675882.255    21675881.928    21675890.904
       236.000         195.000
   1215652.70249    944409.15745  24010006.577    24010005.955    24010018.099
       212.000         157.000
 00  5 15 17  8 29.9980000  0  9G 5G30G 4G24G10G 7G 6G 9G16
 -23978273.00549 -18669810.59347  20292137.125    20292136.749    20292144.651
       238.000         201.000
 -10935508.77249  -8501384.85646  22894242.771    22894243.220    22894252.901
       224.000         168.000
  -5170586.42149  -4008641.97147  20577014.847    20577014.987    20577022.447
       240.000         202.000
 -22801625.71649 -17747005.03547  19606067.252    19606067.182    19606075.491
       231.000         198.000
  -5326161.85949  -4125791.48245  23405953.445    23405953.513    23405970.999
       211.000         147.000
  14533138.62149  11320253.66645  23325940.842    23325940.009    23325951.770
       219.000         162.000
  -2844062.47749  -2204028.01645  24618058.927    24618059.232    24618073.711
       216.000         152.000
  -1835429.27049  -1419448.69447  21689342.225    21689341.899    21689350.907
       237.000         194.000
   1255325.71849    975323.26045  24017556.410    24017555.653    24017567.413
       212.000         156.000
 00  5 15 17  8 59.9980000  0  9G 5G30G 4G24G10G 7G 6G 9G16
 -24033987.03349 -18713224.11347  20281535.157    20281534.738    20281542.635
       238.000         201.000
 -11035304.16149  -8579147.44746  22875252.312    22875252.740    22875262.432
       220.000         168.000
  -5105372.49249  -3957825.98447  20589424.701    20589424.837    20589432.283
       241.000         202.000
 -22810741.79449 -17754108.47947  19604332.575    19604332.486    19604340.773
       232.000         198.000
  -5428101.56049  -4205224.70045  23386554.898    23386554.876    23386572.258
       212.000         149.000
  14599248.74249  11371767.91445  23338521.323    23338520.457    23338532.254
       216.000         162.000
  -2920657.65049  -2263712.45445  24603483.286    24603483.550    24603498.011
       215.000         152.000
  -1764323.40449  -1364041.65447  21702873.351    21702872.992    21702881.999
       237.000         193.000
   1295550.39849   1006667.05645  24025210.847    24025210.128    24025221.994
       219.000         154.000
 00  5 15 17  9 29.9980000  0  9G 5G30G 4G24G10G 7G 6G 9G16
 -24089312.95649 -18756335.21347  20271006.996    20271006.568    20271014.469
       238.000         201.000
 -11134962.22849  -8656803.01846  22856287.952    22856288.397    22856298.100
       222.000         168.000
  -5039735.57949  -3906680.39447  20601915.040    20601915.162    20601922.625
       240.000         202.000
 -22819294.35349 -17760772.81347  19602705.113    19602705.007    19602713.262
       231.000         198.000
  -5529980.54949  -4284610.62845  23367167.873    23367167.834    23367185.014
       212.000         150.000
  14665436.33849  11423342.52745  23351116.565    23351115.642    23351127.457
       220.000         162.000
  -2997179.00649  -2323339.38445  24588921.722    24588921.958    24588936.406
       214.000         153.000
  -1692843.65449  -1308343.26547  21716475.612    21716475.231    21716484.238
       237.000         194.000
   1336328.36449   1038441.95645  24032970.569    24032969.979    24032982.045
       212.000         151.000
 00  5 15 17  9 59.9980000  0  9G 5G30G 4G24G10G 7G 6G 9G16
 -24144249.24049 -18799142.70147  20260552.959    20260552.534    20260560.448
       239.000         201.000
 -11234481.83749  -8734350.71646  22837349.912    22837350.393    22837360.086
       223.000         168.000
  -4973678.82849  -3855207.66147  20614485.264    20614485.383    20614492.874
       241.000         203.000
 -22827284.41149 -17766998.83947  19601184.661    19601184.563    19601192.822
       232.000         197.000
  -5631796.00449  -4363947.04345  23347792.814    23347792.756    23347809.891
       214.000         150.000
  14731700.92249  11474977.10945  23363726.395    23363725.488    23363737.317
       221.000         161.000
  -3073627.10249  -2382909.21345  24574373.997    24574374.267    24574388.706
       211.000         148.000
  -1620993.24749  -1252356.05847  21730148.401    21730148.001    21730157.026
       237.000         194.000
   1377657.95949   1070646.94545  24040835.224    24040834.732    24040846.330
       213.000         151.000
 00  5 15 17 10 29.9980000  0  9G 5G30G 4G24G10G 7G 6G 9G16
 -24198804.65049 -18841653.40047  20250171.449    20250171.003    20250178.903
       238.000         201.000
 -11333871.87649  -8811797.44946  22818436.595    22818437.062    22818446.726
       223.000         168.000
  -4907215.69249  -3803418.26547  20627132.849    20627132.963    20627140.459
       240.000         203.000
 -22834723.64149 -17772795.64547  19599769.055    19599768.945    19599777.178
       231.000         198.000
  -5733555.87649  -4443240.16745  23328428.389    23328428.276    23328445.347
       213.000         151.000
  14798031.54849  11526663.19145  23376348.914    23376347.917    23376359.737
       220.000         162.000
  -3150013.01549  -2442430.58845  24559838.236    24559838.390    24559852.797
       213.000         146.000
  -1548785.97349  -1196090.77847  21743889.107    21743888.701    21743897.741
       236.000         195.000
   1419526.99949   1103272.04045  24048802.936    24048802.350    24048814.298
       200.000         142.000
 00  5 15 17 10 59.9980000  0  9G 5G30G 4G24G10G 7G 6G 9G16
 -24252968.89749 -18883859.29647  20239864.364    20239863.907    20239871.783
       237.000         201.000
 -11433122.08649  -8889135.20246  22799549.883    22799550.334    22799559.988
       223.000         169.000
  -4840340.52849  -3751307.81347  20639858.857    20639858.938    20639866.448
       239.000         202.000
 -22841604.29749 -17778157.19947  19598459.741    19598459.603    19598467.863
       231.000         198.000
  -5835248.88949  -4522481.19745  23309076.659    23309076.552    23309093.563
       214.000         151.000
  14864436.54449  11578407.19945  23388985.480    23388984.492    23388996.350
       220.000         162.000
  -3226328.63349  -2501897.20645  24545315.814    24545315.998    24545330.230
       210.000         147.000
  -1476216.43549  -1139543.21147  21757698.762    21757698.326    21757707.393
       237.000         194.000
   1461942.67749   1136323.27145  24056874.411    24056873.775    24056885.356
       212.000         158.000
 00  5 15 17 11 29.9980000  0  9G 5G30G 4G24G10G 7G 6G 9G16
 -24306748.17549 -18925765.22547  20229630.519    20229630.052    20229637.935
       238.000         202.000
 -11532238.40049  -8966368.65346  22780688.636    22780689.051    22780698.706
       222.000         168.000
  -4773063.98549  -3698884.59547  20652661.191    20652661.276    20652668.818
       240.000         202.000
 -22847935.37049 -17783090.51147  19597254.991    19597254.861    19597263.112
       232.000         198.000
  -5936879.93349  -4601673.94845  23289736.746    23289736.637    23289753.597
       212.000         152.000
  14930907.79249  11630202.83745  23401634.692    23401633.675    23401645.509
       219.000         162.000
  -3302582.20649  -2561315.45145  24530805.115    24530805.326    24530819.514
       211.000         144.000
  -1403295.51349  -1082721.84647  21771575.259    21771574.815    21771583.902
       236.000         194.000
   1504895.55949   1169792.93145  24065047.972    24065047.276    24065058.906
       220.000         148.000
 00  5 15 17 11 59.9980000  0  9G 5G30G 4G24G10G 7G 6G 9G16
 -24360120.91149 -18967354.35847  20219474.037    20219473.569    20219481.453
       239.000         202.000
 -11631199.23649  -9043480.92246  22761856.957    22761857.386    22761867.065
       223.000         168.000
  -4705369.25749  -3646135.51647  20665543.099    20665543.193    20665550.760
       241.000         202.000
 -22853698.00449 -17787580.87647  19596158.438    19596158.308    19596166.522
       233.000         198.000
  -6038426.56149  -4680800.93445  23270412.820    23270412.702    23270429.661
       216.000         153.000
  14997464.65949  11682065.19446  23414300.160    23414299.160    23414310.996
       221.000         163.000
  -3378754.33849  -2620670.25045  24516309.930    24516310.127    24516324.329
       212.000         144.000
  -1330006.39749  -1025613.57047  21785521.810    21785521.349    21785530.486
       238.000         194.000
   1548403.83459   1203695.30455  24073327.179    24073326.732    24073338.722
       219.000         154.000
 00  5 15 17 12 29.9980000  0  9G 5G30G 4G24G10G 7G 6G 9G16
 -24413112.47349 -19008646.48047  20209390.099    20209389.628    20209397.481
       238.000         201.000
 -11730030.30649  -9120492.07646  22743049.984    22743050.409    22743060.099
       224.000         170.000
  -4637286.52249  -3593084.10047  20678498.858    20678498.952    20678506.532
       240.000         202.000
 -22858920.61749 -17791650.44647  19595164.634    19595164.492    19595172.707
       231.000         198.000
  -6139913.27649  -4759881.22945  23251100.310    23251100.243    23251117.121
       214.000         153.000
  15064079.67849  11733972.86845  23426976.734    23426975.696    23426987.552
       220.000         162.000
  -3454872.67649  -2679983.11645  24501824.934    24501825.175    24501839.371
       210.000         149.000
  -1256379.66249   -968242.21747  21799532.629    21799532.166    21799541.301
       236.000         194.000
   1592438.54349   1238008.22145  24081706.603    24081706.203    24081717.951
       206.000         147.000
 00  5 15 17 12 59.9980000  0  9G 5G30G 4G24G10G 7G 6G 9G16
 -24465692.07349 -19049617.59547  20199384.543    20199384.066    20199391.903
       238.000         201.000
 -11828700.34049  -9197377.76246  22724273.663    22724274.072    22724283.776
       226.000         171.000
  -4568789.34549  -3539709.73947  20691533.498    20691533.590    20691541.174
       240.000         202.000
 -22863574.89149 -17795277.15647  19594279.002    19594278.836    19594287.052
       232.000         199.000
  -6241307.96049  -4838889.81945  23231805.296    23231805.220    23231822.049
       214.000         153.000
  15130781.90749  11785948.48946  23439669.865    23439668.824    23439680.686
       219.000         164.000
  -3530908.33549  -2739231.55145  24487355.723    24487355.999    24487370.159
       210.000         148.000
  -1182389.02849   -910587.30947  21813612.704    21813612.227    21813621.385
       237.000         194.000
   1637027.62849   1272752.81645  24090191.999    24090191.467    24090203.446
       195.000         138.000
 00  5 15 17 13 29.9980000  0  9G 5G30G 4G24G10G 7G 6G 9G16
 -24517901.62449 -19090300.35947  20189449.370    20189448.928    20189456.749
       238.000         202.000
 -11927251.47949  -9274170.81346  22705520.052    22705520.414    22705530.058
       224.000         173.000
  -4499924.21849  -3486048.66147  20704638.180    20704638.235    20704645.840
       241.000         202.000
 -22867705.81149 -17798496.05647  19593492.985    19593492.789    19593500.978
       232.000         199.000
  -6342651.38049  -4917858.47345  23212520.071    23212519.985    23212536.747
       215.000         155.000
  15197527.39049  11837957.82046  23452371.230    23452370.210    23452382.092
       219.000         164.000
  -3606905.46749  -2798449.95745  24472893.860    24472894.116    24472908.335
       213.000         151.000
  -1108081.25449   -852685.27647  21827753.127    21827752.636    21827761.821
       236.000         193.000
   1682125.54049   1307894.09645  24098773.992    24098773.361    24098785.253
       210.000         157.000
 00  5 15 17 13 59.9980000  0  9G 5G30G 4G24G10G 7G 6G 9G16
 -24569738.57349 -19130692.79047  20179585.138    20179584.685    20179592.496
       238.000         202.000
 -12025680.96449  -9350869.05946  22686789.568    22686789.912    22686799.505
       227.000         174.000
  -4430693.10349  -3432102.40547  20717812.498    20717812.541    20717820.141
       241.000         203.000
 -22871313.26849 -17801307.06947  19592806.529    19592806.335    19592814.511
       232.000         199.000
  -6443939.72349  -4996784.21045  23193245.308    23193245.231    23193261.952
       214.000         155.000
  15264316.78849  11890001.36246  23465080.951    23465079.926    23465091.868
       219.000         164.000
  -3682863.72849  -2857638.07145  24458439.286    24458439.623    24458453.877
       208.000         150.000
  -1033458.46049   -794537.77847  21841953.458    21841952.969    21841962.192
       237.000         193.000
   1727732.08249   1343431.62845  24107452.253    24107451.702    24107463.496
       210.000         147.000
 00  5 15 17 14 29.9980000  0  9G 5G30G 4G24G10G 7G 6G 9G16
 -24621181.30549 -19170778.03847  20169795.937    20169795.465    20169803.268
       238.000         202.000
 -12123966.88949  -9427455.43346  22668086.394    22668086.720    22668096.265
       226.000         174.000
  -4361079.35349  -3377857.99247  20731059.637    20731059.657    20731067.250
       241.000         202.000
 -22874378.85649 -17803695.83847  19592223.200    19592222.992    19592231.160
       232.000         198.000
  -6545150.25849  -5075649.30445  23173985.384    23173985.286    23174001.950
       214.000         156.000
  15331169.63149  11942094.32646  23477802.673    23477801.698    23477813.705
       215.000         164.000
  -3758763.73449  -2916780.78545  24443995.917    24443996.195    24444010.487
       207.000         151.000
   -958504.05849   -736131.87947  21856216.940    21856216.420    21856225.682
       236.000         194.000
   1773864.89549   1379379.13245  24116231.027    24116230.497    24116242.683
       210.000         149.000
 00  5 15 17 14 59.9980000  0  9G 5G30G 4G24G10G 7G 6G 9G16
 -24672216.44049 -19210545.68247  20160084.277    20160083.799    20160091.591
       238.000         202.000
 -12222095.94349  -9503919.58546  22649413.086    22649413.376    22649422.865
       227.000         176.000
  -4291073.79449  -3323308.27247  20744381.335    20744381.338    20744388.919
       241.000         202.000
 -22876891.83349 -17805654.01547  19591745.013    19591744.815    19591752.971
       232.000         199.000
  -6646268.77849  -5154442.71045  23154742.946    23154742.862    23154759.418
       213.000         156.000
  15398097.33249  11994245.62946  23490538.636    23490537.676    23490549.777
       215.000         164.000
  -3834594.11449  -2975869.24745  24429565.822    24429566.088    24429580.311
       207.000         148.000
   -883209.42649   -677460.87247  21870545.170    21870544.638    21870553.905
       236.000         193.000
   1820534.19549   1415744.84045  24125112.041    24125111.447    24125123.521
       213.000         152.000
 00  5 15 17 15 29.9980000  0  9G 5G30G 4G24G10G 7G 6G 9G16
 -24722867.11649 -19250013.75247  20150445.793    20150445.311    20150453.086
       237.000         202.000
 -12320090.85649  -9580279.19846  22630765.240    22630765.547    22630774.983
       226.000         176.000
  -4220704.34149  -3268475.00547  20757772.263    20757772.250    20757779.852
       241.000         202.000
 -22878877.96549 -17807201.66447  19591367.068    19591366.876    19591375.006
       232.000         198.000
  -6747317.13349  -5233181.44345  23135513.864    23135513.818    23135530.296
       213.000         156.000
  15465074.95249  12046435.81746  23503284.167    23503283.198    23503295.360
       217.000         163.000
  -3910379.96749  -3034923.02845  24415144.191    24415144.458    24415158.636
       204.000         150.000
   -807602.37349   -618546.43647  21884932.821    21884932.287    21884941.577
       236.000         192.000
   1867713.32349   1452507.69545  24134089.896    24134089.308    24134101.510
       216.000         143.000
 00  5 15 17 15 59.9980000  0  9G 5G30G 4G24G10G 7G 6G 9G16
 -24773136.99349 -19289185.08347  20140879.770    20140879.285    20140887.042
       238.000         202.000
 -12417955.24249  -9656537.09946  22612142.191    22612142.530    22612151.968
       226.000         174.000
  -4149979.02849  -3213364.43547  20771230.873    20771230.882    20771238.496
       241.000         202.000
 -22880343.89749 -17808343.95647  19591088.149    19591087.941    19591096.051
       233.000         198.000
  -6848297.66349  -5311867.30945  23116297.712    23116297.641    23116314.097
       214.000         156.000
  15532096.87349  12098660.54146  23516038.182    23516037.178    23516049.360
       215.000         163.000
  -3986127.28749  -3093946.77545  24400729.781    24400730.024    24400744.301
       206.000         150.000
   -731691.45149   -559395.21047  21899378.296    21899377.763    21899387.056
       237.000         193.000
   1915395.51249   1489662.71945  24143163.295    24143162.975    24143174.963
       203.000         145.000
 00  5 15 17 16 29.9980000  0  9G 5G30G 4G24G10G 7G 6G 9G16
 -24823019.86749 -19328054.85447  20131387.377    20131386.905    20131394.629
       237.000         202.000
 -12515682.95549  -9732688.50446  22593545.134    22593545.510    22593554.954
       226.000         175.000
  -4078896.64349  -3157975.63147  20784757.450    20784757.467    20784765.089
       240.000         202.000
 -22881286.63349 -17809078.56147  19590908.748    19590908.554    19590916.661
       232.000         199.000
  -6949203.03949  -5390494.61845  23097095.869    23097095.751    23097112.161
       211.000         156.000
  15599167.25449  12150923.01346  23528801.325    23528800.325    23528812.599
       216.000         163.000
  -4061832.08249  -3152937.37845  24386323.530    24386323.752    24386337.986
       209.000         150.000
   -655475.47849   -500006.28447  21913881.842    21913881.303    21913890.574
       236.000         192.000
   1963583.16949   1527211.43345  24152333.378    24152332.997    24152345.178
       202.000         139.000
 00  5 15 17 16 59.9980000  0  9G 5G30G 4G24G10G 7G 6G 9G16
 -24872533.63349 -19366637.01547  20121965.205    20121964.751    20121972.467
       239.000         202.000
 -12613291.72349  -9808747.22746  22574970.723    22574971.132    22574980.567
       226.000         176.000
  -4007479.54249  -3102326.00947  20798347.695    20798347.729    20798355.385
       241.000         202.000
 -22881726.85649 -17809421.60547  19590824.953    19590824.770    19590832.893
       232.000         198.000
  -7050050.25949  -5469076.61245  23077905.090    23077905.000    23077921.324
       210.000         155.000
  15666266.19249  12203207.74745  23541569.986    23541568.950    23541581.255
       215.000         162.000
  -4137514.27649  -3211910.38045  24371921.769    24371921.883    24371936.063
       206.000         151.000
   -578977.26249   -440397.42747  21928439.081    21928438.551    21928447.811
       236.000         191.000
   2012254.92049   1565137.53745  24161595.452    24161594.929    24161606.824
       216.000         157.000
 00  5 15 17 17 29.9980000  0  9G 5G30G 4G24G10G 7G 6G 9G16
 -24921640.95149 -19404902.45747  20112620.363    20112619.931    20112627.657
       237.000         202.000
 -12710743.97549  -9884683.99546  22556426.076    22556426.516    22556435.988
       223.000         175.000
  -3935695.04349  -3046390.10847  20812007.857    20812007.922    20812015.588
       240.000         203.000
 -22881630.19249 -17809346.29847  19590843.336    19590843.180    19590851.292
       232.000         199.000
  -7150800.59749  -5547583.10445  23058732.738    23058732.632    23058748.917
       211.000         154.000
  15733429.12049  12255542.32745  23554350.708    23554349.735    23554362.092
       209.000         162.000
  -4213138.72949  -3270838.39445  24357530.894    24357530.997    24357545.075
       207.000         150.000
   -502164.16449   -380543.21147  21943056.199    21943055.706    21943064.987
       235.000         191.000
   2061445.02149   1603467.17845  24170955.930    24170955.371    24170967.936
       219.000         150.000
 00  5 15 17 17 59.9980000  0  9G 5G30G 4G24G10G 7G 6G 9G16
 -24970364.21449 -19442868.62447  20103348.596    20103348.191    20103355.919
       238.000         202.000
 -12808061.87449  -9960516.07446  22537907.005    22537907.488    22537916.944
       226.000         175.000
  -3863569.92649  -2990188.78247  20825732.830    20825732.915    20825740.625
       241.000         202.000
 -22881021.78549 -17808872.22447  19590959.141    19590958.970    19590967.076
       233.000         198.000
  -7251475.14649  -5626030.54045  23039574.827    23039574.708    23039590.952
       208.000         155.000
  15800631.84549  12307907.92645  23567139.162    23567138.147    23567150.506
       207.000         161.000
  -4288729.83249  -3329740.43645  24343146.350    24343146.368    24343160.448
       209.000         150.000
   -425063.38849   -320464.83847  21957728.074    21957727.592    21957736.908
       236.000         191.000
   2111127.21349   1642180.73845  24180410.142    24180409.608    24180421.710
       209.000         153.000
 00  5 15 17 18 29.9980000  0  9G 5G30G 4G24G10G 7G 6G 9G16
 -25018680.65349 -19480517.79647  20094154.279    20094153.874    20094161.594
       237.000         202.000
 -12905222.21549 -10036225.38546  22519417.941    22519418.432    22519427.904
       225.000         175.000
  -3791085.80049  -2933707.71947  20839526.147    20839526.224    20839533.959
       240.000         202.000
 -22879881.45249 -17807983.67347  19591176.149    19591175.987    19591184.091
       233.000         198.000
  -7352049.69549  -5704400.04645  23020435.955    23020435.856    23020451.990
       207.000         157.000
  15867895.49349  12360320.98445  23579939.015    23579938.058    23579950.500
       208.000         159.000
  -4364266.58949  -3388600.13445  24328772.095    24328772.164    24328786.155
       208.000         151.000
   -347656.43349   -260147.88747  21972458.240    21972457.755    21972467.091
       235.000         190.000
   2161321.46649   1681293.04445  24189961.492    24189961.099    24189973.457
       214.000         143.000
 00  5 15 17 18 59.9980000  0  9G 5G30G 4G24G10G 7G 6G 9G16
 -25066585.52249 -19517846.25047  20085038.284    20085037.878    20085045.599
       238.000         202.000
 -13002220.11549 -10111808.11346  22500959.829    22500960.322    22500969.755
       226.000         177.000
  -3718242.78849  -2876946.99647  20853387.736    20853387.819    20853395.579
       240.000         202.000
 -22878207.88849 -17806679.60447  19591494.615    19591494.458    19591502.562
       231.000         198.000
  -7452518.69249  -5782687.30845  23001317.265    23001317.034    23001333.121
       209.000         158.000
  15935222.71449  12412783.57445  23592751.047    23592750.105    23592762.594
       209.000         158.000
  -4439746.61249  -3447415.62345  24314408.671    24314408.792    24314422.649
       212.000         152.000
   -269943.87749   -199592.78847  21987246.564    21987246.072    21987255.434
       235.000         190.000
   2212028.18848   1720804.81945  24199611.067    24199610.558    24199622.595
       193.000         139.000
 00  5 15 17 19 29.9980000  0  9G 5G30G 4G24G10G 7G 6G 9G16
 -25114082.70449 -19554857.03747  20075999.879    20075999.463    20076007.173
       238.000         203.000
 -13099059.35949 -10187267.23246  22482531.903    22482532.386    22482541.817
       226.000         176.000
  -3645049.40649  -2819913.26247  20867315.968    20867316.093    20867323.868
       240.000         201.000
 -22876008.03449 -17804965.45447  19591913.184    19591913.052    19591921.191
       231.000         198.000
  -7552885.09849  -5860894.63245  22982218.006    22982217.748    22982233.799
       206.000         159.000
  16002607.49349  12465291.02045  23605574.119    23605573.130    23605585.650
       200.000         156.000
  -4515176.11349  -3506191.73445  24300054.777    24300054.955    24300068.740
       212.000         152.000
   -191934.76549   -138806.62147  22002091.300    22002090.830    22002100.199
       234.000         190.000
   2263240.52449   1760710.42845  24209356.335    24209355.770    24209367.969
       215.000         154.000
 00  5 15 17 19 59.9980000  0  9G 5G30G 4G24G10G 7G 6G 9G16
 -25161173.47349 -19591551.13747  20067038.812    20067038.385    20067046.125
       238.000         203.000
 -13195740.70449 -10262603.30146  22464133.997    22464134.502    22464143.908
       228.000         177.000
  -3571511.30949  -2762610.92247  20881309.859    20881309.968    20881317.760
       241.000         201.000
 -22873285.73149 -17802844.19447  19592431.213    19592431.092    19592439.247
       232.000         198.000
  -7653148.38349  -5939021.59945  22963138.286    22963138.064    22963154.065
       208.000         158.000
  16070047.02949  12517841.14445  23618407.530    23618406.540    23618419.145
       201.000         156.000
  -4590557.93849  -3564930.70645  24285710.094    24285710.230    24285723.916
       211.000         151.000
   -113634.60649    -77793.65847  22016991.446    22016990.954    22017000.391
       235.000         191.000
   2314953.84049   1801006.48245  24219196.780    24219196.346    24219208.560
       212.000         145.000
 00  5 15 17 20 29.9980000  0  9G 5G30G 4G24G10G 7G 6G 9G16
 -25207847.72549 -19627920.67847  20058156.999    20058156.569    20058164.318
       237.000         202.000
 -13292253.81149 -10337808.26246  22445768.151    22445768.626    22445778.045
       229.000         178.000
  -3497623.02349  -2705035.70447  20895370.431    20895370.499    20895378.310
       240.000         202.000
 -22870033.92349 -17800310.33247  19593050.051    19593049.916    19593058.055
       232.000         198.000
  -7753297.08149  -6017059.28045  22944080.410    22944080.205    22944096.146
       209.000         159.000
  16137549.48549  12570440.25745  23631252.884    23631251.942    23631264.618
       205.000         154.000
  -4665884.28649  -3623626.43445  24271375.790    24271375.994    24271389.650
       209.000         152.000
    -35038.47749    -16550.08547  22031947.901    22031947.409    22031956.912
       234.000         190.000
   2367174.13449   1841697.51745  24229134.109    24229133.755    24229146.210
       199.000         147.000
 00  5 15 17 20 59.9980000  0  9G 5G30G 4G24G10G 7G 6G 9G16
 -25254099.59749 -19663961.09647  20049355.545    20049355.131    20049362.891
       238.000         203.000
 -13388592.81249 -10412877.56746  22427435.432    22427435.881    22427445.293
       229.000         178.000
  -3423383.00049  -2647186.40347  20909497.911    20909497.955    20909505.780
       240.000         201.000
 -22866249.88949 -17797361.75547  19593770.168    19593770.010    19593778.142
       233.000         198.000
  -7853324.35649  -6095002.35345  22925045.693    22925045.455    22925061.312
       212.000         158.000
  16205118.84049  12623091.50445  23644110.994    23644110.127    23644122.803
       205.000         155.000
  -4741151.40449  -3682276.02445  24257052.915    24257053.067    24257066.632
       209.000         151.000
     43854.79749     44925.02947  22046960.911    22046960.408    22046969.966
       235.000         190.000
   2419904.08149   1882785.83545  24239168.225    24239167.786    24239179.962
       207.000         143.000
 00  5 15 17 21 29.9980000  0  9G 5G30G 4G24G10G 7G 6G 9G16
 -25299950.75649 -19699689.26147  20040630.393    20040629.955    20040637.716
       239.000         203.000
 -13484779.27849 -10487828.00246  22409131.720    22409132.174    22409141.569
       231.000         179.000
  -3348817.96649  -2589083.84947  20923687.239    20923687.273    20923695.117
       241.000         201.000
 -22861958.51049 -17794017.83947  19594586.807    19594586.661    19594594.767
       232.000         198.000
  -7953250.95449  -6172866.97345  22906030.030    22906029.862    22906045.674
       208.000         158.000
  16272731.27949  12675776.32745  23656977.409    23656976.493    23656989.107
       208.000         155.000
  -4816383.06749  -3740897.95945  24242736.742    24242736.859    24242750.392
       210.000         151.000
    123018.45549    106610.83947  22062025.388    22062024.877    22062034.460
       236.000         190.000
   2473118.48049   1924251.48845  24249294.503    24249294.110    24249306.725
       202.000         141.000
 00  5 15 17 21 59.9980000  0  9G 5G30G 4G24G10G 7G 6G 9G16
 -25345384.23749 -19735091.97847  20031984.710    20031984.278    20031992.014
       238.000         203.000
 -13580795.65949 -10562645.91246  22390860.392    22390860.822    22390870.214
       229.000         179.000
  -3273915.33349  -2530718.23547  20937940.785    20937940.828    20937948.683
       240.000         201.000
 -22857145.61849 -17790267.55547  19595502.669    19595502.511    19595510.646
       232.000         198.000
  -8053058.13849  -6250638.55945  22887037.082    22887036.978    22887052.739
       208.000         157.000
  16340402.23049  12728506.74645  23669854.909    23669853.996    23669866.629
       204.000         155.000
  -4891564.31549  -3799480.62045  24228430.208    24228430.276    24228443.799
       211.000         152.000
    202464.87149    168516.97347  22077143.646    22077143.128    22077152.768
       234.000         190.000
   2526830.51449   1966104.95445  24259515.536    24259515.181    24259527.842
       205.000         142.000
 00  5 15 17 22 29.9980000  0  9G 5G30G 4G24G10G 7G 6G 9G16
 -25390417.99449 -19770183.21447  20023415.077    20023414.621    20023422.381
       238.000         203.000
 -13676659.57549 -10637345.01346  22372618.100    22372618.479    22372627.865
       230.000         179.000
  -3198697.43749  -2472106.95247  20952254.337    20952254.375    20952262.238
       241.000         200.000
 -22851832.09049 -17786127.15947  19596513.824    19596513.668    19596521.794
       233.000         198.000
  -8152762.59249  -6328330.09445  22868063.653    22868063.634    22868079.299
       209.000         157.000
  16408111.82549  12781267.25345  23682739.808    23682738.863    23682751.524
       207.000         157.000
  -4966714.97349  -3858039.44945  24214129.405    24214129.483    24214142.989
       214.000         152.000
    282171.40149    230625.79947  22092311.357    22092310.867    22092320.574
       235.000         190.000
   2581018.77049   2008329.54345  24269827.268    24269826.891    24269839.574
       201.000         146.000
 00  5 15 17 22 59.9980000  0  9G 5G30G 4G24G10G 7G 6G 9G16
 -25435022.05949 -19804939.62847  20014927.200    20014926.745    20014934.517
       237.000         203.000
 -13772340.66949 -10711901.64746  22354410.591    22354410.936    22354420.310
       229.000         180.000
  -3123138.71949  -2413230.09747  20966632.740    20966632.776    20966640.641
       239.000         201.000
 -22845991.09949 -17781575.75647  19597625.313    19597625.180    19597633.304
       231.000         197.000
  -8252333.21149  -6405917.35545  22849115.845    22849115.779    22849131.452
       212.000         158.000
  16475888.32249  12834079.91045  23695637.481    23695636.502    23695649.150
       206.000         157.000
  -5041807.24549  -3916552.80045  24199839.713    24199839.830    24199853.267
       216.000         153.000
    362163.01449    292956.76347  22107533.346    22107532.862    22107542.631
       234.000         190.000
   2635709.42349   2050945.64045  24280234.789    24280234.302    24280246.788
       203.000         143.000
 00  5 15 17 23 29.9980000  0  9G 5G30G 4G24G10G 7G 6G 9G16
 -25479214.00849 -19839374.91547  20006517.784    20006517.322    20006525.066
       238.000         203.000
 -13867856.31549 -10786329.36746  22336234.521    22336234.886    22336244.239
       229.000         180.000
  -3047261.49349  -2354105.05547  20981071.772    20981071.787    20981079.659
       240.000         201.000
 -22839643.13049 -17776629.30347  19598833.295    19598833.158    19598841.304
       231.000         197.000
  -8351786.17949  -6483412.93145  22830190.375    22830190.281    22830205.935
       213.000         159.000
  16543712.43249  12886929.65345  23708544.245    23708543.150    23708555.808
       206.000         156.000
  -5116860.68649  -3975035.89545  24185557.431    24185557.536    24185570.880
       215.000         153.000
    442417.53649    355492.58647  22122805.366    22122804.888    22122814.732
       233.000         190.000
   2690881.86649   2093937.05845  24290733.624    24290733.262    24290745.934
       205.000         146.000
 00  5 15 17 23 59.9980000  0  9G 5G30G 4G24G10G 7G 6G 9G16
 -25522984.40549 -19873481.71447  19998188.562    19998188.111    19998195.847
       238.000         203.000
 -13963196.67449 -10860620.50646  22318091.767    22318092.159    22318101.549
       230.000         180.000
  -2971060.59149  -2294727.79147  20995572.394    20995572.394    20995580.266
       240.000         200.000
 -22832781.88049 -17771282.89347  19600138.942    19600138.833    19600146.972
       232.000         198.000
  -8451110.49749  -6560808.27545  22811289.353    22811289.304    22811304.938
       213.000         161.000
  16611591.71549  12939822.39845  23721461.501    23721460.350    23721472.994
       206.000         157.000
  -5191867.88449  -4033482.94945  24171283.860    24171284.015    24171297.402
       216.000         153.000
    522939.74949    418236.99847  22138128.328    22138127.850    22138137.738
       235.000         190.000
   2746541.64349   2137308.30045  24301325.516    24301325.066    24301337.612
       204.000         144.000
 00  5 15 17 24 29.9980000  0  9G 5G30G 4G24G10G 7G 6G 9G16
 -25566352.63749 -19907275.14247  19989935.849    19989935.400    19989943.126
       238.000         204.000
 -14058380.40249 -10934789.58546  22299978.844    22299979.245    22299988.638
       230.000         180.000
  -2894560.13349  -2235117.10247  21010129.989    21010129.996    21010137.885
       239.000         200.000
 -22825429.74649 -17765553.97547  19601538.005    19601537.889    19601546.028
       231.000         197.000
  -8550324.42649  -6638117.60145  22792409.392    22792409.312    22792424.932
       215.000         162.000
  16679505.06149  12992741.69345  23734385.104    23734383.986    23734396.666
       206.000         157.000
  -5266850.15549  -4091910.58845  24157015.006    24157015.262    24157028.636
       218.000         154.000
    603705.20649    481170.95347  22153497.607    22153497.124    22153507.062
       235.000         191.000
   2802665.82049   2181041.38945  24312005.608    24312005.095    24312017.662
       207.000         149.000
 00  5 15 17 24 59.9980000  0  9G 5G30G 4G24G10G 7G 6G 9G16
 -25609301.66449 -19940741.91747  19981762.945    19981762.486    19981770.206
       238.000         203.000
 -14153390.14649 -11008823.09246  22281898.993    22281899.436    22281908.862
       230.000         180.000
  -2817747.21749  -2175262.94647  21024747.019    21024747.051    21024754.974
       239.000         200.000
 -22817572.64549 -17759431.57447  19603033.187    19603033.071    19603041.194
       232.000         197.000
  -8649409.55149  -6715326.55946  22773553.999    22773553.891    22773569.425
       214.000         163.000
  16747467.82249  13045699.48245  23747318.108    23747316.965    23747329.725
       208.000         159.000
  -5341792.28449  -4150306.95345  24142753.848    24142754.120    24142767.469
       218.000         154.000
    684726.26149    544304.08347  22168915.559    22168915.052    22168925.009
       235.000         190.000
   2859267.70549   2225146.67245  24322776.523    24322776.152    24322788.798
       208.000         139.000
 00  5 15 17 25 29.9980000  0  9G 5G30G 4G24G10G 7G 6G 9G16
 -25651812.37749 -19973867.14347  19973673.421    19973672.968    19973680.690
       238.000         203.000
 -14248206.53549 -11082705.94946  22263856.001    22263856.439    22263865.833
       230.000         181.000
  -2740607.45149  -2115154.10447  21039426.302    21039426.323    21039434.244
       239.000         200.000
 -22809194.68349 -17752903.30547  19604627.493    19604627.360    19604635.486
       231.000         197.000
  -8748345.59749  -6792419.35746  22754726.987    22754726.840    22754742.283
       217.000         164.000
  16815497.07249  13098709.08645  23760263.701    23760262.668    23760275.449
       206.000         158.000
  -5416677.40249  -4208658.87645  24128503.571    24128503.878    24128517.201
       219.000         154.000
    766017.21349    607647.51547  22184384.860    22184384.345    22184394.345
       234.000         190.000
   2916362.90249   2269636.46145  24333641.669    24333641.087    24333653.717
       206.000         148.000
 00  5 15 17 25 59.9980000  0  9G 5G30G 4G24G10G 7G 6G 9G16
 -25693915.54949 -20006674.81147  19965661.448    19965661.009    19965668.719
       237.000         203.000
 -14342860.03149 -11156461.86246  22245844.003    22245844.449    22245853.826
       231.000         182.000
  -2663176.15049  -2054818.08747  21054161.073    21054161.071    21054168.992
       239.000         200.000
 -22800329.90249 -17745995.70447  19606314.407    19606314.282    19606322.423
       231.000         197.000
  -8847161.69049  -6869418.68746  22735922.768    22735922.618    22735937.981
       218.000         164.000
  16883560.36649  13151745.20845  23773215.723    23773214.829    23773227.613
       209.000         159.000
  -5491538.33149  -4266991.95645  24114257.986    24114258.230    24114271.531
       219.000         154.000
    847542.39949    671173.46147  22199898.734    22199898.202    22199908.245
       235.000         190.000
   2973916.84049   2314483.60345  24344593.814    24344593.193    24344605.988
       210.000         142.000
 00  5 15 17 26 29.9980000  0  9G 5G30G 4G24G10G 7G 6G 9G16
 -25735573.79349 -20039135.77647  19957734.161    19957733.717    19957741.430
       238.000         203.000
 -14437312.72549 -11230061.30946  22227870.271    22227870.678    22227880.034
       232.000         181.000
  -2585420.58749  -1994229.39747  21068957.491    21068957.525    21068965.449
       238.000         199.000
 -22790943.99349 -17738682.02047  19608100.491    19608100.345    19608108.512
       232.000         197.000
  -8945818.96449  -6946294.26946  22717148.793    22717148.638    22717163.888
       219.000         164.000
  16951693.25149  13204835.55445  23786181.223    23786180.262    23786193.054
       212.000         160.000
  -5566339.74749  -4325278.68045  24100023.720    24100023.878    24100037.149
       218.000         154.000
    929334.52649    734907.42547  22215463.418    22215462.852    22215472.934
       235.000         189.000
   3031963.05849   2359714.44645  24355639.654    24355639.104    24355651.705
       201.000         142.000
 00  5 15 17 26 59.9980000  0  9G 5G30G 4G24G10G 7G 6G 9G16
 -25776807.39849 -20071265.85847  19949887.683    19949887.224    19949894.918
       238.000         203.000
 -14531584.88849 -11303520.07646  22209930.867    22209931.245    22209940.587
       232.000         182.000
  -2507365.31849  -1933407.17247  21083810.932    21083810.982    21083818.935
       239.000         199.000
 -22781060.45049 -17730980.57147  19609981.259    19609981.129    19609989.311
       232.000         197.000
  -9044336.65549  -7023061.08545  22698401.400    22698401.176    22698416.348
       219.000         162.000
  17019873.45749  13257962.76745  23799155.700    23799154.682    23799167.532
       213.000         161.000
  -5641103.95849  -4383536.38645  24085796.493    24085796.653    24085809.910
       219.000         154.000
   1011368.40449    798829.76147  22231074.105    22231073.529    22231083.621
       235.000         188.000
   3090477.74149   2405310.23045  24366774.637    24366774.054    24366786.856
       208.000         148.000
 00  5 15 17 27 29.9980000  0  9G 5G30G 4G24G10G 7G 6G 9G16
 -25817612.86049 -20103062.32747  19942122.654    19942122.206    19942129.895
       238.000         203.000
 -14625672.22049 -11376834.83046  22192026.666    22192027.003    22192036.324
       232.000         184.000
  -2429011.54549  -1872352.35347  21098721.185    21098721.263    21098729.216
       239.000         199.000
 -22770678.86149 -17722891.04247  19611956.783    19611956.683    19611964.872
       231.000         197.000
  -9142710.09449  -7099715.49945  22679681.423    22679681.188    22679696.206
       217.000         161.000
  17088103.07349  13311128.49245  23812139.547    23812138.496    23812151.324
       214.000         162.000
  -5715829.37549  -4441763.88745  24071576.587    24071576.776    24071590.036
       216.000         153.000
   1093642.46349    862939.25647  22246730.486    22246729.898    22246740.011
       234.000         188.000
   3149460.51649   2451270.79745  24377998.847    24377998.260    24378010.902
       205.000         142.000
 00  5 15 17 27 59.9980000  0  9G 5G30G 4G24G10G 7G 6G 9G16
 -25858190.19649 -20134681.03947  19934401.048    19934400.603    19934408.253
       237.000         203.000
 -14719774.25049 -11450161.04846  22174119.605    22174119.952    22174129.241
       230.000         184.000
  -2350563.38749  -1811223.98847  21113649.433    21113649.499    21113657.467
       238.000         199.000
 -22760002.31849 -17714571.67547  19613988.498    19613988.372    19613996.579
       231.000         198.000
  -9241137.50449  -7176411.97346  22660951.136    22660950.941    22660965.857
       218.000         163.000
  17156180.36349  13364175.51845  23825094.384    23825093.370    23825106.211
       215.000         161.000
  -5790717.88949  -4500118.46245  24057325.618    24057325.860    24057339.121
       217.000         153.000
   1175952.24949    927076.58146  22262393.630    22262393.049    22262403.196
       233.000         187.000
   3208708.11249   2497437.73245  24389273.291    24389272.683    24389285.266
       205.000         143.000
 00  5 15 17 28 29.9980000  0  9G 5G30G 4G24G10G 7G 6G 9G16
 -25898425.09549 -20166032.91647  19926744.608    19926744.155    19926751.804
       238.000         203.000
 -14813776.37949 -11523409.40946  22156231.491    22156231.897    22156241.195
       230.000         184.000
  -2271911.24949  -1749936.67847  21128616.482    21128616.555    21128624.544
       238.000         198.000
 -22748919.81949 -17705935.98347  19616097.429    19616097.308    19616105.513
       231.000         197.000
  -9339503.29549  -7253060.45345  22642232.589    22642232.420    22642247.163
       219.000         161.000
  17224217.67349  13417191.38245  23838041.590    23838040.597    23838053.497
       216.000         162.000
  -5865657.10549  -4558512.54245  24043065.054    24043065.318    24043078.538
       214.000         150.000
   1258407.22649    991327.04146  22278084.370    22278083.830    22278094.013
       233.000         186.000
   3268330.65449   2543896.80845  24400619.147    24400618.520    24400631.073
       207.000         143.000
 00  5 15 17 28 59.9980000  0  9G 5G30G 4G24G10G 7G 6G 9G16
 -25937989.42549 -20196862.26947  19919215.751    19919215.305    19919222.947
       238.000         203.000
 -14907349.61949 -11596323.56846  22138425.066    22138425.466    22138434.766
       232.000         184.000
  -2192731.24949  -1688238.03847  21143683.961    21143684.052    21143692.054
       238.000         198.000
 -22737106.26049 -17696730.62747  19618345.434    19618345.332    19618353.568
       231.000         197.000
  -9437478.05249  -7329404.21145  22623588.477    22623588.295    22623602.913
       220.000         162.000
  17292541.53849  13470430.53845  23851043.251    23851042.306    23851055.289
       218.000         161.000
  -5940320.84649  -4616691.97845  24028856.843    24028857.186    24028870.366
       215.000         151.000
   1341330.63049   1055942.52346  22293864.256    22293863.738    22293873.994
       233.000         185.000
   3328652.86849   2590901.09245  24412097.925    24412097.461    24412109.984
       203.000         145.000
 00  5 15 17 29 29.9980000  0  9G 5G30G 4G24G10G 7G 6G 9G16
 -25977058.91049 -20227306.03547  19911781.056    19911780.636    19911788.288
       237.000         203.000
 -15000669.32549 -11669040.17646  22120666.887    22120667.295    22120676.589
       231.000         185.000
  -2113203.45749  -1626268.41047  21158817.611    21158817.718    21158825.746
       237.000         198.000
 -22724740.33249 -17687094.85647  19620698.595    19620698.505    19620706.728
       231.000         198.000
  -9535235.49249  -7405578.66346  22604985.722    22604985.484    22605000.018
       221.000         163.000
  17360974.70949  13523754.85145  23864065.752    23864064.834    23864077.906
       214.000         161.000
  -6014886.57449  -4674795.03245  24014667.317    24014667.679    24014680.843
       215.000         150.000
   1424542.50149   1120782.77346  22309699.021    22309698.539    22309708.863
       233.000         185.000
   3389495.42049   2638310.80145  24423675.952    24423675.447    24423687.949
       208.000         147.000
 00  5 15 17 29 59.9980000  0  9G 5G30G 4G24G10G 7G 6G 9G16
 -26015679.64249 -20257400.11647  19904431.773    19904431.369    19904439.004
       237.000         203.000
 -15093780.78349 -11741594.50546  22102948.339    22102948.748    22102958.015
       231.000         186.000
  -2033378.48049  -1564067.20347  21174007.826    21174007.956    21174015.996
       237.000         198.000
 -22711871.26849 -17677067.02547  19623147.502    19623147.418    19623155.643
       231.000         197.000
  -9632820.30349  -7481618.57346  22586415.820    22586415.573    22586430.017
       221.000         163.000
  17429469.52849  13577127.22645  23877100.068    23877099.100    23877112.212
       218.000         160.000
  -6089402.24149  -4732859.09745  24000487.429    24000487.743    24000500.871
       215.000         152.000
   1507992.00349   1185808.19046  22325578.994    22325578.564    22325588.939
       231.000         184.000
   3450808.52749   2686087.27645  24435343.567    24435343.022    24435355.525
       201.000         140.000
 00  5 15 17 30 29.9980000  0  9G 5G30G 4G24G10G 7G 6G 9G16
 -26053858.45649 -20287149.85447  19897166.561    19897166.190    19897173.794
       237.000         203.000
 -15186690.48349 -11813991.61946  22085268.183    22085268.601    22085277.829
       232.000         186.000
  -1953267.26849  -1501642.96447  21189252.529    21189252.656    21189260.713
       237.000         198.000
 -22698509.11449 -17666654.97147  19625690.256    19625690.149    19625698.401
       232.000         198.000
  -9730238.14349  -7557528.40046  22567877.638    22567877.431    22567891.759
       221.000         164.000
  17498017.38849  13630540.91445  23890144.510    23890143.471    23890156.647
       215.000         160.000
  -6163876.65949  -4790891.00645  23986315.328    23986315.586    23986328.748
       215.000         153.000
   1591667.46149   1251009.67546  22341502.011    22341501.559    22341512.021
       231.000         184.000
   3512581.69649   2734222.12045  24447098.589    24447098.060    24447110.699
       201.000         143.000
 00  5 15 17 30 59.9980000  0  9G 5G30G 4G24G10G 7G 6G 9G16
 -26091595.18649 -20316555.10747  19889985.530    19889985.130    19889992.741
       237.000         203.000
 -15279397.77949 -11886231.02646  22067626.545    22067626.964    22067636.174
       232.000         185.000
  -1872874.02049  -1438998.96047  21204550.921    21204551.034    21204559.121
       237.000         198.000
 -22684656.93249 -17655861.07847  19628326.248    19628326.154    19628334.376
       232.000         198.000
  -9827487.51749  -7633306.94746  22549371.537    22549371.329    22549385.557
       219.000         164.000
  17566616.79449  13683994.76845  23903198.676    23903197.661    23903210.840
       223.000         159.000
  -6238311.57049  -4848892.13245  23972150.710    23972150.934    23972164.120
       216.000         151.000
   1675564.18849   1316383.56246  22357467.114    22357466.699    22357477.212
       232.000         184.000
   3574811.13449   2782712.51045  24458940.392    24458939.907    24458952.559
       207.000         148.000
 00  5 15 17 31 29.9980000  0  9G 5G30G 4G24G10G 7G 6G 9G16
 -26128872.73549 -20345602.55947  19882891.888    19882891.472    19882899.065
       237.000         203.000
 -15371885.07449 -11958298.99646  22050026.750    22050027.173    22050036.375
       231.000         186.000
  -1792186.49149  -1376125.63947  21219905.307    21219905.425    21219913.525
       237.000         198.000
 -22670300.91249 -17644674.58047  19631058.149    19631058.029    19631066.270
       231.000         198.000
  -9924549.84149  -7708939.74246  22530901.002    22530900.802    22530914.987
       221.000         165.000
  17635283.01349  13737500.69545  23916265.580    23916264.582    23916277.792
       221.000         157.000
  -6312691.75849  -4906850.62645  23957996.560    23957996.754    23958009.951
       216.000         153.000
   1759694.36749   1381939.36946  22373476.681    22373476.257    22373486.825
       232.000         185.000
   3637510.13249   2831568.82145  24470871.559    24470871.068    24470883.773
       202.000         142.000
 00  5 15 17 31 59.9980000  0  9G 5G30G 4G24G10G 7G 6G 9G16
 -26165698.36449 -20374297.86647  19875884.188    19875883.784    19875891.382
       237.000         203.000
 -15464159.02549 -12030200.72746  22032467.489    22032467.957    22032477.159
       231.000         185.000
  -1711216.18349  -1313031.98347  21235313.517    21235313.625    21235321.752
       237.000         197.000
 -22655451.40149 -17633103.54847  19633883.907    19633883.790    19633892.066
       231.000         198.000
 -10021430.51749  -7784430.99646  22512465.045    22512464.862    22512478.986
       218.000         164.000
  17704007.18249  13791051.77045  23929343.507    23929342.526    23929355.785
       215.000         154.000
  -6387026.57149  -4964773.76745  23943851.076    23943851.247    23943864.414
       216.000         151.000
   1844046.25849   1447667.92746  22389528.455    22389528.010    22389538.618
       231.000         184.000
   3700667.80049   2880782.54945  24482890.034    24482889.552    24482902.313
       200.000         137.000
 00  5 15 17 32 29.9980000  0  9G 5G30G 4G24G10G 7G 6G 9G16
 -26202070.20349 -20402639.56647  19868962.888    19868962.469    19868970.068
       237.000         203.000
 -15556216.68949 -12101933.92646  22014949.448    22014949.922    22014959.096
       232.000         186.000
  -1629965.24349  -1249719.64747  21250775.141    21250775.222    21250783.370
       237.000         197.000
 -22640109.60849 -17621148.91547  19636803.385    19636803.251    19636811.537
       232.000         199.000
 -10118126.16549  -7859778.07446  22494064.307    22494064.118    22494078.183
       220.000         163.000
  17772789.75749  13844648.35545  23942432.609    23942431.594    23942444.879
       222.000         156.000
  -6461315.74849  -5022661.33845  23929714.286    23929714.427    23929727.552
       217.000         154.000
   1928617.18549   1513567.17346  22405621.918    22405621.425    22405632.105
       231.000         185.000
   3764282.34249   2930352.27444  24494995.667    24494995.118    24495007.904
       196.000         126.000
 00  5 15 17 32 59.9980000  0  8G 5G30G 4G24G10G 7G 6G 9
 -26237970.86649 -20430614.11947  19862131.273    19862130.823    19862138.415
       238.000         203.000
 -15648040.28349 -12173484.72646  21997475.963    21997476.446    21997485.599
       232.000         186.000
  -1548420.67649  -1186178.51547  21266292.639    21266292.701    21266300.847
       237.000         196.000
 -22624261.41249 -17608799.68547  19639819.230    19639819.096    19639827.363
       233.000         198.000
 -10214617.95749  -7934966.31146  22475702.389    22475702.191    22475716.197
       221.000         164.000
  17841646.47149  13898302.73445  23955535.815    23955534.776    23955548.072
       218.000         153.000
  -6535543.55749  -5080501.08845  23915589.164    23915589.349    23915602.419
       216.000         155.000
   2013419.79749   1579646.92846  22421759.438    22421758.961    22421769.674
       232.000         185.000
 00  5 15 17 33 29.9980000  0  8G 5G30G 4G24G10G 7G 6G 9
 -26273423.85849 -20458239.83347  19855384.798    19855384.350    19855391.963
       237.000         203.000
 -15739652.69049 -12244870.95946  21980042.642    21980043.150    21980052.295
       232.000         187.000
  -1466610.17549  -1122430.15947  21281860.743    21281860.798    21281868.943
       236.000         196.000
 -22607933.28449 -17596076.47847  19642926.397    19642926.241    19642934.525
       232.000         199.000
 -10310927.73649  -8010012.69946  22457375.094    22457374.893    22457388.855
       220.000         165.000
  17910552.34349  13951995.40345  23968648.302    23968647.264    23968660.601
       220.000         153.000
  -6609735.43249  -5138312.82145  23901470.851    23901470.982    23901484.151
       214.000         155.000
   2098425.88949   1645885.23846  22437935.695    22437935.221    22437945.968
       232.000         185.000
